     2              OBSERVATION DATA    GPS                 RINEX VERSION / TYPE
teqc 1997Jun30 19970702                                     PGM / RUN BY / DATE
                                                            COMMENT
BIT 2 OF LLI FLAGS DATA COLLECTED UNDER A-S CONDITION       COMMENT
BIT 2 OF LLI FLAGS DATA COLLECTED UNDER A-S CONDITION       COMMENT
Original Marker Name: HMCP                                  COMMENT
Campaign Name: HMC San Gabriel Valley 1993-1996             COMMENT
4-Character Station Name: HMCP                              COMMENT
6-Character Antenna Code: DMRCHT                            COMMENT
Vertical Measurement Point: BPA                             COMMENT
Vertical Offset to Rinex Ref. Point: 0.0000                 COMMENT
Radial Measurement Point: RRP                               COMMENT
Radial Offset to Rinex Ref. Point: 0.0000                   COMMENT
Antenna Height from Field Measurement: 0.0000 m             COMMENT
Additional Antenna Identification Info.:                    COMMENT
Turborogue and Ashtech Choke Ring                           COMMENT
Fixed antenna mounting on roof of Parsons                   COMMENT
building, HMC.                                              COMMENT
Original XYZ: -2458611.8980 -4680580.0811 3556474.6435      COMMENT
New XYZ position is based on association with SCEC monument COMMENT
E1D0R2C7+0011. Position of that monument is believed to be  COMMENT
valid to within 1 m horizontally; vertical accuracy         COMMENT
should be no worse than 3-times this value.                 COMMENT
                                                            COMMENT
Revised Rinex header created by UCSD GPS archive for        COMMENT
GSAC on 13-Apr-1999 (1999:103) 19:27:29 GMT                 COMMENT
For assistance contact dagnew@ucsd.edu or hjohnson@ucsd.edu COMMENT
                                                            COMMENT
HARVEY MUDD COLLEGE PHYSICS                                 MARKER NAME
MGB HARVEY MUDD COLLEGE                                     OBSERVER / AGENCY
T-262/263 TURBOROGUE SNR-8000 95.03.08                      REC # / TYPE / VERS
260/329 DORNE-MARGOL. TYPE T                                ANT # / TYPE
 -2458598.0000 -4680494.0000  3556451.0000                  APPROX POSITION XYZ
        0.0000        0.0000        0.0000                  ANTENNA: DELTA H/E/N
     1     1     0                                          WAVELENGTH FACT L1/2
     5    L1    L2    C1    P2    P1                        # / TYPES OF OBSERV
     0                                                      INTERVAL
  1996     2    17     0     0    0.000000                  TIME OF FIRST OBS
  1996     2    17    23    59   30.000000                  TIME OF LAST OBS
     0                                                      # OF SATELLITES
                                                            END OF HEADER
 96  2 17  0  0  0.0000000  0  8G 2G 9G12G 7G 4G27G26G15
  -1271913.66944   -991099.58344  21391811.1724   21391811.6494
  -2091580.80044  -1629801.66044  23489146.2354   23489146.7984
 -10749535.570 4  -8376257.291 4  20799960.418    20799959.512
 -18346794.56844 -14296194.43944  20214663.5424   20214663.6014
  -4124231.46944  -3213685.04444  23095205.9124   23095206.2964
   8430084.31944   6568893.62044  22210473.3504   22210473.6864
  -8093979.78744  -6306993.21444  22871073.5664   22871073.8124
   1248219.07044    972638.53744  24232013.3794   24232014.1834
 96  2 17  0  0 30.0000000  0  8G 2G 9G12G 7G 4G27G26G15
  -1246873.76644   -971587.97544  21396575.9804   21396576.5374
  -2185064.89144  -1702646.36444  23471356.8404   23471356.3994
 -10748571.729 4  -8375506.250 4  20800143.985    20800142.833
 -18336098.63844 -14287859.94044  20216698.9104   20216698.9834
  -4222585.78044  -3290324.72444  23076489.8484   23076490.3874
   8525652.76344   6643362.49844  22228659.6724   22228660.6924
  -8061681.98744  -6281826.11144  22877219.9334   22877219.8834
   1310602.09944   1021248.66344  24243883.7444   24243886.0624
 96  2 17  0  1  0.0000000  0  8G 2G 9G12G 7G 4G27G26G15
  -1221679.12544   -951955.78644  21401370.4714   21401370.7954
  -2278386.25744  -1775364.28144  23453599.1174   23453598.3664
 -10747293.271 4  -8374510.042 4  20800387.457    20800385.996
 -18325001.94844 -14279213.15744  20218810.7684   20218810.8244
  -4320827.78344  -3366876.87444  23057794.4894   23057795.2914
   8621555.96144   6718092.23044  22246909.5124   22246910.0234
  -8028916.63544  -6256294.67944  22883455.2784   22883455.8064
   1373459.22544   1070228.20344  24255845.4804   24255846.2994
 96  2 17  0  1 30.0000000  0  8G 2G 9G12G 7G 4G27G26G15
  -1196305.54844   -932184.16944  21406198.7184   21406198.8674
  -2371550.81044  -1847960.01644  23435870.4994   23435870.1084
 -10745698.609 4  -8373267.445 4  20800690.782    20800689.683
 -18313511.01444 -14270259.17044  20220996.9454   20220997.3934
  -4418939.24044  -3443327.31344  23039124.2244   23039124.6844
   8717782.66444   6793074.03844  22265221.1214   22265221.4884
  -7995675.66144  -6230392.63044  22889781.3414   22889781.1984
   1436789.05044   1119576.09644  24267897.0424   24267899.9034
 96  2 17  0  2  0.0000000  0  8G 2G 9G12G 7G 4G27G26G15
  -1170745.95044   -912267.59644  21411062.8544   21411062.9324
  -2464569.79544  -1920442.29344  23418168.5204   23418169.4264
 -10743788.110 4  -8371778.746 4  20801054.320    20801053.101
 -18301621.55844 -14260994.65044  20223259.5804   20223259.7264
  -4516917.18744  -3519673.72244  23020480.0864   23020481.0144
   8814328.67044   6868304.65544  22283593.1804   22283594.3394
  -7961980.14344  -6204136.39644  22896192.9034   22896192.5124
   1500588.05444   1169289.59144  24280037.7004   24280040.2344
 96  2 17  0  2 30.0000000  0  8G 2G 9G12G 7G 4G27G26G15
  -1145007.93844   -892212.00644  21415960.4874   21415960.9264
  -2557437.82544  -1992806.94444  23400495.2554   23400494.7484
 -10741562.359 4  -8370044.392 4  20801478.083    20801476.852
 -18289341.24044 -14251425.56144  20225596.3804   20225596.5844
  -4614754.62244  -3595910.66344  23001861.9744   23001862.5334
   8911185.21844   6943777.25844  22302025.0374   22302025.4054
  -7927853.53144  -6177544.24144  22902686.7674   22902686.8034
   1564852.29944   1219365.60744  24292266.6534   24292268.7154
 96  2 17  0  3  0.0000000  0  8G 2G 9G12G 7G 4G27G26G15
  -1119072.21044   -872002.34944  21420896.1184   21420896.1984
  -2650141.41844  -2065043.52144  23382855.0544   23382853.4734
 -10739010.548 4  -8368055.965 4  20801963.470    20801962.426
 -18276669.00944 -14241551.08444  20228007.7804   20228008.1634
  -4712406.12544  -3672002.70244  22983279.8864   22983280.9394
   9008360.18744   7019497.98144  22320516.4694   22320516.9244
  -7893285.64744  -6150608.23044  22909265.0474   22909265.2844
   1629589.25844   1269810.00444  24304585.1804   24304586.3814
 96  2 17  0  3 30.0000000  0  8G 2G 9G12G 7G 4G27G26G15
  -1092938.49444   -851638.41244  21425869.1844   21425869.6074
  -2742677.72244  -2137149.69744  23365245.7504   23365246.8544
 -10736143.937 4  -8365822.241 4  20802508.811    20802507.756
 -18263618.51844 -14231381.86344  20230491.4334   20230491.5684
  -4809871.18544  -3747949.45244  22964732.0124   22964731.9154
   9105847.03144   7095461.72044  22339066.7554   22339067.8244
  -7858297.12844  -6123344.46544  22915922.9044   22915923.3004
   1694784.59044   1320611.51444  24316991.6144   24316993.3824
 96  2 17  0  4  0.0000000  0  8G 2G 9G12G 7G 4G27G26G15
  -1066612.42144   -831124.58244  21430878.9544   21430879.4614
  -2835030.10444  -2209112.53144  23347672.2814   23347673.4684
 -10732954.285 4  -8363336.800 4  20803115.964    20803114.839
 -18250189.55344 -14220917.72344  20233046.8134   20233046.8464
  -4907155.25344  -3823755.17144  22946220.0934   22946220.3464
   9203652.78544   7171673.95444  22357679.1694   22357679.5874
  -7822899.75444  -6095762.11044  22922659.4374   22922659.4534
   1760443.51344   1371774.31844  24329486.1124   24329488.2034
 96  2 17  0  4 30.0000000  0  8G 2G 9G12G 7G 4G27G26G15
  -1040100.74344   -810466.12944  21435923.5804   21435924.1954
  -2927213.99744  -2280944.10544  23330130.9574   23330130.1444
 -10729449.364 4  -8360605.688 4  20803782.911    20803781.566
 -18236395.35044 -14210168.98644  20235671.6584   20235672.0334
  -5004277.33644  -3899434.69244  22927738.2484   22927738.7594
   9301769.72644   7248128.67944  22376350.3744   22376351.1514
  -7787089.26544  -6067857.85644  22929473.7804   22929474.2274
   1826554.43844   1423289.33044  24342066.3194   24342065.2994
 96  2 17  0  5  0.0000000  0  8G 2G 9G12G 7G 4G27G26G15
  -1013402.98144   -789662.67444  21441004.2704   21441004.5394
  -3019238.94144  -2352651.83344  23312618.4364   23312618.0274
 -10725630.392 4  -8357629.868 4  20804509.520    20804508.599
 -18222219.13144 -14199122.57344  20238369.2164   20238369.4784
  -5101257.81244  -3975003.86444  22909283.5764   22909284.1154
   9400188.05944   7324818.25144  22395078.5954   22395079.6904
  -7750857.41344  -6039625.26144  22936368.3934   22936367.9894
   1893113.02344   1475153.12144  24354732.5974   24354734.8614
 96  2 17  0  5 30.0000000  0  8G 2G 9G12G 7G 4G27G26G15
   -986521.17544   -768715.81244  21446119.5034   21446119.7894
  -3111093.00444  -2424226.40244  23295138.9124   23295140.2414
 -10721480.075 4  -8354395.858 4  20805299.421    20805298.209
 -18207632.45944 -14187756.32844  20241145.0784   20241144.9814
  -5198098.19544  -4050463.86844  22890854.9854   22890856.0134
   9498909.17644   7401743.76444  22413864.5674   22413866.1004
  -7714194.75344  -6011056.96744  22943344.7644   22943345.0834
   1960133.27644   1527376.70344  24367485.5764   24367487.3904
 96  2 17  0  6  0.0000000  0  8G 2G 9G12G 7G 4G27G26G15
   -959468.59144   -747635.87744  21451267.3534   21451267.7804
  -3202800.48444  -2495686.74944  23277687.5614   23277687.8934
 -10717006.519 4  -8350909.960 4  20806150.790    20806149.532
 -18192636.86144 -14176071.43944  20243998.5764   20243998.8944
  -5294794.93444  -4125811.95144  22872454.7374   22872455.2934
   9597925.19844   7478899.07644  22432707.0024   22432708.0044
  -7677104.54844  -5982155.52144  22950402.9164   22950402.9444
   2027603.61244   1579951.01344  24380324.6694   24380324.6864
 96  2 17  0  6 30.0000000  0  8G 2G 9G12G 7G 4G27G26G15
   -932219.95544   -726403.17244  21456453.0854   21456453.1184
  -3294342.80044  -2567018.39844  23260267.2054   23260266.6454
 -10712194.174 4  -8347160.082 4  20807066.340    20807065.339
 -18177206.64044 -14164047.88444  20246934.7224   20246934.8614
  -5391306.26144  -4201015.53744  22854088.9274   22854088.9994
   9697256.20144   7556299.80844  22451608.7494   22451609.5054
  -7639560.70044  -5952900.59444  22957547.0604   22957547.6304
   2095536.78044   1632885.95844  24393252.0274
 96  2 17  0  7  0.0000000  0  8G 2G 9G12G 7G 4G27G26G15
   -904808.79644   -705043.82744  21461668.7924   21461669.1504
  -3385723.17944  -2638223.86044  23242877.7974   23242877.6214
 -10707068.538 4  -8343166.078 4  20808041.829    20808040.587
 -18161370.94644 -14151708.37144  20249948.2434   20249948.4244
  -5487630.57444  -4276073.42144  22835758.5154   22835759.3054
   9796858.73844   7633912.14344  22470562.3544   22470562.9414
  -7601609.75444  -5923328.44044  22964768.8424   22964769.5714
   2163903.69544   1686158.85844  24406262.4074   24406265.4914
 96  2 17  0  7 30.0000000  0  8G 2G 9G12G 7G 4G27G26G15
   -877225.63444   -683550.45744  21466917.4134   21466918.0224
  -3476936.82244  -2709299.40744  23225521.2354   23225521.2144
 -10701631.347 4  -8338929.298 4  20809076.610    20809075.318
 -18145146.70744 -14139066.10244  20253035.5504   20253035.6954
  -5583747.99244  -4350970.08644  22817468.4314   22817468.3074
   9896735.95844   7711738.50544  22489569.0654   22489568.6714
  -7563266.26044  -5893450.40444  22972065.5714   22972066.4204
   2232699.10144   1739765.69044  24419354.1154   24419355.1784
 96  2 17  0  8  0.0000000  0  8G 2G 9G12G 7G 4G27G26G15
   -849384.97344   -661856.43444  21472216.0354   21472216.3014
  -3567902.49744  -2780181.72544  23208210.9184   23208210.7894
 -10695806.945 4  -8334390.802 4  20810184.731    20810183.747
 -18128463.03244 -14126065.82644  20256210.6104   20256210.5604
  -5679582.85044  -4425646.57044  22799231.9074   22799231.8744
   9996971.32344   7789843.93944  22508642.7074   22508644.3744
  -7524460.16044  -5863211.90144  22979449.8754   22979450.6934
   2301995.29144   1793762.74344  24432539.8734   24432540.4164
 96  2 17  0  8 30.0000000  0  8G 2G 9G12G 7G 4G27G26G15
   -821340.62344   -640003.69644  21477552.3634   21477552.8904
  -3658652.21244  -2850895.75344  23190940.7454   23190942.2694
 -10689630.307 4  -8329577.837 4  20811360.269    20811359.119
 -18111363.53744 -14112741.53644  20259464.3504   20259464.7024
  -5775190.86444  -4500146.28344  22781038.3494   22781039.0194
  10097505.51544   7868182.22244  22527773.9934   22527775.0404
  -7485233.91844  -5832646.00444  22986914.7004   22986914.7204
   2371754.34644   1848120.40144  24445814.5874   24445814.1304
 96  2 17  0  9  0.0000000  0  8G 2G 9G12G 7G 4G27G26G15
   -793117.63544   -618011.76244  21482922.9784   21482923.5374
  -3749197.80444  -2921450.73044  23173711.1924   23173710.8314
 -10683119.154 4  -8324504.206 4  20812599.401    20812598.205
 -18093882.11644 -14099119.63944  20262791.1564   20262791.0824
  -5870611.39544  -4574499.91744  22762880.2114   22762881.0284
  10198311.86544   7946732.57744  22546957.0004   22546957.2434
  -7445609.18844  -5801769.60744  22994455.2824   22994455.0554
   2441954.94644   1902822.16644  24459174.6764   24459176.2454
 96  2 17  0  9 30.0000000  0  8G 2G 9G12G 7G 4G27G26G15
   -764714.43344   -595879.39544  21488328.0354   21488328.1784
  -3839547.25544  -2991852.88644  23156518.6334   23156519.0524
 -10676269.882 4  -8319167.109 4  20813902.487    20813901.542
 -18076017.32244 -14085199.00744  20266190.5674   20266190.7694
  -5965852.78944  -4648713.96544  22744756.6724   22744756.8994
  10299409.12744   8025509.61544  22566194.7874   22566195.4394
  -7405567.40244  -5770568.22444  23002075.0624   23002074.7074
   2512597.21744   1957868.05044  24472615.8494   24472614.0644
 96  2 17  0 10  0.0000000  0  8G 2G 9G12G 7G 4G27G26G15
   -736161.27544   -573630.18344  21493761.7514   21493761.8804
  -3929705.98244  -3062106.41044  23139361.4564   23139361.9904
 -10669091.635 4  -8313573.666 4  20815268.514    20815267.485
 -18057781.75444 -14070989.46344  20269660.8234   20269660.7314
  -6060928.63444  -4722799.00844  22726664.1744   22726664.7024
  10400779.38544   8104499.39644  22585484.7174   22585485.1374
  -7365120.50344  -5739051.17044  23009771.8064   23009771.9544
   2583668.90544   2013248.58044  24486140.4984   24486141.9994
 96  2 17  0 10 30.0000000  0  8G 2G 9G12G 7G 4G27G26G15
   -707442.90944   -551252.23744  21499226.4764   21499226.8004
  -4019659.82744  -3132200.26244  23122244.7164   23122244.8254
 -10661574.358 4  -8307716.044 4  20816699.163    20816697.981
 -18039169.39144 -14056486.31144  20273202.5114   20273202.5534
  -6155815.86744  -4796737.06744  22708607.6134   22708606.9254
  10502424.18844   8183703.08844  22604827.0574   22604827.6174
  -7324257.88444  -5707210.18644  23017548.0054   23017548.9684
   2655176.56944   2068968.84844  24499746.7744   24499749.6854
 96  2 17  0 11  0.0000000  0  8G 2G 9G12G 7G 4G27G26G15
   -678530.82344   -528723.34244  21504728.5024   21504728.5764
  -4109394.96544  -3202123.73244  23105168.7244   23105166.7554
 -10653709.497 4  -8301587.578 4  20818195.488    20818194.575
 -18020173.01944 -14041683.93144  20276817.4304   20276817.7304
  -6250483.39544  -4870503.94344  22690592.8844   22690593.6144
  10604361.55644   8263134.76344  22624225.3104   22624225.7154
  -7282974.31944  -5675041.19744  23025403.6594   23025405.0314
   2727125.67744   2125033.07844  24513440.1534   24513441.1174
 96  2 17  0 11 30.0000000  0  7G 2G 9G12G 7G 4G27G26
   -649419.40744   -506039.12144  21510267.9984   21510268.3364
  -4198913.63844  -3271878.53844  23088133.5654   23088132.6344
 -10645493.236 4  -8295185.295 4  20819759.105    20819758.101
 -18000780.83544 -14026573.12844  20280507.5764   20280507.6514
  -6344915.64244  -4944087.47444  22672622.6124   22672623.9344
  10706589.52544   8342792.88444  22643678.2274   22643679.6654
  -7241277.64944  -5642550.29344  23033337.5234   23033338.3204
 96  2 17  0 12  0.0000000  0  7G 2G 9G12G 7G 4G27G26
   -620138.35044   -483222.71744  21515840.0444   21515840.2794
  -4288252.01544  -3341492.81144  23071132.3804   23071132.5094
 -10636965.419 4  -8288540.236 4  20821382.009    20821380.749
 -17981031.39844 -14011183.94344  20284265.7354   20284266.0074
  -6439155.19844  -5017520.85544  22654689.6894   22654690.3104
  10809054.17544   8422635.42244  22663176.7564   22663177.8814
  -7199215.78244  -5609774.82144  23041341.9184   23041342.5664
 96  2 17  0 12 30.0000000  0  8G 2G 9G12G 7G 4G27G26G24
   -590681.91744   -460269.65744  21521445.1344   21521445.2864
  -4377422.10644  -3410975.96444  23054163.8654   23054163.4694
 -10628129.318 4  -8281654.964 4  20823063.277    20823062.302
 -17960932.26544 -13995522.27444  20288090.3814   20288090.6554
  -6533197.55844  -5090800.58144  22636794.0704   22636794.2874
  10911755.58544   8502662.46844  22682721.1554   22682722.7274
  -7156780.46444  -5576708.35344  23049416.6034   23049416.9834
        -0.24854                  25189130.8924
 96  2 17  0 13  0.0000000  0  8G 2G 9G12G 7G 4G27G26G24
   -561034.56744   -437167.83744  21527087.4264   21527087.9374
  -4466395.41544  -3480305.79444  23037232.9194   23037232.8844
 -10618951.963 4  -8274503.778 4  20824809.952    20824808.643
 -17940459.12744 -13979569.16944  20291986.4464   20291986.3674
  -6627017.10144  -5163906.67744  22618940.4794   22618940.5634
  11014736.53344   8582907.31944  22702317.6334   22702319.1784
  -7113943.65344  -5543329.04544  23057568.6044   23057569.0644
   -106060.98844                  25168948.8354
 96  2 17  0 13 30.0000000  0  8G 2G 9G12G 7G 4G27G26G24
   -531206.91144   -413925.50744  21532762.8724   21532763.4984
  -4555173.98444  -3549483.87844  23020338.5284   23020338.9324
 -10609437.548 4  -8267089.947 4  20826620.282    20826619.243
 -17919620.60944 -13963331.35244  20295951.7824   20295951.9064
  -6720633.50444  -5236854.49744  22601126.1544   22601126.0054
  11117993.65344   8663367.37244  22721967.0104   22721968.3814
  -7070712.36544  -5509642.34444  23065796.0724   23065795.7264
   -212228.32844                  25148744.2244
 96  2 17  0 14  0.0000000  0  8G 2G 9G12G 7G 4G27G26G24
   -501193.40644   -390538.36444  21538474.2504   21538474.7894
  -4643751.87544  -3618505.58144  23003483.4394   23003483.8414
 -10599576.495 4  -8259406.013 4  20828496.660    20828495.607
 -17898420.68744 -13946811.92544  20299985.9674   20299986.2284
  -6814039.18044  -5309638.10944  22583351.6214   22583352.1574
  11221535.57344   8744049.34444  22741669.7194   22741670.3514
  -7027081.50344  -5475644.27344  23074099.5414   23074098.5254
   -318501.48744                  25128520.5244
 96  2 17  0 14 30.0000000  0  8G 2G 9G12G 7G 4G27G26G24
   -470984.33144   -366998.82644  21544222.9574   21544223.3294
  -4732106.49844  -3687353.30944  22986669.7644   22986670.2754
 -10589352.936 4  -8251439.601 4  20830442.515    20830441.283
 -17876844.75044 -13929999.49844  20304091.9004   20304092.0094
  -6907207.96444  -5382237.11944  22565622.2964   22565622.7844
  11325378.02844   8824965.50944  22761430.4004   22761430.7404
  -6983051.10844  -5441334.88344  23082477.9294   23082477.5624
   -424876.93744   -331071.76544  25108278.7014
 96  2 17  0 15  0.0000000  0  8G 2G 9G12G 7G 4G27G26G24
   -440579.33244   -343306.61844  21550008.5914   21550009.1584
  -4820229.97544  -3756020.92644  22969900.5744   22969900.8314
 -10578768.588 4  -8243192.059 4  20832456.349    20832455.331
 -17854888.77744 -13912890.93844  20308269.6904   20308269.9854
  -7000148.01844  -5454657.90044  22547936.1834   22547936.4764
  11429511.49744   8906108.42444  22781246.8534   22781247.5404
  -6938645.64744  -5406733.25344  23090927.3734   23090928.5214
   -531360.76544                  25088014.9964
 96  2 17  0 15 30.0000000  0  8G 2G 9G12G 7G 4G27G26G24
   -409965.60144   -319451.76644  21555834.1024   21555834.6134
  -4908121.52544  -3824507.80544  22953175.2284   22953174.9894
 -10567817.986 4  -8234659.125 4  20834540.231    20834539.248
 -17832536.73844 -13895473.75644  20312523.3794   20312523.2324
  -7092838.58744  -5526884.28244  22530297.6384   22530298.4984
  11533911.13844   8987458.76344  22801112.9924   22801114.7874
  -6893870.33444  -5371843.42844  23099447.5574   23099447.8654
   -637941.41544                  25067733.9214
 96  2 17  0 16  0.0000000  0  8G 2G 9G12G 7G 4G27G26G24
   -379156.53644   -295444.70644  21561697.0274   21561697.3374
  -4995790.67544  -3892821.39744  22936492.3524   22936492.0224
 -10556507.164 4  -8225845.498 4  20836692.734    20836691.478
 -17809781.69744 -13877742.54544  20316853.5344   20316853.5814
  -7185266.44944  -5598905.95044  22512709.5794   22512710.5924
  11638561.73644   9069004.62844  22821027.9474   22821029.1384
  -6848739.51644  -5336676.57144  23108035.1454   23108035.4574
   -744613.49644                  25047434.5274
 96  2 17  0 16 30.0000000  0  8G 2G 9G12G 7G 4G27G26G24
   -348148.01744   -271282.23044  21567597.7784   21567598.2344
  -5083234.12044  -3960959.11644  22919852.7094   22919852.4754
 -10544834.221 4  -8216749.697 4  20838913.864    20838912.878
 -17786618.00044 -13859692.90344  20321261.4134   20321261.2884
  -7277422.92944  -5670716.14544  22495172.7124   22495173.2454
  11743463.46144   9150746.18944  22840989.5334   22840991.3094
  -6803242.73844  -5301224.55544  23116694.1064   23116694.7614
   -851363.36744                  25027120.4474
 96  2 17  0 17  0.0000000  0  8G 2G 9G12G 7G 4G27G26G24
   -316943.07244   -246966.69644  21573536.2164   21573536.2774
  -5170451.36744  -4028920.56644  22903255.9534   22903256.0434
 -10532795.131 4  -8207368.593 4  20841204.957    20841203.763
 -17763060.77744 -13841336.61444  20325743.9374   20325743.9654
  -7369306.12344  -5742313.39244  22477687.6234   22477688.0234
  11848606.95544   9232676.13744  22860998.1044   22860998.5094
  -6757367.72244  -5265477.81244  23125423.5534   23125423.7994
   -958174.59344   -746627.60144  25006795.4414   25006796.1504
 96  2 17  0 17 30.0000000  0  8G 2G 9G12G 7G 4G27G26G24
   -285512.51244   -222475.35744  21579517.3114   21579517.4744
  -5257412.38944  -4096682.37244  22886708.2014   22886707.2224
 -10520365.088 4  -8197682.842 4  20843570.279    20843569.130
 -17739097.83744 -13822664.18744  20330304.2724   20330304.2934
  -7460881.80044  -5813671.01544  22460260.9374   22460261.7874
  11954012.78344   9314810.50644  22881056.0004   22881056.5294
  -6711083.11244  -5229411.89144  23134230.7064   23134230.8524
  -1065017.83744   -829881.96844  24986463.6094
 96  2 17  0 18  0.0000000  0  8G 2G 9G12G 7G 4G27G26G24
   -253838.13844   -197794.02944  21585544.8764   21585544.7174
  -5344094.78744  -4164227.08344  22870213.0284   22870212.4344
 -10507538.935 4  -8187688.443 4  20846010.884    20846009.959
 -17714739.56044 -13803683.70044  20334939.4614   20334939.3224
  -7552153.99744  -5884792.15444  22442892.6024   22442892.6434
  12059714.92544   9397175.76944  22901170.1614   22901171.1284
  -6664373.23344  -5193014.60144  23143119.9654   23143119.8494
  -1171888.01244                  24966125.9204
 96  2 17  0 18 30.0000000  0  8G 2G 9G12G 7G 4G27G26G24
   -221938.09144   -172936.85044  21591614.9974   21591615.2454
  -5430502.51644  -4231557.74244  22853769.4374   22853770.3384
 -10494336.228 4  -8177400.616 4  20848523.501    20848522.328
 -17690036.29844 -13784434.39444  20339640.1554   20339640.0714
  -7643148.71944  -5955697.08744  22425576.8344   22425577.1824
  12165691.01544   9479754.49244  22921337.0614   22921338.3334
  -6617243.39044  -5156290.08344  23152087.6424   23152088.8154
  -1278799.13044                  24945781.5114
 96  2 17  0 19  0.0000000  0  8G 2G 9G12G 7G 4G27G26G24
   -189810.56744   -147902.41844  21597728.7034   21597729.1804
  -5516619.92344  -4298662.18244  22837381.4404   22837381.5034
 -10480757.092 4  -8166819.477 4  20851107.502    20851106.216
 -17664987.99044 -13764916.22244  20344406.7484   20344406.7664
  -7733858.11844  -6026379.70644  22408315.6394   22408316.0704
  12271938.53844   9562544.72444  22941554.9514   22941556.4564
  -6569699.09944  -5119242.59344  23161135.4594   23161135.8064
  -1385749.32644  -1079802.29044  24925429.3284
 96  2 17  0 19 30.0000000  0  8G 2G 9G12G 7G 4G27G26G24
   -157464.38444   -122697.60544  21603884.1314   21603884.3344
  -5602469.63544  -4365558.03244  22821044.2744   22821044.0844
 -10466825.529 4  -8155963.717 4  20853758.412    20853757.378
 -17639602.07744 -13745134.98644  20349237.4604   20349237.4644
  -7824296.56344  -6096851.17944  22391105.2614   22391105.5154
  12378448.08444   9645539.13444  22961822.9484   22961824.1364
  -6521764.12844  -5081890.69344  23170257.6524   23170258.2014
  -1492766.30344                  24905065.0654
 96  2 17  0 20  0.0000000  0  8G 2G 9G12G 7G 4G27G26G24
   -124942.38544    -97355.78544  21610073.0174   21610073.1104
  -5688081.94144  -4432268.88744  22804752.8584   22804752.6814
 -10452571.726 4  -8144856.862 4  20856471.077    20856469.891
 -17613909.63044 -13725114.88844  20354126.6654   20354126.7814
  -7914494.57144  -6167135.30644  22373941.1364   22373941.5494
  12485187.42144   9728712.58444  22982135.1134   22982135.0764
  -6473472.62644  -5044260.96944  23179446.6384   23179447.0144
  -1599877.99044  -1246655.74044  24884682.7784   24884684.7604
 96  2 17  0 20 30.0000000  0  8G 2G 9G12G 7G 4G27G26G24
    -92277.97144    -71902.99944  21616288.4334   21616288.4994
  -5773482.68744  -4498814.89444  22788502.2224   22788501.9194
 -10438015.306 4  -8133514.194 4  20859240.858    20859239.813
 -17587922.93244 -13704865.51044  20359071.6214   20359071.8934
  -8004470.72644  -6237246.55344  22356819.4334   22356819.6734
  12592118.89844   9812035.76344  23002484.0094   23002485.5174
  -6424865.95944  -5006385.67844  23188696.1714   23188695.4294
  -1707108.63944  -1330212.02244  24864277.1034
 96  2 17  0 21  0.0000000  0  8G 2G 9G12G 7G 4G27G26G24
    -59449.99944    -46322.76944  21622535.6944   21622535.8264
  -5858686.13244  -4565207.15044  22772288.8334   22772289.1504
 -10423149.338 4  -8121930.330 4  20862069.907    20862068.795
 -17561611.61744 -13684363.18144  20364078.5294   20364078.4624
  -8094223.19944  -6307183.50444  22339739.7544   22339739.6814
  12699258.41044   9895521.07044  23022872.2384   23022873.0344
  -6375960.39744  -4968277.46544  23198002.7554   23198001.3304
  -1814457.22344                  24843848.2874
 96  2 17  0 21 30.0000000  0  8G 2G 9G12G 7G 4G27G26G24
    -26423.46544    -20587.81144  21628820.3864   21628820.8324
  -5943663.09144  -4631422.94444  22756118.3664   22756117.1464
 -10407937.104 4  -8110076.644 4  20864964.729    20864963.441
 -17534947.27444 -13663585.76544  20369152.5654   20369152.6154
  -8183733.04844  -6376931.39244  22322706.8484   22322707.1114
  12806634.43044   9979190.63544  23043304.4984   23043304.4974
  -6326728.63544  -4929915.05544  23207370.9114   23207370.4434
  -1921893.54944                  24823404.7644
 96  2 17  0 22  0.0000000  0  8G 2G 9G12G 7G 4G27G26G24
      6769.91944      5277.16144  21635136.7504   21635137.0654
  -6028427.38244  -4697473.02344  22739988.4424   22739987.9444
 -10392391.977 4  -8097963.564 4  20867922.776    20867921.672
 -17507953.41244 -13642551.58244  20374289.2924   20374289.4614
  -8273032.89744  -6446515.65244  22305713.5294   22305713.8534
  12914220.38044  10063023.80444  23063777.3034   23063778.4594
  -6277191.66844  -4891314.85444  23216798.5174   23216797.1444
  -2029432.29344                  24802941.5564
 96  2 17  0 22 30.0000000  0  8G 2G 9G12G 7G 4G27G26G24
     40162.84544     31297.61944  21641491.0144   21641491.6524
  -6112966.10044  -4763347.31544  22723901.0804   22723900.7594
 -10376492.131 4  -8085574.075 4  20870948.493    20870947.272
 -17480605.11444 -13621241.21444  20379493.3734   20379493.3214
  -8362107.99244  -6515924.78744  22288763.1174   22288763.4674
  13022039.94144  10147039.00644  23084295.4684   23084296.0354
  -6227323.82644  -4852456.81444  23226287.4414   23226287.7394
  -2137051.44444                  24782461.3384
 96  2 17  0 23  0.0000000  0  8G 2G 9G12G 7G 4G27G26G24
     73764.39444     57480.63944  21647885.1714   21647885.8884
  -6197267.60844  -4829036.77144  22707858.6704   22707858.3224
 -10360234.919 4  -8072906.117 4  20874041.963    20874040.967
 -17452913.56144 -13599663.37244  20384762.8184   20384763.0044
  -8450944.77644  -6585148.19844  22271858.0474   22271858.6754
  13130078.35444  10231224.73044  23104854.6324   23104855.2394
  -6177111.30244  -4813330.19744  23235842.3874   23235842.8834
  -2244743.87844                  24761968.3114
 96  2 17  0 23 30.0000000  0  8G 2G 9G12G 7G 4G27G26G24
    107564.03844     83818.02644  21654316.5444   21654317.1454
  -6281296.21744  -4894513.58044  22691868.3234   22691868.1174
 -10343608.282 4  -8059950.296 4  20877206.026    20877204.923
 -17424884.35244 -13577822.42744  20390096.7764   20390097.0134
  -8539521.51544  -6654169.00144  22255002.6354   22255002.9544
  13238321.22744  10315569.80344  23125452.2944   23125453.5824
  -6126541.67744  -4773925.33444  23245465.9244   23245467.6424
  -2352500.08144                  24741463.5584
 96  2 17  0 24  0.0000000  0  8G 2G 9G12G 7G 4G27G26G24
    141564.84844    110312.16144  21660787.4134   21660787.6424
  -6365044.51844  -4959771.97344  22675931.8664   22675930.7994
 -10326603.862 4  -8046700.101 4  20880441.909    20880440.710
 -17396502.37544 -13555706.59344  20395497.6944   20395497.8754
  -8627807.93944  -6722963.57244  22238202.1724   22238202.5334
  13346780.01944  10400083.10344  23146091.2534   23146092.3334
  -6075618.14344  -4734244.68244  23255156.1474   23255157.5154
  -2460302.89244                  24720947.8404
 96  2 17  0 24 30.0000000  0  7G 2G 9G12G 7G 4G27G26
    175764.86944    136961.52444  21667295.2184   21667295.8094
  -6448520.07944  -5024817.84144  22660046.8164   22660046.7634
 -10309231.545 4  -8033163.230 4  20883747.539    20883746.549
 -17367782.68344 -13533327.60644  20400962.8964   20400962.8214
  -8715781.83844  -6791514.62144  22221460.9744   22221461.5754
  13455439.70044  10484752.93644  23166768.4174   23166768.7974
  -6024358.96144  -4694302.48344  23264909.9144   23264910.9804
 96  2 17  0 25  0.0000000  0  7G 2G 9G12G 7G 4G27G26
    210137.24144    163745.18644  21673836.0344   21673836.4854
  -6531728.44144  -5089655.49844  22644212.6844   22644212.5854
 -10291501.556 4  -8019347.656 4  20887121.657    20887120.446
 -17338740.91044 -13510697.64744  20406489.5374   20406489.6174
  -8803432.97944  -6859814.16644  22204781.5104   22204781.8314
  13564275.97544  10569560.37944  23187478.7394   23187480.0334
  -5972785.92544  -4654115.72844  23274724.4884   23274723.6444
 96  2 17  0 25 30.0000000  0  7G 2G 9G12G 7G 4G27G26
    244726.94044    190698.19244  21680418.4204   21680418.6744
  -6614636.62344  -5154259.24944  22628436.0774   22628435.7404
 -10273358.646 4  -8005210.319 4  20890574.005    20890573.029
 -17309316.66444 -13487769.66044  20412088.6744   20412088.7144
  -8890708.94644  -6927821.37444  22188173.5574   22188173.9984
  13673363.42744  10654563.55444  23208238.1124   23208238.1544
  -5920851.96244  -4613647.72344  23284606.7614   23284607.3624
 96  2 17  0 26  0.0000000  0  7G 2G 9G12G 7G 4G27G26
    279510.21044    217802.03544  21687037.5724   21687037.4974
  -6697295.25844  -5218668.55544  22612706.8524   22612707.1754
 -10254834.476 4  -7990775.903 4  20894099.101    20894098.046
 -17279542.45344 -13464568.96544  20417754.5454   20417754.4924
  -8977629.45544  -6995551.59644  22171632.7124   22171633.1904
  13782689.66344  10739752.80644  23229042.0734   23229044.2974
  -5868588.89744  -4572923.28744  23294552.6004   23294552.1414
 96  2 17  0 26 30.0000000  0  7G 2G 9G12G 7G 4G27G26
    314496.12244    245063.78144  21693694.9684   21693695.1824
  -6779696.79044  -5282877.52744  22597025.8584   22597025.2514
 -10235928.892 4  -7976044.277 4  20897696.768    20897695.717
 -17249425.70144 -13441101.36144  20423485.4464   20423485.8404
  -9064200.62444  -7063009.61044  22155159.2024   22155159.7094
  13892247.37344  10825122.41044  23249890.4214   23249891.6264
  -5815982.73544  -4531931.47744  23304563.6734   23304562.8304
 96  2 17  0 27  0.0000000  0  7G 2G 9G12G 7G 4G27G26
    349699.33544    272494.85044  21700393.9664   21700394.3614
  -6861810.71644  -5346862.38344  22581400.1424   22581399.8834
 -10216627.645 4  -7961004.346 4  20901369.489    20901368.483
 -17218937.38544 -13417344.22944  20429287.1064   20429287.4034
  -9150429.65544  -7130201.03344  22138750.1534   22138750.6904
  14002048.31844  10910681.54844  23270785.0734   23270785.9894
  -5763021.43444  -4490662.95844  23314641.6794   23314641.9174
 96  2 17  0 27 30.0000000  0  7G 2G 9G12G 7G 4G27G26
    385132.96744    300105.46844  21707136.9624   21707136.8644
  -6943618.08244  -5410608.37444  22565832.6724   22565832.2404
 -10196928.106 4  -7945654.058 4  20905118.462    20905117.235
 -17188071.31944 -13393292.74244  20435160.8254   20435160.7174
  -9236329.55144  -7197135.97444  22122404.1294   22122404.3794
  14112095.18344  10996432.30044  23291725.8934   23291727.2324
  -5709708.35544  -4449120.32044  23324787.2084   23324786.8784
 96  2 17  0 28  0.0000000  0  7G 2G 9G12G 7G 4G27G26
    420811.73844    327907.09644  21713926.4854   21713926.8384
  -7025097.75344  -5474099.00944  22550327.6664   22550327.4644
 -10176829.707 4  -7929992.970 4  20908942.836    20908941.803
 -17156825.18344 -13368945.09944  20441106.8024   20441106.9784
  -9321901.69944  -7263815.54344  22106120.4924   22106120.1854
  14222373.30844  11082363.25344  23312711.3584   23312712.8934
  -5656037.42544  -4407298.84444  23334999.8074   23335000.5624
 96  2 17  0 28 30.0000000  0  8G 2G 9G12G 7G 4G27G26G24
    456737.92344    355901.51644  21720762.9264   21720763.0354
  -7106226.35644  -5537316.07844  22534889.2564   22534888.9994
 -10156329.831 4  -7914019.048 4  20912843.959    20912842.858
 -17125198.84344 -13344301.19444  20447125.2974   20447125.2654
  -9407158.15844  -7330249.11144  22089896.4174   22089896.2234
  14332870.38744  11168464.84244  23333738.2744   23333738.8094
  -5602008.23844  -4365198.20744  23345280.7264   23345282.6064
         0.22554                  24536047.0764
 96  2 17  0 29  0.0000000  0  8G 2G 9G12G 7G 4G27G26G24
    492895.09744    384075.93644  21727643.2044   21727643.0244
  -7187027.77844  -5600278.19744  22519513.6744   22519513.2124
 -10135448.379 4  -7897747.788 4  20916817.596    20916816.415
 -17093226.04144 -13319387.31844  20453209.2414   20453209.0324
  -9492119.97144  -7396453.08344  22073728.6604   22073728.9594
  14443573.73044  11254727.14544  23354804.7484   23354806.7824
  -5547659.44044  -4322848.51244  23355622.9684   23355622.9894
   -108049.55044                  24515484.7084
 96  2 17  0 29 30.0000000  0  8G 2G 9G12G 7G 4G27G26G24
    529274.64344    412423.62844  21734566.0864   21734566.4444
  -7267537.27744  -5663012.85644  22504193.0814   22504192.7454
 -10114197.261 4  -7881188.482 4  20920861.469    20920860.346
 -17060952.75444 -13294239.29444  20459350.6534   20459350.5664
  -9576773.67444  -7462416.97044  22057619.9324   22057619.7614
  14554477.22244  11341145.40744  23375908.3224   23375908.7094
  -5493007.14344  -4280262.31644  23366023.3364   23366023.4704
   -216133.17944                  24494914.7244
 96  2 17  0 30  0.0000000  0  8G 2G 9G12G 7G 4G27G26G24
    565875.33144    440943.63244  21741531.0274   21741531.5594
  -7347764.45844  -5725527.51944  22488926.3064   22488926.3994
 -10092575.923 4  -7864340.687 4  20924976.018    20924974.661
 -17028397.40844 -13268871.48944  20465545.5934   20465545.7374
  -9661100.45144  -7528126.11044  22041572.6184   22041572.7554
  14665589.46344  11427726.34844  23397052.5574   23397053.9424
  -5438052.20444  -4237440.30244  23376480.8734   23376480.9624
   -324253.17944                  24474342.2924
 96  2 17  0 30 30.0000000  0  8G 2G 9G12G 7G 4G27G26G24
    602689.36144    469629.88944  21748536.5644   21748536.4164
  -7427707.15744  -5787820.51244  22473713.0614   22473713.5364
 -10070585.804 4  -7847205.535 4  20929160.458    20929159.377
 -16995574.31044 -13243295.04844  20471791.5744   20471791.5344
  -9745091.01044  -7593573.26544  22025589.7424   22025589.6424
  14776908.52444  11514468.42944  23418236.0014   23418236.6104
  -5382812.59744  -4194396.46944  23386992.7944   23386994.4014
   -432400.01044                  24453763.8284
 96  2 17  0 31  0.0000000  0  7G 2G 9G12G 7G 4G27G26
    639699.59844    498469.02544  21755579.1234   21755579.0324
  -7507402.58544  -5849920.82944  22458547.9294   22458547.5724
 -10048242.956 4  -7829795.525 4  20933412.308    20933411.102
 -16962493.12644 -13217517.50044  20478086.9084   20478086.7444
  -9828753.73744  -7658764.96544  22009669.6184   22009669.5384
  14888410.84544  11601353.31444  23439454.5244   23439456.6034
  -5327303.95444  -4151143.00244  23397555.9534   23397556.4564
 96  2 17  0 31 30.0000000  0  7G 2G 9G12G 7G 4G27G26
    676877.27544    527438.63144  21762654.3224   21762654.2174
  -7586860.48444  -5911836.06444  22443427.6974   22443428.1654
 -10025557.602 4  -7812118.631 4  20937729.047    20937727.981
 -16929153.20844 -13191538.34244  20484431.2884   20484431.4344
  -9912096.84844  -7723707.61144  21993809.5784   21993809.4534
  15000060.08544  11688352.67344  23460700.3064   23460701.9544
  -5271524.17644  -4107678.27444  23408170.6924   23408171.8034
 96  2 17  0 32  0.0000000  0  7G 2G 9G12G 7G 4G27G26
    714254.00844    556563.35544  21769766.5224   21769766.7424
  -7666028.56944  -5973525.45444  22428362.8494   22428362.9384
 -10002497.983 4  -7794150.100 4  20942117.183    20942116.108
 -16895501.34944 -13165316.11444  20490835.1164   20490835.1444
  -9995117.38244  -7788398.89344  21978011.4284   21978011.7334
  15111875.53444  11775481.56944  23481977.7054   23481978.6804
  -5215439.33844  -4063975.82944  23418843.4264   23418843.9314
 96  2 17  0 32 30.0000000  0  7G 2G 9G12G 7G 4G27G26
    751841.49644    585852.30844  21776918.8464   21776918.6174
  -7744893.79544  -6034978.85444  22413354.7644   22413354.6364
  -9979046.864 4  -7775876.507 4  20946579.839    20946578.784
 -16861511.98744 -13138830.89644  20497303.0974   20497303.0594
 -10077808.75244  -7852833.68544  21962275.5644   21962276.0684
  15223862.95944  11862744.44144  23503288.9244   23503291.3394
  -5159032.96844  -4020022.84244  23429577.5304   23429577.4714
 96  2 17  0 33  0.0000000  0  7G 2G 9G12G 7G 4G27G26
    789604.80644    615278.26044  21784105.5244   21784105.6254
  -7823491.93144  -6096224.13044  22398398.1344   22398397.7534
  -9955232.561 4  -7757319.914 4  20951111.447    20951110.485
 -16827219.44044 -13112109.43144  20503828.5974   20503828.7384
 -10160197.29644  -7917032.52244  21946597.7284   21946597.5354
  15335993.66344  11950118.97444  23524626.6584   23524629.0064
  -5102335.15644  -3975842.73144  23440365.7874   23440364.0454
 96  2 17  0 33 30.0000000  0  7G 2G 9G12G 7G 4G27G26
    827584.97244    644873.18644  21791332.5894   21791332.7034
  -7901757.55444  -6157210.31644  22383504.4684   22383503.9884
  -9931013.759 4  -7738448.130 4  20955720.214    20955719.021
 -16792594.10244 -13085128.64844  20510417.6394   20510417.5624
 -10242233.50544  -7980956.80444  21930986.6314   21930987.0194
  15448325.85544  12037650.52044  23546002.5484   23546002.8074
  -5045319.68244  -3931415.09444  23451215.2954   23451216.8734
 96  2 17  0 34  0.0000000  0  8G 2G 9G12G 7G 4G27G26G24
    865784.65644    674639.16944  21798602.3424   21798602.1624
  -7979686.26144  -6217933.96244  22368675.2014   22368675.6554
  -9906394.895 4  -7719264.607 4  20960405.036    20960403.932
 -16757641.40644 -13057892.78344  20517068.6414   20517068.6534
 -10323908.01544  -8044599.24744  21915444.4794   21915444.6094
  15560885.80844  12125359.53244  23567422.2654   23567422.6594
  -4988002.26344  -3886752.19544  23462122.0144   23462122.5684
        -0.80154                  24309645.3304
 96  2 17  0 34 30.0000000  0  7G 2G 9G12G 7G 4G27G26
    904157.36844    704539.97644  21805904.2224   21805903.7844
  -8057326.85544  -6278433.10044  22353900.5614   22353900.1264
  -9881418.189 4  -7699802.247 4  20965158.001    20965156.892
 -16722412.06644 -13030441.35044  20523772.8674   20523772.6224
 -10405238.02444  -8107973.24444  21899967.7304   21899967.7774
  15673627.16844  12213209.89344  23588876.7054   23588878.2334
  -4930434.95044  -3841894.57744  23473077.4384   23473077.8644
 96  2 17  0 35  0.0000000  0  8G 2G 9G12G 7G 4G27G26G24
    942720.33444    734589.02744  21813242.0674   21813242.2604
  -8134652.99744  -6338687.21844  22339185.8404   22339185.3974
  -9856077.005 4  -7680055.876 4  20969980.205    20969979.146
 -16686896.46344 -13002766.84744  20530531.3194   20530531.0564
 -10486214.38044  -8171071.67144  21884558.4594   21884558.0454
  15786556.99444  12301207.11944  23610365.9654   23610367.3524
  -4872618.95644  -3796843.19944  23484079.3834   23484080.1074
        -0.02354                  24268472.3564
 96  2 17  0 35 30.0000000  0  8G 2G 9G12G 7G 4G27G26G24
    981531.83044    764831.74544  21820627.7734   21820628.1664
  -8211602.57444  -6398647.91244  22324543.3244   22324542.7624
  -9830328.110 4  -7659991.807 4  20974880.149    20974879.038
 -16651044.23744 -12974830.04644  20537353.7314   20537353.7804
 -10566800.96044  -8233866.37144  21869223.1104   21869223.4264
  15899702.10744  12389372.09944  23631896.9184   23631898.1534
  -4814501.29144  -3751556.70044  23495139.6554   23495139.4404
   -108174.71944                  24247885.1464
 96  2 17  0 36  0.0000000  0  8G 2G 9G12G 7G 4G27G26G24
   1020552.29044    795237.29444  21828053.3874   21828053.4964
  -8288230.32444  -6458357.83244  22309961.2534   22309961.0304
  -9804210.853 4  -7639640.707 4  20979849.967    20979848.860
 -16614898.87244 -12946664.82944  20544231.8564   20544231.7814
 -10647042.63444  -8296392.32244  21853954.4694   21853954.5464
  16012992.48244  12477650.27944  23653455.0914   23653456.7954
  -4756117.94044  -3706063.19244  23506248.8924   23506249.4004
   -216364.24744                  24227298.2244
 96  2 17  0 36 30.0000000  0  8G 2G 9G12G 7G 4G27G26G24
   1059769.87644    825796.44344  21835516.1754   21835516.6704
  -8364551.80344  -6517829.09444  22295437.7254   22295437.5784
  -9777736.827 4  -7619011.604 4  20984887.845    20984886.878
 -16578476.78144 -12918283.97344  20551162.7644   20551162.4684
 -10726954.56444  -8358661.32244  21838746.9944   21838747.0204
  16126379.06444  12566003.42044  23675031.9414   23675033.1894
  -4697480.09944  -3660371.40044  23517407.6044   23517408.0394
   -324572.15444                  24206706.5184
 96  2 17  0 37  0.0000000  0  8G 2G 9G12G 7G 4G27G26G24
   1099204.29344    856524.54844  21843020.3644   21843020.8034
  -8440538.35744  -6577039.39344  22280978.1474   22280977.1834
  -9750882.701 4  -7598086.317 4  20989998.043    20989996.897
 -16541757.05744 -12889671.19644  20558150.2504   20558150.0934
 -10806517.11844  -8420658.08344  21823606.9814   21823606.9024
  16239882.70844  12654447.80144  23696630.7024   23696633.7534
  -4638553.71144  -3614454.75244  23528620.6564   23528621.1644
   -432777.99444                  24186115.1834
 96  2 17  0 37 30.0000000  0  7G 2G 9G12G 7G 4G27G24
   1138854.22444    887420.58544  21850565.4584   21850565.8274
  -8516194.49444  -6635992.21544  22266581.0474   22266580.5894
  -9723638.024 4  -7576856.708 4  20995182.489    20995181.454
 -16504743.41244 -12860829.39644  20565193.8884   20565193.8194
 -10885711.12844  -8482367.67244  21808536.9024   21808536.8414
  16353505.23544  12742984.79244  23718253.1084   23718256.6354
   -540965.46544                  24165527.1234
 96  2 17  0 38  0.0000000  0  7G 2G 9G12G 7G 4G27G24
   1178704.56144    918472.78844  21858148.3304   21858148.6934
  -8591539.47044  -6694702.55644  22252243.4184   22252243.1304
  -9696005.741 4  -7555325.063 4  21000440.700    21000439.752
 -16467433.11944 -12831756.43744  20572293.6474   20572293.8604
 -10964528.47144  -8543783.74644  21793538.0704   21793538.0264
  16467257.95944  12831623.18544  23739898.4034   23739900.1764
   -649132.49744   -505817.05444  24144944.5444   24144946.3464
 96  2 17  0 38 30.0000000  0  7G 2G 9G12G 7G 4G27G24
   1218773.53744    949695.35444  21865773.1794   21865773.5294
  -8666549.00444  -6753151.52644  22237969.4794   22237968.7714
  -9667972.175 4  -7533480.730 4  21005775.413    21005774.300
 -16429814.94644 -12802443.57544  20579452.0264   20579452.1694
 -11042956.01844  -8604896.08844  21778613.9484   21778613.8374
  16581177.00144  12920391.22944  23761577.7584   23761576.9644
   -757257.03744   -590069.94044  24124369.0514   24124371.0314
 96  2 17  0 39  0.0000000  0  7G 2G 9G12G 7G 4G27G24
   1259099.92644    981118.49944  21873447.2044   21873447.4564
  -8741196.19044  -6811318.15644  22223764.8144   22223763.6324
  -9639502.691 4  -7511296.723 4  21011193.075    21011191.855
 -16391855.49544 -12772864.78144  20586675.3984   20586675.6834
 -11120968.37644  -8665684.89944  21763768.1954   21763768.3824
  16695319.46744  13009333.38644  23783298.0674   23783302.0884
   -865308.85344   -674266.10444  24103807.4364   24103810.7844
 96  2 17  0 39 30.0000000  0  8G 2G 9G12G 7G 4G27G 5G24
   1299674.98844   1012735.41644  21881168.3384   21881168.7674
  -8815498.36544  -6869215.95344  22209625.4224   22209624.6684
  -9610610.103 4  -7488783.022 4  21016691.124    21016690.053
 -16353561.80544 -12743025.54244  20593962.6424   20593962.9644
 -11198584.73644  -8726165.14944  21748998.6644   21748998.5434
  16809679.65844  13098445.20044  23805060.0934   23805056.9594
        -0.31754                  25319268.2274
   -973285.53244   -758403.72644  24083260.4364   24083262.0374
 96  2 17  0 40  0.0000000  0  8G 2G 9G12G 7G 4G27G 5G24
   1340490.61344   1044539.78944  21888935.4754   21888935.7354
  -8889469.05444  -6926855.43744  22195549.3524   22195549.1784
  -9581315.172 4  -7465955.812 4  21022265.743    21022264.486
 -16314948.35544 -12712937.14044  20601310.4024   20601310.5004
 -11275830.79244  -8786356.84444  21734299.1834   21734298.8864
  16924247.30644  13187718.60144  23826861.5474   23826858.7694
    -79620.29644    -62041.00544  25304116.2764   25304116.6024
  -1081201.89744   -842494.37844  24062723.9054   24062727.1064
 96  2 17  0 40 30.0000000  0  8G 2G 9G12G 7G 4G27G 5G24
   1381524.22744   1076514.01644  21896743.8334   21896744.4414
  -8963140.92144  -6984262.07144  22181529.8114   22181529.5604
  -9551648.964 4  -7442839.289 4  21027910.976    21027909.838
 -16276063.64044 -12682637.36144  20608710.1334   20608709.8864
 -11352742.35544  -8846287.90344  21719663.3884   21719663.0184
  17038979.05744  13277119.94444  23848693.5824   23848694.7444
   -159334.70144   -124156.06344  25288948.4024   25288946.7134
  -1189093.68144   -926565.80644  24042193.3914   24042195.5074
 96  2 17  0 41  0.0000000  0  8G 2G 9G12G 7G 4G27G 5G24
   1422787.76144   1108667.40444  21904596.0634   21904596.4674
  -9036499.26244  -7041424.40344  22167570.0644   22167569.6424
  -9521607.449 4  -7419430.325 4  21033627.737    21033626.618
 -16236900.66544 -12652120.75144  20616162.5914   20616162.4714
 -11429299.37144  -8905942.68244  21705094.8714   21705094.7404
  17153860.18644  13366637.66144  23870555.5754   23870558.2064
   -239124.82544   -186330.22344  25273765.3794   25273766.9224
  -1296970.57944  -1010625.64444  24021664.5834   24021666.3674
 96  2 17  0 41 30.0000000  0  8G 2G 9G12G 7G 4G27G 5G24
   1464268.64344   1140990.15344  21912489.4564   21912490.0314
  -9109524.04544  -7098326.82244  22153673.9044   22153673.2624
  -9491199.971 4  -7395736.196 4  21039414.055    21039412.970
 -16197475.79044 -12621400.07044  20623664.7964   20623664.9104
 -11505486.68244  -8965309.38844  21690597.1654   21690596.8684
  17268862.02844  13456249.47044  23892440.1224   23892442.9834
   -318982.27344   -248556.79444  25258569.9244   25258573.0464
  -1404833.37244  -1094674.49244  24001138.8064   24001141.7254
 96  2 17  0 42  0.0000000  0  8G 2G 9G12G 7G 4G27G 5G24
   1505983.12844   1173494.93144  21920427.4424   21920427.8654
  -9182185.06244  -7154945.78444  22139847.2504   22139846.9184
  -9460406.469 4  -7371741.266 4  21045273.973    21045272.923
 -16157781.11544 -12590469.15844  20631218.4674   20631218.6374
 -11581270.28144  -9024361.50744  21676175.9604   21676175.5944
  17383981.38044  13545952.80644  23914344.9064   23914350.0194
   -398868.17844   -310805.49944  25243368.2824   25243371.1654
  -1512680.19444  -1178710.87044  23980616.4944   23980618.1794
 96  2 17  0 42 30.0000000  0  8G 2G 9G12G 7G 4G27G 5G24
   1547907.78044   1206163.47444  21928405.3874   21928405.9394
  -9254483.19544  -7211281.98444  22126089.4064   22126088.5724
  -9429232.268 4  -7347449.691 4  21051206.256    21051204.995
 -16117830.78144 -12559339.02844  20638820.7274   20638820.6574
 -11656649.84944  -9083098.80444  21661831.5924   21661831.2604
  17499185.70044  13635722.36344  23936268.4594
   -478782.76044   -373076.59344  25228159.7734   25228158.7274
  -1620515.77744  -1262738.47844  23960095.8424   23960097.2174
 96  2 17  0 43  0.0000000  0  8G 2G 9G12G 7G 4G27G 5G24
   1590031.68644   1238987.28744  21936421.4294   21936422.0394
  -9326388.36244  -7267311.96844  22112406.2314   22112405.6494
  -9397672.473 4  -7322857.650 4  21057211.689    21057210.647
 -16077605.81444 -12527994.89944  20646475.3844   20646475.1674
 -11731612.62044  -9141511.32144  21647566.8264   21647566.3094
  17614485.48244                  23958210.3284
   -558731.66144                  25212946.1614
  -1728321.74144  -1346743.01044  23939580.0054   23939581.2034
 96  2 17  0 43 30.0000000  0  8G 2G 9G12G 7G 4G27G 5G24
   1632335.91444   1271951.60744  21944471.5924   21944472.6374
  -9397929.16944  -7323058.02944  22098791.9394   22098791.8424
  -9365732.349 4  -7297969.248 4  21063289.864    21063288.742
 -16037113.77244 -12496442.66344  20654180.5634   20654180.8064
 -11806178.12844  -9199614.28144  21633377.1094   21633376.7894
  17729883.49044                  23980169.4784
   -638729.93344                  25197722.7864
  -1836084.60444  -1430713.98744  23919075.5414   23919078.4084
 96  2 17  0 44  0.0000000  0  8G 2G 9G12G 7G 4G27G 5G24
   1674841.84444   1305073.10344  21952560.1694   21952560.8614
  -9469102.84044  -7378518.02644  22085247.9324   22085246.8974
  -9333394.863 4  -7272771.216 4  21069443.508    21069442.269
 -15996347.96844 -12464677.10444  20661938.0694   20661938.3094
 -11880337.14144  -9257400.49244  21619265.3754   21619265.1034
  17845407.52444                  24002152.4424
   -718780.78744   -560087.99644  25182488.6204
  -1943787.39544  -1514638.10844  23898578.6864   23898580.1864
 96  2 17  0 44 30.0000000  0  8G 2G 9G12G 7G 4G27G 5G24
   1717571.06344   1338368.58244  21960691.3484   21960691.6754
  -9539887.82544  -7433675.15044  22071778.4634   22071778.0024
  -9300643.367 4  -7247250.576 4  21075676.032    21075674.858
 -15955286.18144 -12432680.90944  20669751.6004   20669751.7614
 -11954071.04144  -9314855.44544  21605234.3824   21605233.9284
  17961092.54744                  24024167.8244
   -798880.52444   -622503.37444  25167246.9314   25167247.5304
  -2051392.34244  -1598486.02044  23878102.4624   23878105.5194
 96  2 17  0 45  0.0000000  0  8G 2G 9G12G 7G 4G27G 5G24
   1760551.41044   1371859.74544  21968870.1614   21968870.9304
  -9610276.77244  -7488523.66344  22058383.5544   22058383.2494
  -9267470.816 4  -7221401.842 4  21081988.406    21081987.099
 -15913917.34744 -12400445.45744  20677624.2594   20677624.1164
 -12027366.64844  -9371968.87444  21591286.4824   21591286.4954
  18076962.24944                  24046216.0584
   -879011.28644   -684942.90744  25151997.9194   25151998.8324
  -2158895.50044  -1682254.60844  23857645.2374   23857646.2624
 96  2 17  0 45 30.0000000  0  8G 2G 9G12G 7G 4G27G 5G24
   1803785.30344   1405548.47444  21977097.7274   21977098.2514
  -9680283.31444  -7543074.19944  22045062.4074   22045061.4404
  -9233880.876 4  -7195227.872 4  21088380.453    21088379.120
 -15872266.23944 -12367990.05144  20685550.1924   20685550.0824
 -12100218.81244  -9428736.76444  21577423.1344   21577422.8914
  18192991.80944                  24068298.0144
   -959165.38144                  25136745.0224
  -2266310.89044  -1765954.79544  23837205.4824   23837208.7614
 96  2 17  0 46  0.0000000  0  8G 2G 9G12G 7G 4G27G 5G24
   1847265.18144   1439428.89244  21985371.6664   21985372.0824
  -9749896.92644  -7597318.56344  22031815.3864   22031814.7424
  -9199882.487 4  -7168735.628 4  21094850.044    21094848.766
 -15830345.23344 -12335324.33444  20693527.3614   20693527.3794
 -12172616.56544  -9485150.56444  21563645.9964   21563645.7044
  18309149.92844                  24090401.3884
  -1039348.61644                  25121485.9994
  -2373656.55144  -1849600.74344  23816777.6074   23816778.1094
 96  2 17  0 46 30.0000000  0  8G 2G 9G12G 7G 4G27G 5G24
   1890950.82944   1473469.64044  21993684.5814   21993684.3634
  -9819166.74344  -7651295.03144  22018633.4314   22018632.9774
  -9165516.955 4  -7141957.297 4  21101389.538    21101388.377
 -15788182.91144 -12302470.57844  20701550.7024   20701550.4604
 -12244603.02444  -9541243.87344  21549947.7224   21549947.4734
  18425381.76544                  24112519.4074
  -1119590.04744   -872406.78844  25106216.1734
  -2480974.99744  -1933225.44444  23796355.6034   23796356.6854
 96  2 17  0 47  0.0000000  0  8G 2G 9G12G 7G 4G27G 5G24
   1934856.93344   1507682.16844  22002039.9334   22002040.4454
  -9888097.55744  -7705007.34744  22005516.1554   22005516.3134
  -9130774.953 4  -7114885.617 4  21108000.742    21107999.639
 -15745782.77744 -12269431.51244  20709619.2444   20709619.1154
 -12316164.64744  -9597006.14344  21536329.7514   21536329.4384
  18541680.18544                  24134648.0464
  -1199878.90944   -934969.51944  25090937.0654
  -2588267.82744  -2016830.19044  23775938.9204   23775941.1514
 96  2 17  0 47 30.0000000  0  8G 2G 9G12G 7G 4G27G 5G24
   1979038.81444   1542109.59644  22010447.1824   22010447.6734
  -9956628.84044  -7758408.33144  21992475.4724   21992475.1734
  -9095593.228 4  -7087471.297 4  21114695.703    21114694.447
 -15703093.60244 -12236167.22044  20717742.6324   20717742.2744
 -12387243.30644  -9652392.07344  21522803.9274   21522803.9184
  18658099.84144                  24156803.8064
  -1280176.32644   -997538.84844  25075656.3704   25075659.4984
  -2695456.35044  -2100353.67244  23755541.2064   23755541.9604
 96  2 17  0 48  0.0000000  0  8G 2G 9G12G 7G 4G27G 5G24
   2023486.01144   1576743.76044  22018905.6854   22018906.0334
 -10024787.37944  -7811518.86944  21979505.3324   21979504.7774
  -9059992.815 4  -7059730.728 4  21121470.113    21121469.054
 -15660132.02244 -12202690.66544  20725917.9444   20725917.7064
 -12457879.21344  -9707433.01444  21509362.4144   21509362.0964
  18774642.24444                  24178979.9754
  -1360517.87644  -1060142.61144  25060369.0624   25060370.1664
  -2802541.34044  -2183796.48644  23735163.2474   23735164.8424
 96  2 17  0 48 30.0000000  0  8G 2G 9G12G 7G 4G27G 5G24
   2068199.97144   1611585.78944  22027414.2994   22027414.8594
 -10092582.56044  -7864346.27344  21966604.2954   21966603.3004
  -9023979.820 4  -7031668.662 4  21128323.229    21128322.205
 -15616900.77244 -12169003.97744  20734144.6734   20734144.6994
 -12528095.04744  -9762146.61844  21496000.7194   21496000.7804
  18891322.62344                  24201184.5064
  -1440917.81944  -1122791.85444  25045068.2994
  -2909520.82744  -2267157.08144  23714804.9874   23714805.6634
 96  2 17  0 49  0.0000000  0  8G 2G 9G12G 7G 4G27G 5G24
   2113180.59844   1646635.60344  22035973.2904   22035973.9144
 -10159992.00044  -7916873.09644  21953776.7454   21953775.6974
  -8987548.553 4  -7003280.670 4  21135255.901    21135254.646
 -15573398.11544 -12135105.80844  20742422.6924   20742422.9954
 -12597885.27244  -9816528.58144  21482719.8274   21482720.2364
  19008152.73444                  24223416.5824
  -1521378.28744  -1185488.25944  25029759.2334   25029758.7074
  -3016372.83344  -2350418.32144  23694472.7324   23694475.0274
 96  2 17  0 49 30.0000000  0  8G 2G 9G12G 7G 4G27G 5G24
   2158395.25344   1681867.78544  22044577.6264   22044579.0324
 -10227022.63044  -7969104.74444  21941021.3644   21941020.8474
  -8950724.165 4  -6974586.353 4  21142263.283    21142262.156
 -15529635.21944 -12101004.85344  20750750.2244   20750750.2134
 -12667283.45944  -9870605.05844  21469513.6744   21469513.5374
  19125116.92544                  24245672.4434
  -1601924.03744  -1248251.15744  25014431.7804   25014435.5414
  -3123119.70444  -2433597.63344  23674158.7644   23674160.6494
 96  2 17  0 50  0.0000000  0  8G 2G 9G12G 7G 4G27G 5G24
   2203806.25744   1717252.95944  22053219.0214   22053219.7024
 -10293711.68444  -8021070.22544  21928330.4224   21928330.3004
  -8913545.092 4  -6945615.655 4  21149338.212    21149337.177
 -15485634.29044 -12066718.41444  20759123.7164   20759123.4044
 -12736321.81344  -9924401.14944  21456376.4894   21456376.5984
  19242175.17544                  24267950.8644
  -1682572.04344  -1311093.73444  24999086.6854   24999083.6404
  -3229814.49944  -2516736.36644  23653855.4514   23653857.7354
 96  2 17  0 50 30.0000000  0  7G 2G 9G12G 7G 4G 5G24
   2249439.82244   1752811.55544  22061902.7904   22061902.9894
 -10360016.67544  -8072736.43944  21915712.9154   21915712.4344
  -8875973.113 4  -6916338.800 4  21156487.903    21156486.859
 -15441357.62344 -12032217.11744  20767549.1604   20767548.9994
 -12804940.36444  -9977870.12144  21443318.6504   21443318.2864
  -1763271.61744  -1373976.49044  24983728.1174   24983730.3064
  -3336429.00744  -2599812.53644  23633567.6054   23633569.4004
 96  2 17  0 51  0.0000000  0  7G 2G 9G12G 7G 4G 5G24
   2295251.46344   1788508.91144  22070620.8964   22070621.0774
 -10425962.99044  -8124123.17444  21903164.2544   21903163.1204
  -8838042.607 4  -6886782.572 4  21163705.927    21163704.828
 -15396849.29444 -11997535.30644  20776019.0004   20776019.1404
 -12873166.54744 -10031033.35344  21430335.3134   21430335.1214
  -1844042.07244  -1436914.38444  24968358.2094   24968357.7084
  -3442996.48944  -2682852.04644  23613288.5504   23613289.5964
 96  2 17  0 51 30.0000000  0  8G 2G 9G12G 7G 4G26G 5G24
   2341284.20844   1824378.56044  22079380.0384   22079380.5424
 -10491507.95044  -8175197.16344  21890691.0894   21890690.3164
  -8799706.964 4  -6856910.652 4  21171001.085    21170999.857
 -15352069.42744 -11962641.90844  20784540.1404   20784540.3264
 -12940944.95944 -10083847.67644  21417437.8104   21417437.4694
        -1.09754        -0.50454  23874642.8124   23874642.7824
  -1924825.59444  -1499862.56744  24952986.8584   24952988.7604
  -3549481.42744  -2765827.27744  23593025.4314   23593027.6974
 96  2 17  0 52  0.0000000  0  8G 2G 9G12G 7G 4G26G 5G24
   2387534.88344   1860418.02644  22088181.5434   22088182.4534
 -10556653.64644  -8225960.02244  21878294.0004   21878293.3384
  -8760958.102 4  -6826716.747 4  21178374.686    21178373.480
 -15307024.92044 -11927542.29344  20793112.0434   20793112.0744
 -13008264.24844 -10136304.23944  21404627.2354   21404627.3664
     65982.49144     51415.28244  23887200.2914   23887201.0784
  -2005613.29444  -1562813.95944  24937611.1374   24937612.5624
  -3655859.54444  -2848719.27644  23572781.8574   23572783.3354
 96  2 17  0 52 30.0000000  0  8G 2G 9G12G 7G 4G26G 5G24
   2433976.75444   1896606.47044  22097019.1074   22097019.8314
 -10621411.92144  -8276421.00944  21865970.8934   21865970.4684
  -8721823.860 4  -6796222.544 4  21185821.701    21185820.605
 -15261756.97444 -11892268.57344  20801726.2154   20801726.2384
 -13075153.40644 -10188425.63944  21391898.8724   21391898.6984
    132113.53344    102945.91144  23899784.4944   23899786.1654
  -2086437.72644  -1625793.97244  24922232.2274   24922235.1334
  -3762150.78244  -2931543.55244  23552555.4334   23552557.9094
 96  2 17  0 53  0.0000000  0  8G 2G 9G12G 7G 4G26G 5G24
   2480648.59444   1932974.11444  22105900.7744   22105901.6754
 -10685734.59044  -8326542.56744  21853730.8224   21853730.2134
  -8682271.768 4  -6765402.743 4  21193348.292    21193347.056
 -15216238.66644 -11856799.76644  20810388.0604   20810388.0254
 -13141574.41544 -10240182.24644  21379259.5404   21379259.2054
    198422.59044    154615.25944  23912402.6764   23912405.2874
  -2167271.80144  -1688781.42144  24906848.6064   24906853.5494
  -3868320.71644  -3014273.33544  23532351.3314   23532354.0454
 96  2 17  0 53 30.0000000  0  8G 2G 9G12G 7G 4G26G 5G24
   2527544.84944   1969516.63244  22114824.6724   22114825.2564
 -10749648.00844  -8376345.22244  21841568.3434   21841567.8214
  -8642313.337 4  -6734266.314 4  21200952.084    21200950.908
 -15170491.18944 -11821152.38344  20819093.7034   20819093.6994
 -13207530.55244 -10291576.62244  21366708.3554   21366708.0294
    264902.25244    206417.57344  23925054.6054   23925052.4544
  -2248131.10944  -1751788.54844  24891461.6894   24891462.3504
  -3974380.49244  -3096917.28244  23512169.0524   23512171.5694
 96  2 17  0 54  0.0000000  0  8G 2G 9G12G 7G 4G26G 5G24
   2574678.88144   2006244.42044  22123793.4834   22123794.3444
 -10813139.34544  -8425818.97944  21829486.5844   21829485.7414
  -8601945.188 4  -6702810.627 4  21208633.867    21208632.611
 -15124518.80744 -11785329.74744  20827841.6754   20827841.6594
 -13273014.57544 -10342603.11344  21354247.2114   21354246.5544
    331572.06244    258368.07444  23937741.3124   23937741.2224
  -2329019.55144  -1814818.43544  24876069.5884   24876074.0134
  -4080320.46344  -3179467.86544  23492008.0804   23492011.5634
 96  2 17  0 54 30.0000000  0  8G 2G 9G12G 7G 4G26G 5G24
   2622051.78244   2043158.34444  22132808.3734   22132809.1094
 -10876208.51344  -8474963.77344  21817485.2134   21817484.1294
  -8561176.861 4  -6671043.113 4  21216391.972    21216390.700
 -15078332.50944 -11749340.42644  20836630.6614   20836630.5534
 -13338023.65344 -10393259.51944  21341876.3624   21341876.0194
    398437.70844    310471.14244  23950463.7974   23950465.0364
  -2409942.40344  -1877875.17344  24860669.6944   24860670.5844
  -4186158.79944  -3261939.25044  23471868.6014   23471870.4014
 96  2 17  0 55  0.0000000  0  8G 2G 9G12G 7G 4G26G 5G24
   2669653.51644   2080250.58244  22141867.0634   22141867.5724
 -10938872.59744  -8523792.92144  21805560.1494   21805559.8644
  -8520015.675 4  -6638969.474 4  21224224.625    21224223.444
 -15031938.98444 -11713189.62944  20845459.2234   20845459.1484
 -13402562.57844 -10443549.57244  21329594.7384   21329594.2724
    465502.12844    362729.09744  23963226.8484   23963228.6694
  -2490912.47344  -1940968.63044  24845261.3694
  -4291892.56644  -3344329.15844  23451748.5884   23451750.3554
 96  2 17  0 55 30.0000000  0  8G 2G 9G12G 7G 4G26G 5G24
   2717480.46344   2117518.31244  22150968.0684   22150968.5134
 -11001143.02244  -8572315.31844  21793710.5834   21793710.0214
  -8478466.469 4  -6606593.484 4  21232131.120    21232130.010
 -14985329.64844 -11676870.66744  20854328.5974   20854328.3544
 -13466650.25944 -10493488.00544  21317399.5094   21317399.0634
    532748.82544    415129.08244  23976023.7004   23976024.7814
  -2571928.34144  -2004097.72644  24829845.9614   24829848.4114
  -4397519.44644  -3426635.76044  23431648.2594   23431649.4254
 96  2 17  0 56  0.0000000  0  8G 2G 9G12G 7G 4G26G 5G24
   2765574.48744   2154994.17144  22160119.3894   22160120.5344
 -11062962.29044  -8620486.16644  21781946.9344   21781946.2064
  -8436495.720 4  -6573889.020 4  21240117.872    21240116.841
 -14938452.06344 -11640342.68044  20863249.1874   20863249.4724
 -13530248.69544 -10543045.20444  21305297.0774   21305296.7234
    600208.47944    467695.02644  23988860.1554   23988859.5374
  -2652973.20844  -2067249.54044  24814424.5594   24814424.5084
  -4502997.60544  -3508826.47944  23411576.1924   23411578.4224
 96  2 17  0 56 30.0000000  0  8G 2G 9G12G 7G 4G26G 5G24
   2813907.34644   2192656.12144  22169317.3954   22169318.2774
 -11124369.21244  -8668335.70744  21770261.2734   21770260.8144
  -8394138.636 4  -6540883.516 4  21248178.205    21248177.240
 -14891332.45144 -11603626.10544  20872215.1514   20872215.5864
 -13593392.95044 -10592248.49844  21293280.9754   21293280.9464
    667824.74944    520383.02544  24001726.0834   24001725.1014
  -2734080.28644  -2130449.77444  24798990.9974   24798991.9354
  -4608358.12944  -3590925.53444  23391526.3284   23391527.3194
 96  2 17  0 57  0.0000000  0  8G 2G 9G12G 7G 4G26G 5G24
   2862455.87344   2230486.11844  22178556.2674   22178556.9734
 -11185393.79844  -8715887.32344  21758648.9664   21758648.4364
  -8351424.650 4  -6507599.905 4  21256306.591    21256305.177
 -14844008.62944 -11566750.40044  20881221.0104   20881221.0644
 -13656113.47244 -10641121.60944  21281345.9434   21281345.5734
    735544.80544    573151.87944  24014612.2534   24014614.7824
  -2815284.20844  -2193725.52644  24783538.6214   24783539.2724
  -4713627.84644  -3672953.85144  23371494.5184   23371496.0614
 96  2 17  0 57 30.0000000  0  8G 2G 9G12G 7G 4G26G 5G24
   2911238.37144   2268498.43444  22187838.4974   22187839.4834
 -11246010.26544  -8763120.91944  21747113.8494   21747113.8224
  -8308330.873 4  -6474020.357 4  21264507.019    21264505.741
 -14796466.96744 -11529704.94944  20890267.8534   20890268.0174
 -13718375.86644 -10689637.74144  21269497.8894   21269497.6944
    803379.27744    626009.86044  24027522.5534   24027524.1554
  -2896566.88644  -2257062.67744  24768070.7324   24768069.8834
  -4818788.06544  -3754896.83644  23351483.6964   23351484.6614
 96  2 17  0 58  0.0000000  0  8G 2G 9G12G 7G 4G26G 5G24
   2960293.48844   2306723.18044  22197174.0974   22197174.7304
 -11306176.82044  -8810003.93644  21735664.6314   21735664.0574
  -8264807.505 4  -6440106.063 4  21272789.123    21272787.945
 -14748672.83644 -11492462.77044  20899362.4644   20899362.5914
 -13780110.90044 -10737742.94244  21257750.0414   21257749.6484
    871381.52744    678998.61444  24040463.6124   24040463.6404
  -2977886.44144  -2320428.55544  24752596.2784   24752596.1224
  -4923786.56844  -3836713.78444  23331502.8144   23331504.0314
 96  2 17  0 58 30.0000000  0  8G 2G 9G12G 7G 4G26G 5G24
   3009585.90844   2345132.83744  22206554.3434   22206554.5534
 -11365922.90044  -8856559.31644  21724295.2344   21724294.3134
  -8220868.923 4  -6405868.225 4  21281150.409    21281149.167
 -14700651.56844 -11455043.60644  20908500.8804   20908501.0104
 -13841340.09044 -10785453.97444  21246098.1894   21246097.8364
    939527.87744    732099.63544  24053430.9224   24053432.8954
  -3059239.27444  -2383820.34544  24737115.8904   24737113.1114
  -5028639.83144  -3918417.56144  23311550.3084   23311552.8574
 96  2 17  0 59  0.0000000  0  8G 2G 9G12G 7G 4G26G 5G24
   3059098.29844   2383713.90344  22215976.1654   22215976.6044
 -11425247.20544  -8902786.03944  21713006.1264   21713005.0914
  -8176519.931 4  -6371310.585 4  21289589.870    21289588.624
 -14652404.22144 -11417448.26944  20917682.3654   20917682.4954
 -13902067.07144 -10832773.68144  21234542.1854   21234541.7834
   1007823.14644    785316.69844  24066427.5214   24066426.9694
  -3140640.96644  -2447250.25844  24721625.9454   24721624.3554
  -5133345.85944  -4000006.60744  23291624.6694   23291626.7254
 96  2 17  0 59 30.0000000  0  8G 2G 9G12G 7G 4G26G 5G24
   3108836.07644   2422470.59744  22225440.7104   22225441.1914
 -11484140.20744  -8948676.66544  21701799.4314   21701798.9284
  -8131750.724 4  -6336425.508 4  21298109.089    21298107.917
 -14603898.91644 -11379651.92744  20926912.1814   20926912.0494
 -13962284.69344 -10879696.47944  21223083.1684   21223082.7164
   1076292.39344    838669.35544  24079456.0804   24079456.5354
  -3222082.25744  -2510710.99044  24706128.3334   24706128.6844
  -5237891.95544  -4081471.01144  23271730.6114   23271732.7654
 96  2 17  1  0  0.0000000  0  8G 2G 9G12G 7G 4G26G 5G24
   3158832.66344   2461428.96844  22234954.9214   22234955.1164
 -11542587.56944  -8994220.05744  21690677.1684   21690676.5584
  -8086548.238 4  -6301202.807 4  21306710.750    21306709.529
 -14555117.45044 -11341640.39444  20936195.0384   20936195.0934
 -14021991.02744 -10926220.87744  21211721.5214   21211721.3324
   1144946.29044    892165.87744  24092520.9744   24092522.5524
  -3303540.79344  -2574185.18944  24690627.1474   24690625.1234
  -5342269.73244  -4162804.28944  23251867.4534   23251869.5574
 96  2 17  1  0 30.0000000  0  8G 2G 9G12G 7G 4G26G 5G24
   3209106.37344   2500603.26944  22244521.6254   22244521.8674
 -11600578.74044  -9039407.97844  21679641.3374   21679641.0334
  -8040921.499 4  -6265649.522 4  21315393.444    21315392.229
 -14506068.94744 -11303420.79144  20945528.3704   20945528.8424
 -14081211.62044 -10972366.77144  21200452.3584   21200451.9254
   1213774.39644    945798.12844  24105618.2844   24105618.1714
  -3385027.01744  -2637680.90144  24675120.9174   24675120.4414
  -5446501.17944  -4244023.54144  23232032.9604   23232032.9364
 96  2 17  1  1  0.0000000  0  8G 2G 9G12G 7G 4G26G 5G24
   3259664.03644   2539998.82744  22254141.7764   22254143.2824
 -11658109.98544  -9084237.50744  21668694.2394   21668693.6124
  -7994879.265 4  -6229772.475 4  21324154.859    21324153.731
 -14456766.72844 -11265003.48744  20954910.5974   20954910.6654
 -14139945.07744 -11018133.08344  21189275.4434   21189275.0804
   1282766.80644    999558.40344  24118747.8584   24118746.8184
  -3466552.01244  -2701206.85044  24659606.1194   24659602.9474
  -5550602.17644  -4325141.14644  23212223.2624   23212225.7704
 96  2 17  1  1 30.0000000  0  8G 2G 9G12G 7G 4G26G 5G24
   3310502.37944   2579613.10444  22263816.0824   22263816.9174
 -11715196.00744  -9128720.11344  21657830.7004   21657830.1714
  -7948431.686 4  -6193579.574 4  21332993.617    21332992.287
 -14407237.26444 -11226409.10144  20964335.7154   20964335.6504
 -14198199.09944 -11063525.81444  21178189.8634   21178189.2674
   1351901.22944   1053429.35944  24131902.6514   24131900.5464
  -3548108.90344  -2764757.64744  24644084.6834   24644084.1894
  -5654586.41344  -4406167.77044  23192435.4274   23192436.4304
 96  2 17  1  2  0.0000000  0  8G 2G 9G12G 7G 4G26G 5G24
   3361605.99144   2619434.07344  22273541.3304   22273541.9224
 -11771834.14044  -9172853.70944  21647052.4834   21647052.1454
  -7901584.304 4  -6157075.137 4  21341908.334    21341907.205
 -14357507.65644 -11187658.75944  20973799.0014   20973798.9574
 -14255980.48744 -11108550.25144  21167194.6834   21167194.1264
   1421162.71644   1107399.33844  24145084.1744   24145083.5014
  -3629692.77644  -2828329.37544  24628560.8484   24628557.0594
  -5758446.53244  -4487097.66744  23172670.8394   23172672.9994
 96  2 17  1  2 30.0000000  0  8G 2G 9G12G 7G 4G26G 5G24
   3412960.98344   2659450.92644  22283314.0754   22283314.6444
 -11828006.71644  -9216624.54244  21636363.3404   21636362.7414
  -7854324.930 4  -6120249.665 4  21350901.717    21350900.208
 -14307561.35444 -11148739.56244  20983303.3484   20983303.2234
 -14313264.01144 -11153186.74544  21156293.8084   21156293.4704
   1490560.02144   1161475.12344  24158288.5544   24158288.6264
  -3711286.35544  -2891908.73144  24613032.2634   24613033.1344
  -5862149.66444  -4567905.24644  23152937.1834   23152938.1884
 96  2 17  1  3  0.0000000  0  8G 2G 9G12G 7G 4G26G 5G24
   3464528.29744   2699633.22244  22293126.8514   22293127.5524
 -11883744.64744  -9260056.68644  21625756.8344   21625756.4504
  -7806670.682 4  -6083116.504 4  21359969.965    21359968.630
 -14257423.07544 -11109670.77944  20992844.6384   20992844.5894
 -14370050.81044 -11197436.17944  21145487.6884   21145487.3274
   1560069.67244   1215638.48944  24171515.3564   24171517.3074
  -3792897.86844  -2955502.03544  24597500.6254   24597501.1564
  -5965678.02844  -4648576.64544  23133236.8804   23133237.9964
 96  2 17  1  3 30.0000000  0  8G 2G 9G12G 7G 4G26G 5G24
   3516306.91644   2739980.18144  22302979.4714   22302979.9144
 -11939051.38244  -9303152.83144  21615232.6774   21615231.9474
  -7758618.870 4  -6045673.551 4  21369113.753    21369112.576
 -14207093.76844 -11070453.14844  21002421.9984   21002422.0604
 -14426342.17744 -11241299.56444  21134775.8044   21134775.4964
   1629693.55644   1269890.82144  24184764.0924   24184767.2064
  -3874521.24044  -3019104.57744  24581968.9244   24581971.2514
  -6069004.84544  -4729091.00344  23113574.0204   23113574.6154
 96  2 17  1  4  0.0000000  0  8G 2G 9G12G 7G 4G26G 5G24
   3568283.23744   2780481.18244  22312871.2914   22312870.6994
 -11993932.10744  -9345917.03644  21604789.5424   21604788.8494
  -7710181.829 4  -6007930.418 4  21378331.149    21378329.917
 -14156582.28344 -11031093.55144  21012034.2714   21012034.1624
 -14482148.68444 -11284785.13844  21124156.0444   21124155.5014
   1699420.61544   1324223.52944  24198033.2094   24198034.2044
  -3956185.04144  -3082738.63144  24566429.6014   24566433.7114
  -6172142.74744  -4809458.16344  23093948.3574   23093950.7374
 96  2 17  1  4 30.0000000  0  8G 2G 9G12G 7G 4G26G 5G24
   3620484.12944   2821157.18344  22322804.3884   22322804.3784
 -12048379.78544  -9388343.79344  21594428.2434   21594427.8224
  -7661344.719 4  -5969875.544 4  21387624.532    21387623.409
 -14105877.10344 -10991583.02544  21021682.6434   21021682.2604
 -14537448.15744 -11327875.61544  21113632.9594   21113632.3884
   1769258.69044   1378642.79344  24211323.1134   24211322.7054
  -4037889.14444  -3146404.15544  24550880.2264   24550882.7944
  -6275084.17244  -4889672.23544  23074358.9914   23074360.8184
 96  2 17  1  5  0.0000000  0  8G 2G 9G12G 7G 4G26G 5G24
   3672930.24344   2862024.27044  22332784.6094   22332785.2374
 -12102394.33444  -9430433.03544  21584149.4474   21584149.2784
  -7612110.466 4  -5931511.206 4  21396993.455    21396992.422
 -14054990.29744 -10951930.97344  21031366.4774   21031366.2504
 -14592244.46144 -11370574.01644  21103205.2454   21103204.8984
   1839204.50344   1433146.01844  24224634.6474   24224635.6434
  -4119639.56444  -3210105.73644  24535324.2434   24535322.3004
  -6377844.70444  -4969745.31744  23054804.3904   23054806.8844
 96  2 17  1  5 30.0000000  0  8G 2G 9G12G 7G 4G26G 5G24
   3725623.44844   2903083.88944  22342811.7924   22342812.1174
 -12155960.59344  -9472172.97944  21573955.9714   21573955.3384
  -7562484.100 4  -5892841.326 4  21406437.055    21406435.920
 -14003915.40044 -10912132.35044  21041085.8814   21041085.9674
 -14646550.27544 -11412890.21644  21092871.6794   21092871.0974
   1909261.92644   1487736.18844  24237966.4404   24237965.7424
  -4201448.60144  -3273853.00544  24519756.8004   24519757.5014
  -6480452.80744  -5049699.62644  23035277.7694   23035279.5364
 96  2 17  1  6  0.0000000  0  8G 2G 9G12G 7G 4G26G 5G24
   3778561.66944   2944334.43244  22352885.5864   22352886.1964
 -12209068.60044  -9513555.84444  21563849.6574   21563849.2384
  -7512466.688 4  -5853866.736 4  21415955.292    21415953.889
 -13952655.01744 -10872189.19744  21050839.9074   21050839.9914
 -14700368.29644 -11454826.31744  21082630.5264   21082629.8964
   1979436.34544   1542417.51244  24251321.0874   24251320.9634
  -4283322.87744  -3337651.03144  24504177.1024   24504178.5044
  -6582918.21644  -5129542.74544  23015780.1794   23015782.1634
 96  2 17  1  6 30.0000000  0  8G 2G 9G12G 7G 4G26G 5G24
   3831767.38744   2985793.41344  22363009.7144   22363010.4214
 -12261690.53744  -9554559.93744  21553835.9604   21553835.4674
  -7462039.293 4  -5814572.678 4  21425551.232    21425549.994
 -13901187.98344 -10832085.02244  21060633.8894   21060634.0664
 -14753671.65244 -11496361.38244  21072486.8704   21072486.4374
   2049745.10944   1597203.54644  24264699.4764   24264699.9304
  -4365225.81944  -3401471.52444  24488591.3604   24488592.9104
  -6685213.13644  -5209253.03444  22996313.0754   22996315.4554
 96  2 17  1  7  0.0000000  0  8G 2G 9G12G 7G 4G26G 5G24
   3885209.68644   3027436.74244  22373180.0324   22373180.5154
 -12313839.70644  -9595195.64644  21543912.3804   21543911.6094
  -7411226.637 4  -5774978.418 4  21435220.432    21435219.104
 -13849527.18944 -10791829.86144  21070464.5644   21070464.5284
 -14806484.16844 -11537513.97244  21062437.1624   21062436.4294
   2120167.44244   1652078.09244  24278098.3304   24278100.8774
  -4447180.31344  -3465332.08844  24472995.6354   24472996.0564
  -6787344.48344  -5288835.86044  22976878.6814   22976879.9404
 96  2 17  1  7 30.0000000  0  8G 2G 9G12G 7G 4G26G 5G24
   3938867.81644   3069248.25544  22383390.9854   22383391.6584
 -12365523.39444  -9635468.64744  21534077.5424   21534077.0704
  -7360028.873 4  -5735084.073 4  21444963.076    21444961.886
 -13797681.70144 -10751430.78044  21080330.5754   21080330.4434
 -14858811.85844 -11578288.78144  21052479.6684   21052479.2034
   2190707.27144   1707044.18544  24291520.7894   24291523.6304
  -4529195.36844  -3529239.94044  24457389.0534   24457389.6374
  -6889301.40344  -5368282.75144  22957477.1954   22957479.3284
 96  2 17  1  8  0.0000000  0  8G 2G 9G12G 7G 4G26G 5G24
   3992757.62644   3111240.29244  22393645.4554   22393645.9194
 -12416748.68144  -9675384.44644  21524329.5564   21524329.0614
  -7308436.247 4  -5694882.041 4  21454780.937    21454779.693
 -13745647.53744 -10710884.68144  21090232.1214   21090232.1354
 -14910626.80944 -11618664.05044  21042619.2494   21042618.8044
   2261353.46344   1762093.12044  24304963.3944   24304967.3064
  -4611252.42644  -3593180.43344  24441773.7354   24441776.5154
  -6991062.85144  -5447577.32344  22938112.0344   22938114.0934
 96  2 17  1  8 30.0000000  0  8G 2G 9G12G 7G 4G26G 5G24
   4046884.47044   3153417.03044  22403946.0704   22403946.2114
 -12467522.65444  -9714948.57044  21514667.6604   21514666.9324
  -7256444.532 4  -5654369.033 4  21464674.607    21464673.329
 -13693408.33944 -10670178.81544  21100173.0944   21100173.3044
 -14961912.08844 -11658626.58144  21032860.1004   21032859.5174
   2332097.22344   1817218.06244  24318427.2164   24318428.3054
  -4693341.81944  -3657146.13944  24426153.1534   24426151.3014
  -7092619.13844  -5526712.04044  22918786.8334   22918787.8064
 96  2 17  1  9  0.0000000  0  8G 2G 9G12G 7G 4G26G 5G24
   4101270.61744   3195795.82244  22414295.0944   22414295.6524
 -12517829.45544  -9754148.67444  21505094.8494   21505094.1254
  -7204031.300 4  -5613527.571 4  21474648.494    21474647.255
 -13640946.24844 -10629299.26344  21110156.3264   21110156.3664
 -15012647.36744 -11698160.54744  21023205.5164   21023205.0564
   2402963.28244   1872438.29544  24331913.7684   24331914.9404
  -4775449.46444  -3721126.04344  24410527.7854   24410527.8944
  -7193951.61244  -5605672.35744  22899504.0384   22899506.1494
 96  2 17  1  9 30.0000000  0  8G 2G 9G12G 7G 4G26G 5G24
   4155913.00344   3238374.28444  22424693.1604   22424693.1844
 -12567675.52844  -9792989.75744  21495609.0844   21495608.7304
  -7151212.044 4  -5572369.725 4  21484699.707    21484698.454
 -13588272.97344 -10588255.16244  21120179.6504   21120179.4724
 -15062837.85444 -11737269.99244  21013654.3134   21013653.9164
   2473922.47644   1927731.19744  24345418.3294   24345418.7914
  -4857574.07744  -3785119.20044  24394900.7454   24394899.2554
  -7295093.46744  -5684484.13344  22880257.2174   22880258.9714
 96  2 17  1 10  0.0000000  0  8G 2G 9G12G 7G 4G26G 5G24
   4210818.69044   3281157.92344  22435141.3134   22435141.4384
 -12617043.00644  -9831457.90844  21486214.9264   21486214.3354
  -7097990.441 4  -5530898.361 4  21494827.392    21494826.052
 -13535380.01944 -10547039.87644  21130244.7864   21130244.9524
 -15112477.69944 -11775950.36544  21004208.5164   21004208.0204
   2544950.93444   1983078.04444  24358934.4274   24358931.2864
  -4939703.74744  -3849116.28544  24379272.6704   24379271.1434
  -7396044.40144  -5763147.15344  22861047.3894   22861048.2784
 96  2 17  1 10 30.0000000  0  8G 2G 9G12G 7G 4G26G 5G24
   4265960.55344   3324125.59044  22445634.5254   22445635.1264
 -12665927.52444  -9869549.73144  21476913.1544   21476912.5054
  -7044379.586 4  -5489123.685 4  21505029.154    21505027.899
 -13482288.23644 -10505669.65944  21140347.8804   21140348.0024
 -15161585.72844 -11814216.34044  20994863.2024   20994862.6144
   2616037.86544   2038470.44344  24372462.4764   24372460.7904
  -5021856.18544  -3913131.09244  24363640.3344   24363638.1764
  -7496809.39344  -5841665.26144  22841871.8184   22841872.4644
 96  2 17  1 11  0.0000000  0  8G 2G 9G12G 7G 4G26G 5G24
   4321332.27244   3367272.37444  22456171.5264   22456171.8654
 -12714324.00044  -9907261.26244  21467703.1754   21467702.0684
  -6990388.846 4  -5447052.996 4  21515303.363    21515302.176
 -13429026.29244 -10464166.84944  21150483.3014   21150483.1664
 -15210174.88444 -11852077.99444  20985616.9124   20985616.3864
   2687168.11144   2093896.60444  24385998.1564   24385996.2694
  -5104042.60244  -3977172.41944  24347999.7134   24347999.2744
  -7597388.65444  -5920038.66744  22822732.2544   22822733.2604
 96  2 17  1 11 30.0000000  0  8G 2G 9G12G 7G 4G26G 5G24
   4376950.67744   3410611.38044  22466754.7764   22466755.1464
 -12762215.95144  -9944579.64944  21458589.1504   21458588.4404
  -6935999.236 4  -5404671.500 4  21525653.349    21525652.195
 -13375578.67944 -10422519.36144  21160654.0114   21160653.9284
 -15258230.24944 -11889523.71444  20976472.3684   20976472.0074
   2758355.17644   2149367.02544  24399543.1094   24399544.5824
  -5186236.76144  -4041219.75644  24332359.4954   24332357.6194
  -7697750.73644  -5998242.83244  22803634.0874   22803635.2514
 96  2 17  1 12  0.0000000  0  8G 2G 9G12G 7G 4G26G 5G24
   4432818.46344   3454144.69444  22477387.0654   22477387.3314
 -12809609.66444  -9981509.79944  21449570.4644   21449570.0894
  -6881196.662 4  -5361968.211 4  21536081.957    21536080.828
 -13321943.82844 -10380725.96944  21170860.2294   21170860.4994
 -15305745.88144 -11926548.86244  20967430.3764   20967430.0044
   2829628.42044   2204904.57844  24413104.1364   24413106.6404
  -5268442.92144  -4105276.49244  24316715.9204   24316716.4544
  -7797867.85944  -6076256.13144  22784582.2474   22784583.3984
 96  2 17  1 12 30.0000000  0  8G 2G 9G12G 7G 4G26G 5G24
   4488941.62944   3497877.00844  22488066.2304   22488066.6544
 -12856539.94344 -10018078.87844  21440640.0764   21440639.6224
  -6825986.056 4  -5318946.974 4  21546588.278    21546587.062
 -13268129.41544 -10338792.65944  21181100.7244   21181100.5554
 -15352730.93344 -11963160.54044  20958489.6074   20958489.1554
   2900988.88344   2260510.12444  24426680.1404   24426688.0464
  -5350687.22244  -4169362.89644  24301064.7464   24301065.9264
  -7897746.81544  -6154083.85044  22765575.8374   22765576.4704
 96  2 17  1 13  0.0000000  0  8G 2G 9G12G 7G 4G26G 5G24
   4545329.93544   3541815.93244  22498796.6434   22498797.0624
 -12903011.74444 -10054290.64844  21431797.0754   21431796.4384
  -6770361.713 4  -5275603.349 4  21557173.266    21557171.981
 -13214119.90544 -10296707.32544  21191378.6674   21191378.4334
 -15399183.69944 -11999357.49444  20949649.9204   20949649.4204
   2972444.35344   2316189.62744  24440279.2044   24440284.6554
  -5432968.77644  -4233478.29444  24285406.6954   24285407.3364
  -7997388.14044  -6231726.38744  22746615.1454   22746615.8754
 96  2 17  1 13 30.0000000  0  8G 2G 9G12G 7G 4G26G 5G24
   4601972.12044   3585952.67944  22509575.1454   22509575.0664
 -12949029.03944 -10090148.26644  21423040.3674   21423039.6484
  -6714328.009 4  -5231940.743 4  21567836.170    21567834.865
 -13159906.62344 -10254463.20744  21201694.9934   21201695.0354
 -15445105.18444 -12035140.45444  20940911.3904   20940910.5904
   3043989.08544   2371938.69944  24453897.4884   24453899.6094
  -5515298.62044  -4297631.35444  24269739.9474   24269740.6254
  -8096808.27344  -6309196.59044  22727695.6004   22727697.0814
 96  2 17  1 14  0.0000000  0  8G 2G 9G12G 7G 4G26G 5G24
   4658862.08544   3630282.49544  22520401.4554   22520402.2964
 -12994585.88044 -10125647.09244  21414370.7374   21414370.2454
  -6657892.152 4  -5187964.766 4  21578575.469    21578574.393
 -13105495.28344 -10212064.76344  21212049.1664   21212049.3294
 -15490490.27444 -12070505.44144  20932274.3844   20932273.9074
   3115606.58444   2427744.53744  24467526.9694   24467526.0744
  -5597685.33344  -4361828.79644  24254061.3514   24254061.8204
  -8196017.71644  -6386502.62244  22708817.0624   22708817.8364
 96  2 17  1 14 30.0000000  0  8G 2G 9G12G 7G 4G26G 5G24
   4716004.82344   3674809.30344  22531275.7844   22531275.8774
 -13039652.91744 -10160764.25844  21405795.0104   21405794.5784
  -6601054.749 4  -5143675.900 4  21589391.313    21589389.964
 -13050887.56644 -10169513.29544  21222440.6864   21222440.7644
 -15535327.95144 -12105443.87144  20923742.6414   20923742.1284
   3187289.18744   2483601.11344  24481168.0414   24481165.1214
  -5680101.41244  -4426049.08544  24238376.6914   24238377.9984
  -8295018.45744  -6463646.01244  22689977.3344   22689978.7284
 96  2 17  1 15  0.0000000  0  8G 2G 9G12G 7G 4G26G 5G24
   4773388.60044   3719524.01744  22542195.2904   22542195.5144
 -13084188.52844 -10195467.32444  21397319.6964   21397319.2334
  -6543818.393 4  -5099076.160 4  21600282.939    21600281.691
 -12996092.03944 -10126815.47444  21232867.6374   21232867.8374
 -15579606.19744 -12139946.38144  20915316.3444   20915315.8354
   3259048.21744   2539517.23344  24494822.9824   24494820.3534
  -5762524.70544  -4490274.95444  24222692.9144   24222693.8884
  -8393805.54344  -6540622.91644  22671178.8584   22671180.0494
 96  2 17  1 15 30.0000000  0  8G 2G 9G12G 7G 4G26G 5G24
   4831026.52944   3764436.72344  22553163.9114   22553165.7924
 -13128186.22444 -10229751.23844  21388947.0644   21388946.6664
  -6486191.137 4  -5054171.817 4  21611249.063    21611247.813
 -12941130.22344 -10083988.08644  21243326.8144   21243326.4764
 -15623323.75744 -12174011.99244  20906997.3384   20906996.7974
   3330883.82944   2595493.02844  24508492.5894   24508490.3384
  -5844946.37844  -4554499.57844  24207009.4134   24207010.1114
  -8492378.53044  -6617433.01944  22652420.8944   22652421.4614
 96  2 17  1 16  0.0000000  0  8G 2G 9G12G 7G 4G26G 5G24
   4888910.37544   3809540.81744  22564178.1164   22564179.7414
 -13171672.84544 -10263636.91144  21380672.3234   21380671.9294
  -6428192.420 4  -5008978.029 4  21622286.008    21622284.591
 -12886035.02944 -10041056.76744  21253811.0784   21253811.0544
 -15666502.73544 -12207657.93244  20898780.6924   20898780.2494
   3402779.87544   2651515.91744  24522173.0834   24522170.6214
  -5927371.83544  -4618727.17744  24191324.2144   24191325.5764
  -8590742.54744  -6694080.27544  22633702.3124   22633704.2574
 96  2 17  1 16 30.0000000  0  8G 2G 9G12G 7G 4G26G 5G24
   4947023.35644   3854823.65044  22575237.3754   22575237.8514
 -13214666.20844 -10297138.22544  21372490.6654   21372490.1874
  -6369831.506 4  -4963502.011 4  21633391.777    21633390.305
 -12830822.13844  -9998033.73444  21264317.9544   21264318.0974
 -15709149.83544 -12240889.41644  20890665.0944   20890664.5974
   3474720.65244   2707573.66244  24535861.1684   24535862.3124
  -6009817.95944  -4682970.87244  24175634.3274   24175636.3354
  -8688903.99844  -6770569.68244  22615023.4454   22615024.4804
 96  2 17  1 17  0.0000000  0  8G 2G 9G12G 7G 4G26G 5G24
   5005397.92444   3900310.30644  22586344.9954   22586345.5074
 -13257155.65744 -10330246.88644  21364405.4694   21364404.6604
  -6311076.537 4  -4917718.938 4  21644572.518    21644571.145
 -12775458.70944  -9954893.40044  21274852.8184   21274852.9244
 -15751239.69044 -12273686.68544  20882655.7174   20882655.3014
   3546720.49844   2763677.38244  24549560.2284   24549564.2564
  -6092270.52244  -4747219.57244  24159943.9824   24159944.1714
  -8786829.61044  -6846875.32144  22596388.2874   22596389.7764
 96  2 17  1 17 30.0000000  0  8G 2G 9G12G 7G 4G26G 5G24
   5064032.12344   3945999.26844  22597502.3014   22597503.7764
 -13299171.22444 -10362986.28444  21356410.1504   21356409.6114
  -6251927.190 4  -4871628.554 4  21655828.227    21655826.856
 -12719940.76144  -9911632.66244  21285417.5724   21285417.9804
 -15792783.99444 -12306058.85644  20874750.1044   20874749.6484
   3618750.55444   2819804.67044  24563266.6234   24563274.1514
  -6174734.51744  -4811477.20544  24144252.2764   24144251.2044
  -8884517.09844  -6922995.41944  22577799.6024   22577800.4354
 96  2 17  1 18  0.0000000  0  8G 2G 9G12G 7G 4G26G 5G24
   5122900.53744   3991870.72844  22608704.6834   22608705.7204
 -13340720.28644 -10395362.17244  21348503.6274   21348502.7694
  -6192384.411 4  -4825231.603 4  21667158.969    21667157.537
 -12664259.37244  -9868244.57444  21296013.5424   21296013.9024
 -15833784.42044 -12338007.22244  20866947.9314   20866947.4134
   3690784.16944   2875934.71344  24576977.7004   24576980.8704
  -6257230.00744  -4875759.38144  24128554.4784   24128553.8334
  -8981961.20644  -6998925.86644  22559256.2774   22559258.1164
 96  2 17  1 18 30.0000000  0  8G 2G 9G12G 7G 4G26G 5G24
   5182008.82144   4037929.12144  22619952.1784   22619953.5174
 -13381782.34444 -10427358.58144  21340689.5834   21340688.6944
  -6132437.710 4  -4778519.906 4  21678566.422    21678565.205
 -12608399.13144  -9824717.11244  21306643.3884   21306643.6524
 -15874222.33744 -12369517.27044  20859252.7334   20859252.2064
   3762826.49344   2932071.54344  24590689.3174   24590691.2064
  -6339761.81344  -4940069.79444  24112849.4154   24112847.4954
  -9079148.90844  -7074656.51844  22540761.9514   22540763.5694
 96  2 17  1 19  0.0000000  0  8G 2G 9G12G 7G 4G26G 5G24
   5241366.29444   4084181.66844  22631248.0444   22631249.5724
 -13422351.25644 -10458970.71744  21332969.3804   21332968.9754
  -6072096.115 4  -4731500.499 4  21690048.977    21690047.774
 -12552366.63144  -9781055.42544  21317306.4184   21317306.4834
 -15914120.63744 -12400606.83844  20851660.4034   20851659.6984
   3834878.86144   2988216.22344  24604401.2324   24604403.2874
  -6422333.37044  -5004411.21444  24097136.8984   24097134.5034
  -9176072.13844  -7150181.08544  22522317.7804   22522318.9614
 96  2 17  1 19 30.0000000  0  8G 2G 9G12G 7G 4G26G 5G24
   5300996.50044   4130646.75144  22642596.1724   22642596.7414
 -13462387.17044 -10490167.53044  21325351.5494   21325350.6524
  -6011336.260 4  -4684155.178 4  21701611.275    21701609.923
 -12496145.85644  -9737247.02844  21328005.0654   21328004.7654
 -15953450.60144 -12431253.55144  20844176.2974   20844175.3154
   3906978.95744   3044398.09644  24618121.0724   24618120.5104
  -6504925.37544  -5068768.58544  24081421.2384   24081418.8294
  -9272689.65044  -7225467.42544  22503932.2164   22503934.0094
 96  2 17  1 20  0.0000000  0  8G 2G 9G12G 7G 4G26G 5G24
   5360890.92344   4177317.70844  22653993.1304   22653993.5734
 -13501898.49944 -10520955.57844  21317832.6564   21317831.6114
  -5950178.327 4  -4636499.667 4  21713249.273    21713247.786
 -12439757.51244  -9693308.06144  21338734.8724   21338734.7584
 -15992214.49644 -12461459.17044  20836799.6874   20836798.8224
   3979126.11344   3100616.63544  24631849.5904   24631849.5394
  -6587558.86744  -5133158.32544  24065696.5114   24065693.6534
  -9369026.62844  -7300535.18044  22485599.8644   22485601.3004
 96  2 17  1 20 30.0000000  0  8G 2G 9G12G 7G 4G26G 5G24
   5421065.77444   4224207.16844  22665444.4574   22665445.0474
 -13540880.47544 -10551331.13644  21310414.5424   21310413.8274
  -5888627.769 4  -4588538.214 4  21724961.903    21724960.389
 -12383213.46044  -9649247.76444  21349494.5184   21349494.5424
 -16030412.71344 -12491224.00244  20829530.8024   20829530.0524
   4051331.78344   3156880.81944  24645586.7504   24645586.3204
  -6670212.14244  -5197563.43544  24049967.8104   24049968.3434
  -9465093.39744  -7375392.36844  22467318.8924   22467319.7374
 96  2 17  1 21  0.0000000  0  8G 2G 9G12G 7G 4G26G 5G24
   5481520.90444   4271315.04044  22676948.5494   22676949.2934
 -13579335.68744 -10581296.23244  21303096.4694   21303095.8774
  -5826680.617 4  -4540267.720 4  21736750.094    21736748.603
 -12326509.85644  -9605063.13744  21360285.1464   21360285.1844
 -16068046.07444 -12520548.68344  20822369.4604   20822368.6844
   4123599.01544   3213192.93044  24659335.6404
  -6752864.23544  -5261967.60344  24034239.1434   24034238.3084
  -9560885.19044  -7450035.28944  22449090.5024   22449092.0004
 96  2 17  1 21 30.0000000  0  8G 2G 9G12G 7G 4G26G 5G24
   5542230.72644   4318621.36344  22688501.6924   22688501.4594
 -13617291.00744 -10610871.80744  21295873.3674   21295872.9924
  -5764351.503 4  -4491699.600 4  21748611.060    21748609.565
 -12269657.19544  -9560762.35844  21371103.5574   21371103.9244
 -16105112.77844 -12549431.81744  20815315.8384   20815314.9764
   4195907.74144   3269537.36844  24673097.4884   24673096.3034
  -6835518.96944  -5326373.84644  24018510.0854   24018508.5214
  -9656434.49644  -7524489.28544  22430908.2744   22430908.9494
 96  2 17  1 22  0.0000000  0  8G 2G 9G12G 7G 4G26G 5G24
   5603173.03244   4366108.85844  22700098.1614   22700098.6964
 -13654762.63044 -10640070.46944  21288743.3144   21288742.8734
  -5701654.027 4  -4442844.444 4  21760541.897    21760540.562
 -12212672.35944  -9516358.59144  21381947.3344   21381947.7544
 -16141625.56244 -12577883.32344  20808367.6694   20808367.1384
   4268225.98344   3325889.20844  24686861.6634   24686864.7794
  -6918171.18244  -5390778.16844  24002781.9274   24002780.7294
  -9751769.59044  -7598776.34244  22412766.4164   22412767.4704
 96  2 17  1 22 30.0000000  0  8G 2G 9G12G 7G 4G26G 5G24
   5664325.46244   4413760.07944  22711735.1534   22711735.7084
 -13691760.14744 -10668899.70144  21281702.7284   21281702.1314
  -5638594.151 4  -4393706.896 4  21772541.798    21772540.450
 -12155575.22044  -9471867.32044  21392812.6584   21392812.7094
 -16177601.69144 -12605916.65444  20801521.6204   20801521.0474
   4340529.76544   3382229.78944  24700622.4994   24700623.8274
  -7000832.67244  -5455189.68444  23987051.1514   23987051.3734
  -9846887.42544  -7672894.10744  22394666.3704   22394667.4944
 96  2 17  1 23  0.0000000  0  8G 2G 9G12G 7G 4G26G 5G24
   5725700.50544   4461584.76144  22723414.5194   22723414.5314
 -13728257.04544 -10697338.84244  21274757.9124   21274757.2704
  -5575151.026 4  -4344270.713 4  21784614.699    21784613.272
 -12098342.94444  -9427270.74044  21403703.7944   21403703.7094
 -16213019.13744 -12633514.64844  20794781.9164   20794781.2784
   4412835.79544   3438572.14344  24714381.4684   24714383.1874
  -7083502.33344  -5519607.54944  23971318.8094   23971319.9434
  -9941766.04344  -7746825.48144  22376611.4754   22376612.0484
 96  2 17  1 23 30.0000000  0  8G 2G 9G12G 7G 4G26G 5G24
   5787316.50744   4509597.20144  22735139.9234   22735140.3314
 -13764213.82044 -10725357.09944  21267915.7044   21267915.0254
  -5511310.542 4  -4294524.898 4  21796763.219    21796761.668
 -12040958.97744  -9382555.95944  21414623.9574   21414623.6444
 -16247848.93744 -12660654.73444  20788154.2004   20788153.5764
   4485148.88844   3494919.96844  24728143.1374   24728144.1234
  -7166176.88344  -5584029.22044  23955586.5174   23955586.8964
 -10036384.70944  -7820554.29144  22358606.2764   22358607.3794
 96  2 17  1 24  0.0000000  0  8G 2G 9G12G 7G 4G26G 5G24
   5849176.65944   4557799.90644  22746911.2664   22746912.5404
 -13799611.06144 -10752939.36844  21261179.5214   21261178.7604
  -5447069.983 4  -4244467.340 4  21808987.751    21808986.269
 -11983420.77544  -9337720.99944  21425573.4134   21425572.9774
 -16282097.57344 -12687341.96244  20781636.7524   20781635.9984
   4557470.83244   3551274.72244  24741905.0304   24741908.2334
  -7248871.90644  -5648466.86444  23939849.9964   23939850.3064
 -10130717.83544  -7894060.60344  22340655.2104   22340656.5354
 96  2 17  1 24 30.0000000  0  8G 2G 9G12G 7G 4G26G 5G24
   5911298.78444   4606206.73144  22758732.2514   22758733.5274
 -13834454.21744 -10780089.87544  21254549.3584   21254548.7714
  -5382435.402 4  -4194102.751 4  21821287.382    21821285.831
 -11925714.12644  -9292754.77744  21436554.2634   21436554.0814
 -16315769.57244 -12713579.86544  20775229.2474   20775228.7274
   4629807.85544   3607641.17744  24755669.4784   24755668.1874
  -7331602.40544  -5712932.16444  23924106.4964   23924109.1944
 -10224749.47444  -7967331.98244  22322761.2744   22322762.2754
 96  2 17  1 25  0.0000000  0  8G 2G 9G12G 7G 4G26G 5G24
   5973697.66144   4654829.19944  22770605.8774   22770607.4584
 -13868721.07844 -10806791.31844  21248028.2634   21248027.7314
  -5317404.149 4  -4143429.069 4  21833662.348    21833660.940
 -11867821.67844  -9247643.78044  21447570.6994   21447570.6134
 -16348856.22044 -12739361.64944  20768932.6364   20768932.1314
   4702167.54744   3664025.32544  24769435.5004   24769441.0504
  -7414348.16144  -5777409.35944  23908360.7384   23908361.6274
 -10318462.00544  -8040354.71444  22304928.5534   22304929.1424
 96  2 17  1 25 30.0000000  0  8G 2G 9G12G 7G 4G26G 5G24
   6036345.72744   4703645.84844  22782528.0474   22782529.5164
 -13902462.83044 -10833083.58544  21241607.5794   21241606.9044
  -5252000.794 4  -4092465.432 4  21846108.064    21846106.905
 -11809769.54344  -9202408.35244  21458617.7984   21458617.6454
 -16381386.23144 -12764709.68944  20762742.7674   20762742.1534
   4774512.85244                  24783201.3744
  -7497118.74844  -5841905.90444  23892609.7954   23892610.4084
 -10411863.76244  -8113135.28144  22287154.4474   22287155.3054
 96  2 17  1 26  0.0000000  0  8G 2G 9G12G 7G 4G26G 5G24
   6099277.06044   4752683.21844  22794503.6854   22794505.2744
 -13935685.52344 -10858971.39444  21235285.6184   21235284.8954
  -5186201.774 4  -4041193.486 4  21858629.400    21858627.973
 -11751540.24944  -9157034.88144  21469698.2584   21469698.3574
 -16413346.94644 -12789614.12644  20756660.6864   20756660.0904
   4846874.76744                  24796974.4544
  -7579872.34644  -5906389.18844  23876863.3314   23876863.7564
 -10504935.01844  -8185658.31744  22269443.8314   22269444.5984
 96  2 17  1 26 30.0000000  0  8G 2G 9G12G 7G 4G26G 5G24
   6162482.47544   4801934.17344  22806531.2154   22806533.5554
 -13968407.10444 -10884468.71844  21229058.7514   21229058.3964
  -5120021.239 4  -3989624.257 4  21871223.188    21871221.594
 -11693153.38844  -9111538.62944  21480808.8664   21480808.8284
 -16444741.27344 -12814077.21944  20750686.4854   20750685.9514
   4919226.60744   3833162.16644  24810746.3704   24810742.2544
  -7662607.64444  -5970858.20644  23861119.4704   23861119.3124
 -10597708.91744  -8257949.64544  22251789.4804   22251790.6444
 96  2 17  1 27  0.0000000  0  8G 2G 9G12G 7G 4G26G 5G24
   6225917.61944   4851364.12544  22818602.9304   22818604.4354
 -14000648.05644 -10909591.53544  21222923.3504   21222922.7634
  -5053479.487 4  -3937773.562 4  21883885.680    21883884.184
 -11634649.10144  -9065950.87044  21491942.0484   21491941.9734
 -16475584.70344 -12838111.04144  20744817.2824   20744816.6364
   4991540.09044   3889510.35344  24824507.4994   24824508.6824
  -7745351.08144  -6035333.57744  23845374.1404   23845373.8004
 -10690215.73244  -8330032.85644  22234186.2974   22234186.6044
 96  2 17  1 27 30.0000000  0  8G 2G 9G12G 7G 4G26G 5G24
   6289591.05744   4900979.77644  22830719.7024   22830720.2784
 -14032398.16244 -10934331.87644  21216881.6024   21216881.0484
  -4986560.536 4  -3885628.945 4  21896619.845    21896618.400
 -11576011.32144  -9020259.09644  21503100.2944   21503100.5274
 -16505860.92944 -12861702.89144  20739055.9614   20739055.4164
   5063833.18044   3945842.63744  24838264.0494   24838262.2634
  -7828103.82744  -6099816.17844  23829625.8244   23829625.3384
 -10782453.36144  -8401906.30244  22216633.6164   22216634.2484
 96  2 17  1 28  0.0000000  0  8G 2G 9G12G 7G 4G26G 5G24
   6353519.06244   4950793.78144  22842884.2684   22842884.7184
 -14063605.77844 -10958649.49744  21210942.8014   21210942.5384
  -4919250.301 4  -3833179.431 4  21909428.562    21909427.064
 -11517226.70744  -8974452.90544  21514286.6994   21514286.7804
 -16535547.63944 -12884835.37644  20733406.5734   20733406.0104
   5136134.22244   4002181.08044  24852021.0054   24852024.0644
  -7910857.76544  -6164299.75244  23813879.1144   23813878.0394
 -10874410.30044  -8473561.03444  22199134.5684   22199135.7674
 96  2 17  1 28 30.0000000  0  8G 2G 9G12G 7G 4G26G 5G24
   6417684.07044   5000792.46644  22855094.4904   22855095.7434
 -14094264.87944 -10982539.70044  21205108.7174   21205107.9554
  -4851558.968 4  -3780432.957 4  21922309.770    21922308.513
 -11458299.81644  -8928535.85044  21525500.0784   21525500.2184
 -16564639.32144 -12907504.20244  20727870.6594   20727870.0574
   5208437.16944   4058521.02244  24865775.1414   24865784.3254
  -7993640.53844  -6228805.76144  23798125.2334   23798127.5994
 -10966083.61244  -8544994.75244  22181690.4074   22181690.9564
 96  2 17  1 29  0.0000000  0  8G 2G 9G12G 7G 4G26G 5G24
   6482086.94944   5050976.50344  22867349.9794   22867351.1304
 -14124382.82844 -11006008.23044  21199377.6504   21199376.7234
  -4783486.815 4  -3727389.739 4  21935263.442    21935262.107
 -11399231.76344  -8882508.79444  21536740.4014   21536740.3604
 -16593143.88844 -12929715.53844  20722446.3874   20722445.8024
   5280760.54444   4114876.78744  24879536.2714
  -8076451.08644  -6293333.40744  23782366.3024   23782366.8214
 -11057449.42744  -8616188.86044  22164303.8944   22164304.7344
 96  2 17  1 29 30.0000000  0  8G 2G 9G12G 7G 4G26G 5G24
   6546745.80444   5101360.00044  22879653.8414   22879655.4064
 -14153955.52744 -11029051.88544  21193749.9924   21193749.3674
  -4715039.043 4  -3674053.836 4  21948288.784    21948287.302
 -11340022.15744  -8836371.43644  21548007.4774   21548007.1364
 -16621071.19344 -12951477.06044  20717132.0394   20717131.2014
   5353109.38044   4171252.48244  24893308.7644
  -8159275.56444  -6357871.88844  23766603.8564   23766607.5254
 -11148509.31844  -8687144.59344  22146975.4264   22146975.8344
 96  2 17  1 30  0.0000000  0  8G 2G 9G12G 7G 4G26G 5G24
   6611652.83744   5151936.88244  22892005.1904   22892005.7104
 -14183019.66244 -11051699.26244  21188219.1334   21188218.5164
  -4646240.417 4  -3620444.535 4  21961380.688    21961379.448
 -11280711.03644  -8790154.98344  21559294.1164   21559294.0604
 -16648447.93544 -12972809.57344  20711922.2564   20711921.5314
   5425449.03944   4227621.03044  24907076.5374   24907073.5714
  -8242124.55544  -6422429.50444  23750839.7064   23750840.9924
 -11239279.74844  -8757874.76644  22129702.4184   22129703.4704
 96  2 17  1 30 30.0000000  0  8G 2G 9G12G 7G 4G26G 5G24
   6676833.88944   5202727.29844  22904409.4264   22904411.0324
 -14211568.65144 -11073945.22544  21182786.5694   21182785.9024
  -4577069.202 4  -3566544.905 4  21974543.601    21974542.310
 -11221273.20644  -8743839.79744  21570604.5534   21570604.2644
 -16675252.45644 -12993696.19744  20706821.7504   20706821.1024
   5497784.18144   4283986.12344  24920842.0514   24920834.3174
  -8324976.30644  -6486989.30844  23735074.0334   23735074.6314
 -11329735.43944  -8828359.68644  22112489.4434   22112490.0914
 96  2 17  1 31  0.0000000  0  8G 2G 9G12G 7G 4G26G 5G24
   6742278.05244   5253722.72344  22916862.8094   22916863.1594
 -14239605.96544 -11095792.48644  21177451.2974   21177450.5054
  -4507535.057 4  -3512362.475 4  21987775.615    21987774.143
 -11161721.28244  -8697435.70644  21581937.0334   21581937.0954
 -16701497.30744 -13014146.71744  20701827.4264   20701826.7584
   5570086.63344   4340325.66144  24934600.1334   24934600.7144
  -8407824.06544  -6551545.98944  23719309.5474   23719309.3334
 -11419886.36144  -8898607.13944  22095334.2554   22095334.6304
 96  2 17  1 31 30.0000000  0  8G 2G 9G12G 7G 4G26G 5G24
   6807971.89144   5304912.68344  22929364.4994   22929364.6404
 -14267127.07344 -11117237.50544  21172214.1814   21172213.5344
  -4437643.409 4  -3457901.474 4  22001075.555    22001074.099
 -11102058.17044  -8650944.96844  21593291.0714   21593290.5474
 -16727162.42444 -13034145.49244  20696943.7694   20696942.9704
   5642321.32144   4396612.43544  24948343.9634
  -8490667.06744  -6616098.94144  23703544.6624   23703546.5464
 -11509743.10544  -8968625.34944  22078235.2464   22078235.9274
 96  2 17  1 32  0.0000000  0  8G 2G 9G12G 7G 4G26G 5G24
   6873909.85244   5356292.87944  22941911.3274   22941913.0124
 -14294126.09144 -11138275.70144  21167076.6624   21167075.8904
  -4367384.461 4  -3403154.261 4  22014445.356    22014443.927
 -11042266.24244  -8604353.85044  21604668.9094   21604668.7714
 -16752221.40144 -13053671.95244  20692174.9354   20692174.3284
   5714475.18144                  24962070.9194
  -8573498.85344  -6680643.13044  23687782.6754   23687784.1144
 -11599285.33044  -9038398.48244  22061195.7354   22061196.2974
 96  2 17  1 32 30.0000000  0  8G 2G 9G12G 7G 4G26G 5G24
   6940082.04844   5407855.59844  22954503.9884   22954505.3544
 -14320580.23344 -11158889.31944  21162042.4784   21162041.7784
  -4296753.395 4  -3348117.085 4  22027885.891    22027884.648
 -10982331.49944  -8557651.45144  21616073.8174   21616074.1514
 -16776656.10044 -13072711.96344  20687525.1564   20687524.2734
   5786556.75644                  24975787.8094
  -8656320.18644  -6745179.21544  23672022.5424   23672022.8834
 -11688502.57544  -9107918.38744  22044218.3194   22044219.1434
 96  2 17  1 33  0.0000000  0  8G 2G 9G12G 7G 4G26G 5G24
   7006470.12844   5459586.54144  22967137.3044   22967138.6284
 -14346500.73444 -11179087.10744  21157109.6814   21157109.2444
  -4225761.592 4  -3292798.816 4  22041395.197    22041393.882
 -10922274.68244  -8510853.92844  21627502.2574   21627502.2464
 -16800485.57444 -13091280.36944  20682990.6414   20682989.7744
   5858557.51644   4565108.06144  24989491.6774
  -8739137.78644  -6809712.38544  23656262.2534   23656261.7464
 -11777409.02544  -9177196.10444  22027299.4914   22027300.5404
 96  2 17  1 33 30.0000000  0  8G 2G 9G12G 7G 4G26G 5G24
   7073088.00844   5511496.54544  22979814.3744   22979815.4164
 -14371875.80244 -11198859.89144  21152281.2384   21152280.6554
  -4154401.614 4  -3237193.656 4  22054974.582    22054973.246
 -10862095.22344  -8463960.84644  21638953.8564   21638954.0744
 -16823715.45644 -13109381.56244  20678569.9614   20678569.2424
   5930491.28944   4621160.39944  25003183.2764   25003181.0564
  -8821954.93544  -6874245.21844  23640501.2784   23640501.8504
 -11865998.92344  -9246227.17244  22010441.4424   22010442.5974
 96  2 17  1 34  0.0000000  0  8G 2G 9G12G 7G 4G26G 5G24
   7139952.78944   5563598.94344  22992537.8824   22992539.0564
 -14396692.89244 -11218197.88744  21147558.9214   21147558.3774
  -4082670.851 4  -3181299.575 4  22068624.531    22068623.277
 -10801790.46244  -8416970.13744  21650429.7614   21650429.7634
 -16846369.27444 -13127033.87344  20674258.8964   20674258.2604
   6002386.03944   4677182.95344  25016862.7814   25016863.1584
  -8904778.04444  -6938782.68544  23624740.4584   23624741.3984
 -11954274.06044  -9315012.96444  21993643.1624   21993644.4354
 96  2 17  1 34 30.0000000  0  8G 2G 9G12G 7G 4G26G 5G24
   7207083.64044   5615908.68944  23005312.6144   23005313.7384
 -14420928.30044 -11237082.62144  21142946.9734   21142946.1054
  -4010554.170 4  -3125104.778 4  22082347.962    22082346.600
 -10741350.59344  -8369874.13544  21661931.1364   21661931.0244
 -16868452.43844 -13144241.51944  20670056.6394   20670056.0914
   6074266.69944   4733191.18244  25030540.5784
  -8987593.17244  -7003313.91844  23608982.4314   23608982.6114
 -12042218.57644  -9383541.12744  21976908.0414   21976908.9404
 96  2 17  1 35  0.0000000  0  8G 2G 9G12G 7G 4G26G 5G24
   7274489.89744   5668433.01144  23018138.9594   23018140.1474
 -14444590.91844 -11255521.02744  21138443.8554   21138443.3174
  -3938059.017 4  -3068615.072 4  22096143.408    22096142.025
 -10680783.54244  -8322679.03244  21673456.1804   21673456.1654
 -16889981.51144 -13161017.40844  20665960.0194   20665959.3334
   6146118.36844                  25044212.6554
  -9070395.02744  -7067834.81944  23593225.7504   23593225.1724
 -12129834.40544  -9451813.18144  21960235.4234   21960235.9744
 96  2 17  1 35 30.0000000  0  8G 2G 9G12G 7G 4G26G 5G24
   7342217.52244   5721207.76344  23031027.4404   23031028.0944
 -14467644.80144 -11273485.08944  21134056.8294   21134056.2244
  -3865156.264 4  -3011807.749 4  22110016.364    22110014.807
 -10620055.22644  -8275358.26844  21685012.6524   21685012.3334
 -16910911.77844 -13177326.69244  20661976.8404   20661976.0594
   6217972.01544                  25057885.1934
  -9153149.26244  -7132318.61044  23577477.2034   23577476.8024
 -12217083.05144  -9519799.11444  21943632.3884   21943633.0984
 96  2 17  1 36  0.0000000  0  8G 2G 9G12G 7G 4G26G 5G24
   7410224.00944   5774199.83544  23043968.2534   23043969.7754
 -14490129.84344 -11291005.89844  21129778.5084   21129777.9594
  -3791882.283 4  -2954711.162 4  22123960.060    22123958.334
 -10559195.19544  -8227934.86544  21696594.1784   21696593.7414
 -16931263.59544 -13193185.23844  20658104.4274   20658103.5754
   6289790.57044   4901131.78344  25071551.9214
  -9235881.07344  -7196784.95044  23561734.9594   23561731.9574
 -12303985.15744  -9587515.02044  21927096.0404   21927096.1584
 96  2 17  1 36 30.0000000  0  8G 2G 9G12G 7G 4G26G 5G24
   7478470.92244   5827379.22844  23056955.6064   23056958.6974
 -14512088.95544 -11308116.89044  21125599.5144   21125598.7694
  -3718271.187 4  -2897351.887 4  22137967.906    22137966.060
 -10498253.89944  -8180448.14544  21708191.0104   21708190.6894
 -16951047.96344 -13208601.61244  20654339.4314   20654338.5454
   6361519.89544   4957024.69644  25085203.2484   25085208.1184
  -9318625.40244  -7261261.05444  23545989.5514   23545989.6334
 -12390546.30244  -9654965.24344  21910623.6944   21910624.0594
 96  2 17  1 37  0.0000000  0  8G 2G 9G12G 7G 4G26G 5G24
   7546950.69144   5880740.04344  23069986.8354   23069988.2674
 -14533540.76944 -11324832.59044  21121517.5694   21121516.8334
  -3644337.871 4  -2839741.536 4  22152036.806    22152035.226
 -10437251.19244  -8132913.56244  21719799.2914   21719799.2904
 -16970261.32044 -13223573.04444  20650683.1414   20650682.5294
   6433149.56144   5012839.97644  25098834.9734   25098834.6444
  -9401396.67444  -7325758.12344  23530238.8934   23530238.5544
 -12476777.77144  -9722158.56144  21894214.4054   21894215.1584
 96  2 17  1 37 30.0000000  0  8G 2G 9G12G 7G 4G26G 5G24
   7615666.59744   5934284.87544  23083063.3354   23083064.0504
 -14554463.55844 -11341136.06144  21117535.9904   21117535.3114
  -3570063.878 4  -2781865.717 4  22166170.781    22166169.167
 -10376169.91444  -8085317.76844  21731422.6624   21731422.1794
 -16988878.37044 -13238079.82144  20647140.6924   20647139.9014
   6504711.23644   5068602.32844  25112453.9614   25112452.4394
  -9484187.18344  -7390270.15744  23514484.2114   23514484.0164
 -12562654.28644  -9789075.30144  21877872.1424   21877872.9724
 96  2 17  1 38  0.0000000  0  8G 2G 9G12G 7G 4G26G 5G24
   7684610.60344   5988007.44144  23096183.4054   23096184.6844
 -14574837.84044 -11357012.12444  21113658.7174   21113657.7494
  -3495437.474 4  -2723715.293 4  22180371.575    22180370.211
 -10314991.30344  -8037646.12344  21743064.5514   21743064.6424
 -17006891.02344 -13252115.64244  20643712.5094   20643712.0034
   6576213.16144   5124318.08644  25126056.7664
  -9566987.42844  -7454789.81244  23498728.6354   23498727.1184
 -12648152.66644  -9855697.38944  21861602.6754   21861603.4344
 96  2 17  1 38 30.0000000  0  7G 2G 9G12G 7G 4G 5G24
   7753796.60144   6041918.58344  23109349.0984   23109350.5464
 -14594653.65644 -11372453.02044  21109887.8964   21109887.1764
  -3420445.002 4  -2665279.620 4  22194642.173    22194640.786
 -10253700.37244  -7989886.96644  21754727.3464   21754727.6424
 -17024293.98244 -13265676.37244  20640401.0604   20640400.6714
  -9649779.39344  -7519303.05344  23482972.9524   23482971.9724
 -12733274.61844  -9922026.15944  21845403.9464   21845404.9604
 96  2 17  1 39  0.0000000  0  8G 2G 9G12G 7G 4G26G 5G24
   7823205.33144   6096003.28444  23122557.1214   23122558.5204
 -14613920.98844 -11387466.52144  21106221.4904   21106220.6524
  -3345096.327 4  -2606566.386 4  22208980.503    22208979.159
 -10192287.10244  -7942032.47844  21766414.0214   21766414.2184
 -17041109.13944 -13278779.07944  20637201.4054   20637200.5444
        -0.88754         0.25754  25153243.6824   25153245.1094
  -9732546.94944  -7583797.24344  23467222.3504   23467223.4914
 -12818058.78644  -9988091.71844  21829269.7204   21829270.9684
 96  2 17  1 39 30.0000000  0  8G 2G 9G12G 7G 4G26G 5G24
   7892840.04544   6150264.05544  23135807.7914   23135807.9404
 -14632624.41744 -11402040.61844  21102662.3424   21102661.8984
  -3269381.449 4  -2547567.801 4  22223388.731    22223387.172
 -10130740.39744  -7894074.00744  21778126.4474   21778126.5894
 -17057334.11544 -13291421.90644  20634113.8644   20634112.8924
     71338.04944     55589.02644  25166821.1224   25166820.5304
  -9815273.59444  -7648259.52844  23451478.7124   23451480.8454
 -12902504.07244 -10053893.21744  21813200.9704   21813202.0144
 96  2 17  1 40  0.0000000  0  8G 2G 9G12G 7G 4G26G 5G24
   7962721.15344   6204716.81944  23149105.8324   23149107.4754
 -14650755.16044 -11416168.46244  21099212.3044   21099211.8094
  -3193289.772 4  -2488275.603 4  22237868.550    22237866.893
 -10069059.93544  -7846011.31044  21789864.1444   21789864.0754
 -17072959.67044 -13303597.64844  20631140.2784   20631139.5874
    142597.91344    111116.22044  25180382.0794   25180380.3544
  -9897936.10544  -7712671.81144  23435748.5054   23435750.6054
 -12986605.74944 -10119426.96844  21797197.1184   21797198.1184
 96  2 17  1 40 30.0000000  0  8G 2G 9G12G 7G 4G26G 5G24
   8032878.14944   6259384.59144  23162456.0344   23162456.9724
 -14668320.86244 -11429856.02244  21095869.7164   21095869.1104
  -3116818.051 4  -2428687.269 4  22252420.464    22252418.869
 -10007249.58644  -7797847.40544  21801625.6054   21801625.6984
 -17087976.43444 -13315299.01144  20628282.4074   20628281.7384
    213780.24344    166582.96744  25193926.6224   25193924.7504
  -9980524.30944  -7777026.23244  23420033.5254   23420032.6054
 -13070370.27344 -10184698.01444  21781256.9724   21781257.7944
 96  2 17  1 41  0.0000000  0  8G 2G 9G12G 7G 4G26G 5G24
   8103312.10444   6314268.16144  23175859.7204   23175859.7154
 -14685322.75444 -11443104.24744  21092634.0694   21092633.3564
  -3039977.864 4  -2368811.819 4  22267042.740    22267041.158
  -9945315.79544  -7749587.31544  21813411.6904   21813411.9194
 -17102383.12644 -13326524.98844  20625541.4414   20625540.6194
    284870.05944    221977.59944  25207448.5224
 -10063062.07244  -7841341.36244  23404326.8144   23404327.4324
 -13153785.16644 -10249696.60944  21765383.9754   21765384.3874
 96  2 17  1 41 30.0000000  0  8G 2G 9G12G 7G 4G26G 5G24
   8174000.29244   6369349.84844  23189311.2514   23189312.5984
 -14701790.74544 -11455936.44544  21089500.2384   21089499.2254
  -2962808.879 4  -2308680.159 4  22281727.644    22281726.159
  -9883300.78444  -7701263.93644  21825212.5884   21825212.7754
 -17116212.70344 -13337301.26744  20622909.5694   20622908.5084
    355838.79744    277277.95344  25220954.7184   25220956.1314
 -10145617.28544  -7905670.04744  23388616.9634   23388617.7264
 -13236856.89544 -10314427.81844  21749575.6784   21749576.3644
 96  2 17  1 42  0.0000000  0  8G 2G 9G12G 7G 4G26G 5G24
   8244945.94144   6424632.15444  23202810.9904   23202812.2294
 -14717729.24744 -11468356.06244  21086467.4754   21086466.7804
  -2885313.136 4  -2248293.883 4  22296474.539    22296473.130
  -9821196.45744  -7652870.95544  21837030.5674   21837030.4184
 -17129458.52544 -13347622.67344  20620388.8244   20620388.2204
    426706.87744    332499.64144  25234444.2054   25234443.5614
 -10228190.77244  -7970013.03044  23372903.9064   23372904.4074
 -13319568.02644 -10378878.02544  21733836.3644   21733836.8854
 96  2 17  1 42 30.0000000  0  8G 2G 9G12G 7G 4G26G 5G24
   8316196.35744   6480151.94444  23216369.8454   23216371.5644
 -14733067.91244 -11480308.26544  21083548.6784   21083548.0024
  -2807435.588 4  -2187610.094 4  22311294.146    22311292.692
  -9758935.68244  -7604356.06644  21848878.4204   21848878.4194
 -17142065.75044 -13357446.46844  20617989.8684   20617989.1644
    497548.60344    387701.04644  25247926.0534   25247925.4454
 -10310732.99044  -8034331.57344  23357197.3284   23357196.0924
 -13401865.47144 -10443005.89744  21718175.2844   21718176.1154
 96  2 17  1 43  0.0000000  0  8G 2G 9G12G 7G 4G26G 5G24
   8387705.98644   6535873.68844  23229978.4304   23229979.0774
 -14747815.60644 -11491799.97844  21080742.3644   21080741.6114
  -2729203.208 4  -2126649.813 4  22326181.286    22326179.717
  -9696544.40844  -7555739.49444  21860751.3564   21860750.8514
 -17154069.86744 -13366800.31144  20615705.2194   20615704.5694
    568340.75544    442863.79344  25261398.2764   25261393.9934
 -10393272.71744  -8098648.20244  23341490.1994   23341489.7054
 -13483765.40444 -10506824.01144  21702590.7224   21702591.4874
 96  2 17  1 43 30.0000000  0  8G 2G 9G12G 7G 4G26G 5G24
   8459408.57144   6591745.81044  23243621.9784   23243623.3844
 -14762023.91544 -11502871.38444  21078038.7624   21078037.9674
  -2650670.808 4  -2065455.750 4  22341125.513    22341123.870
  -9634089.82244  -7507073.57844  21872635.8904   21872635.9634
 -17165534.08144 -13375733.44944  20613523.7284   20613523.0594
    639020.00044    497938.57944  25274847.6194   25274848.7044
 -10475852.36044  -8162995.94544  23325775.5914   23325775.1914
 -13565335.87344 -10570385.39344  21687067.6054   21687068.7754
 96  2 17  1 44  0.0000000  0  8G 2G 9G12G 7G 4G26G 5G24
   8531314.88644   6647776.68644  23257304.4834   23257306.7504
 -14775669.12544 -11513504.01844  21075441.6014   21075441.0374
  -2571815.078 4  -2004009.741 4  22356131.182    22356129.594
  -9571548.90044  -7458340.39044  21884536.7654   21884536.7484
 -17176432.13444 -13384225.42444  20611449.9564   20611449.2004
    709584.43444    552923.88644  25288272.3424   25288277.2594
 -10558429.36744  -8227341.62844  23310061.7064   23310061.9394
 -13646576.60444 -10633689.84244  21671608.1464   21671609.2554
 96  2 17  1 44 30.0000000  0  8G 2G 9G12G 7G 4G26G 5G24
   8603434.84144   6703974.02944  23271029.7074   23271030.0694
 -14788743.18644 -11523691.59844  21072954.0614   21072953.3464
  -2492626.061 4  -1942304.025 4  22371200.377    22371198.835
  -9508927.87644  -7409544.79644  21896453.1834   21896453.1174
 -17186753.89444 -13392268.33844  20609485.7534   20609485.0524
    780030.40044                  25301672.9774
 -10640995.05144  -8291678.49444  23294350.1714   23294349.3194
 -13727471.01544 -10696724.43044  21656215.0144   21656215.8874
 96  2 17  1 45  0.0000000  0  8G 2G 9G12G 7G 4G26G 5G24
   8675819.66344   6760377.78344  23284803.9384   23284804.8004
 -14801237.81944 -11533427.67944  21070576.2974   21070575.5674
  -2413069.165 4  -1880311.655 4  22386339.495    22386337.953
  -9446189.75744  -7360657.95944  21908391.8464   21908392.2804
 -17196455.79844 -13399828.24844  20607639.8084   20607638.7464
    850375.34644    662630.87344  25315065.0714   25315069.5944
 -10723511.98344  -8355977.37344  23278647.8954   23278647.5814
 -13807965.46044 -10759447.35444  21640897.1604   21640898.3084
 96  2 17  1 45 30.0000000  0  8G 2G 9G12G 7G 4G26G 5G24
   8748466.50544   6816985.66744  23298628.4414   23298628.9684
 -14813175.89844 -11542730.07644  21068304.7014   21068304.1894
  -2333156.257 4  -1818041.874 4  22401546.530    22401544.887
  -9383347.59144  -7311690.03644  21920350.2604   21920350.4534
 -17205540.02544 -13406906.85544  20605910.9944   20605910.3514
    920596.14844    717348.36344  25328431.4184   25328430.1504
 -10805982.73544  -8420240.26644  23262954.0294   23262953.6174
 -13888071.50744 -10821867.62944  21625653.7624   21625654.3944
 96  2 17  1 46  0.0000000  0  8G 2G 9G12G 7G 4G26G 5G24
   8821398.90644   6873816.11344  23312506.9254   23312507.3314
 -14824544.97644 -11551589.10244  21066141.2004   21066140.6874
  -2252876.331 4  -1755486.104 4  22416823.162    22416821.552
  -9320391.34344  -7262633.22444  21932330.7434   21932330.5864
 -17213981.78444 -13413484.83344  20604304.5314   20604303.8174
    990719.29444    771989.81544  25341775.5204
 -10888390.37544  -8484453.97244  23247272.8574   23247272.1194
 -13967764.75944 -10883966.24644  21610488.6064   21610489.1254
 96  2 17  1 46 30.0000000  0  8G 2G 9G12G 7G 4G26G 5G24
   8894620.45744   6930871.85044  23326440.4384   23326441.8534
 -14835349.99044 -11560008.59344  21064085.2364   21064084.4994
  -2172235.528 4  -1692649.130 4  22432168.678    22432167.054
  -9257330.63744  -7213495.01144  21944330.6374   21944330.2774
 -17221791.79344 -13419570.54144  20602818.4114   20602817.6224
   1060759.91144                  25355104.0114
 -10970741.10744  -8548623.35844  23231601.8064   23231600.1984
 -14047031.21744 -10945732.30144  21595404.5674   21595405.2174
 96  2 17  1 47  0.0000000  0  7G 2G 9G12G 7G 4G 5G24
   8968110.63144   6988136.89144  23340425.5944   23340427.3094
 -14845595.89744 -11567992.41744  21062135.2564   21062134.7524
  -2091257.796 4  -1629549.617 4  22447578.389    22447576.686
  -9194168.48544  -7164277.75244  21956350.1094   21956349.9724
 -17228990.95644 -13425180.26444  20601448.4184   20601447.7334
 -11053051.26344  -8612761.12744  23215939.0274   23215939.3294
 -14125903.48244 -11007191.18344  21580395.9434   21580396.5274
 96  2 17  1 47 30.0000000  0  7G 2G 9G12G 7G 4G 5G24
   9041832.93244   7045582.81844  23354454.7104   23354455.2654
 -14855281.72844 -11575539.82044  21060291.9474   21060291.3524
  -2009966.127 4  -1566205.473 4  22463047.690    22463046.090
  -9130943.19644  -7115011.29444  21968381.5814   21968381.5974
 -17235609.30644 -13430337.40744  20600188.8934   20600187.8734
 -11135340.50344  -8676882.57344  23200279.0884   23200280.2814
 -14204413.58644 -11068367.86844  21565455.2764   21565456.0734
 96  2 17  1 48  0.0000000  0  7G 2G 9G12G 7G 4G 5G24
   9115793.61544   7103214.50344  23368528.0894   23368529.0194
 -14864393.40044 -11582639.83244  21058558.1864   21058557.3734
  -1928352.304 4  -1502610.305 4  22478578.413    22478576.669
  -9067641.74644  -7065685.49144  21980427.3924   21980427.0454
 -17241640.04244 -13435036.66744  20599041.2224   20599040.6064
 -11217607.63144  -8740986.78144  23184624.2574   23184625.4384
 -14282547.84244 -11129251.68144  21550587.1734   21550587.7444
 96  2 17  1 48 30.0000000  0  7G 2G 9G12G 7G 4G 5G24
   9189995.64444   7161034.24944  23382648.5344   23382650.4044
 -14872927.80944 -11589290.01644  21056934.1894   21056933.6194
  -1846412.882 4  -1438761.421 4  22494170.901    22494169.223
  -9004249.53144  -7016288.95944  21992490.2384   21992490.3084
 -17247091.71344 -13439284.70744  20598004.0654   20598003.0284
 -11299851.90044  -8805073.20744  23168973.4444   23168972.7714
 -14360293.04744 -11189832.34144  21535792.7044   21535793.5154
 96  2 17  1 49  0.0000000  0  8G 2G 9G12G 7G 4G26G 5G24
   9264462.58944   7219060.41444  23396819.5214   23396819.9454
 -14880874.35544 -11595482.13344  21055422.1924   21055421.5994
  -1764126.985 4  -1374642.558 4  22509829.415    22509827.770
  -8940748.71044  -6966807.80644  22004574.3264   22004574.4614
 -17251941.66744 -13443063.87644  20597080.8804   20597080.0474
        -0.05454         0.34954  25421423.5584
 -11382057.22044  -8869129.28344  23153330.4234   23153329.8314
 -14437621.32344 -11250088.12844  21521077.8254   21521078.2634
 96  2 17  1 49 30.0000000  0  8G 2G 9G12G 7G 4G26G 5G24
   9339176.10644   7277278.74144  23411036.1784   23411037.7524
 -14888258.42944 -11601235.95944  21054016.8514   21054016.4634
  -1681504.697 4  -1310261.571 4  22525551.906    22525550.203
  -8877169.84344  -6917265.83644  22016673.0404   22016672.5644
 -17256202.86544 -13446384.27844  20596270.0334   20596269.3614
     69342.81344                  25434619.5674
 -11464232.83344  -8933162.19244  23137692.8684   23137692.2784
 -14514529.75444 -11310016.75544  21506442.3764   21506443.0364
 96  2 17  1 50  0.0000000  0  7G 2G 9G12G 7G 4G 5G24
   9414133.06244   7335686.74244  23425300.7984   23425301.6904
 -14895106.05544 -11606571.77344  21052713.7334   21052713.2414
  -1598560.454 4  -1245629.709 4  22541335.655    22541334.151
  -8813505.28444  -6867657.07844  22028787.8564   22028788.2664
 -17259877.51244 -13449247.62544  20595570.8054   20595570.1774
 -11546387.20944  -8997178.56144  23122059.7624   23122059.7504
 -14591015.29044 -11369615.84744  21491887.5924   21491888.2784
 96  2 17  1 50 30.0000000  0  7G 2G 9G12G 7G 4G 5G24
   9489323.96844   7394277.03644  23439609.0364   23439610.1414
 -14901431.42544 -11611500.63444  21051510.2714   21051509.7244
  -1515300.941 4  -1180752.180 4  22557179.465    22557177.943
  -8749769.80744  -6817993.07444  22040916.5974   22040916.3804
 -17262974.93044 -13451661.18644  20594981.2254   20594980.3734
 -11628521.05644  -9061178.92544  23106430.2064   23106429.9544
 -14667080.66744 -11428887.55044  21477412.9114   21477413.8634
 96  2 17  1 51  0.0000000  0  7G 2G 9G12G 7G 4G 5G24
   9564743.70044   7453045.62844  23453961.3944   23453962.3194
 -14907227.18644 -11616016.81244  21050407.3534   21050406.3814
  -1431720.431 4  -1115624.526 4  22573084.466    22573082.676
  -8685972.71444  -6768281.04944  22053056.5264   22053056.7204
 -17265480.92844 -13453613.89844  20594504.4704   20594503.5534
 -11710619.06144  -9125151.37644  23090807.0334   23090805.2384
 -14742731.63044 -11487836.33044  21463016.9614   21463017.7594
 96  2 17  1 51 30.0000000  0  7G 2G 9G12G 7G 4G 5G24
   9640396.31944   7511995.71344  23468356.9124   23468358.3944
 -14912455.71544 -11620090.99544  21049412.3274   21049411.4964
  -1347811.299 4  -1050240.806 4  22589051.685    22589050.042
  -8622094.10844  -6718505.51544  22065212.4964   22065212.2304
 -17267382.65344 -13455095.74644  20594142.7754   20594141.7614
 -11792659.29744  -9189078.82344  23075195.6264   23075194.7534
 -14817972.22544 -11546465.34144  21448699.1084   21448700.0874
 96  2 17  1 52  0.0000000  0  7G 2G 9G12G 7G 4G 5G24
   9716300.61144   7571141.90744  23482800.8774   23482802.7954
 -14917103.63944 -11623712.75744  21048527.9064   21048527.0084
  -1263569.323 4   -984597.721 4  22605082.462    22605080.802
  -8558124.17044  -6668658.80144  22077385.5354   22077385.6354
 -17268680.46644 -13456107.01544  20593895.4594   20593894.8554
 -11874635.60644  -9252956.44244  23059596.3144   23059595.1454
 -14892799.27744 -11604772.10644  21434460.1374   21434461.0064
 96  2 17  1 52 30.0000000  0  7G 2G 9G12G 7G 4G 5G24
   9792447.85144   7630477.38744  23497291.6974   23497293.3174
 -14921159.48244 -11626873.15244  21047756.0654   21047755.4974
  -1178999.381 4   -918699.081 4  22621175.710    22621174.006
  -8494085.81844  -6618758.78344  22089571.4364   22089570.8044
 -17269385.78044 -13456656.59644  20593761.2614   20593760.6304
 -11956545.74944  -9316782.48644  23044010.0054   23044008.5364
 -14967226.48344 -11662767.31344  21420296.8554   21420297.7104
 96  2 17  1 53  0.0000000  0  7G 2G 9G12G 7G 4G 5G24
   9868837.92044   7690002.10144  23511827.9584   23511829.4004
 -14924618.14544 -11629568.21844  21047097.6054   21047097.0454
  -1094108.255 4   -852550.168 4  22637330.064    22637328.195
  -8429972.10344  -6568800.04144  22101771.7544   22101771.9434
 -17269498.80544 -13456744.65444  20593740.2204   20593739.4174
 -12038392.33144  -9380559.01844  23028434.1944   23028433.8004
 -15041263.76844 -11720458.68144  21406208.3774   21406208.9314
 96  2 17  1 53 30.0000000  0  7G 2G 9G12G 7G 4G 5G24
   9945466.28844   7749712.51344  23526410.5494   23526410.9154
 -14927503.18644 -11631816.30444  21046548.5104   21046548.2914
  -1008909.143 4   -786161.264 4  22653542.842    22653541.181
  -8365780.78344  -6518780.84144  22113987.1084   22113986.8804
 -17269032.41044 -13456381.21544  20593828.6734   20593827.7014
 -12120193.41344  -9444300.09944  23012867.6284   23012867.7414
 -15114922.91144 -11777855.39344  21392191.3894   21392191.9774
 96  2 17  1 54  0.0000000  0  7G 2G 9G12G 7G 4G 5G24
  10022343.59844   7809616.87444  23541039.7534   23541040.8894
 -14929835.51144 -11633633.70044  21046104.8384   21046104.4504
   -923394.504 4   -719526.497 4  22669815.732    22669814.048
  -8301513.84444  -6468702.69644  22126216.4774   22126217.0134
 -17267982.00744 -13455562.70944  20594028.5064   20594027.4824
 -12201951.46144  -9508007.65744  22997309.3764   22997309.0414
 -15188187.99044 -11834945.04044  21378249.3434   21378249.9474
 96  2 17  1 54 30.0000000  0  7G 2G 9G12G 7G 4G 5G24
  10099455.15644   7869703.77144  23555713.6524   23555713.0644
 -14931620.84044 -11635024.86844  21045765.4984   21045764.9174
   -837571.696 4   -652651.595 4  22686147.163    22686145.533
  -8237165.69344  -6418561.28144  22138461.5094   22138461.4344
 -17266351.83744 -13454292.43144  20594338.5234   20594337.8344
 -12283675.54544  -9571688.73744  22981757.9254   22981758.3494
 -15261069.83144 -11891736.06344  21364380.5414   21364381.1764
 96  2 17  1 55  0.0000000  0  7G 2G 9G12G 7G 4G 5G24
  10176804.95944   7929976.32644  23570432.6714   23570433.9344
 -14932863.82644 -11635993.42644  21045528.5464   21045527.7284
   -751442.444 4   -585537.909 4  22702537.139    22702535.288
  -8172718.35944  -6368342.58244  22150725.5354   22150725.1254
 -17264146.53144 -13452574.00044  20594758.2634   20594757.0204
 -12365368.87544  -9635345.85644  22966211.6284   22966212.2104
 -15333560.54744 -11948222.30944  21350585.8064   21350586.5194
 96  2 17  1 55 30.0000000  0  7G 2G 9G12G 7G 4G 5G24
  10254396.77044   7990437.44244  23585197.5004   23585198.5504
 -14933556.76844 -11636533.38644  21045396.8354   21045396.2064
   -665003.857 4   -518183.186 4  22718985.890    22718984.122
  -8108177.91744  -6318051.32744  22163007.3224   22163006.7964
 -17261363.44744 -13450405.34844  20595287.7294   20595287.1804
 -12447026.43444  -9698975.10244  22950672.6574   22950673.3854
 -15405637.90844 -12004386.46244  21336869.7684   21336870.4634
 96  2 17  1 56  0.0000000  0  7G 2G 9G12G 7G 4G 5G24
  10332254.25744   8051105.59644  23600013.5464   23600014.0504
 -14933654.24944 -11636609.34444  21045378.2384   21045377.5014
   -578238.623 4   -450573.925 4  22735496.699    22735495.046
  -8043536.86244  -6267681.65944  22175307.6814   22175306.6244
 -17257980.83244 -13447769.53344  20595931.6094   20595930.6584
 -12528619.89344  -9762554.40044  22935145.6714   22935145.4674
 -15477263.77344 -12060198.79944  21323240.0714   21323240.7144
 96  2 17  1 56 30.0000000  0  7G 2G 9G12G 7G 4G 5G24
  10410340.89944   8111952.28144  23614872.8204   23614875.3124
 -14933166.44044 -11636229.23744  21045471.1914   21045470.5194
   -491182.074 4   -382737.668 4  22752062.965    22752061.202
  -7978826.51444  -6217258.01344  22187622.1154   22187621.6274
 -17254018.78244 -13444682.20944  20596685.5634   20596684.7684
 -12610164.39244  -9826095.55644  22919629.0474   22919628.7864
 -15548467.06144 -12115681.85244  21309690.6834   21309691.7384
 96  2 17  1 57  0.0000000  0  7G 2G 9G12G 7G 4G 5G24
  10488648.23344   8172971.00644  23629774.0094   23629773.8654
 -14932096.60544 -11635395.59944  21045674.7174   21045674.4164
   -403837.816 4   -314677.228 4  22768683.802    22768682.269
  -7914067.85944  -6166796.71244  22199944.9434   22199944.9734
 -17249468.49344 -13441136.51744  20597551.5204   20597550.6654
 -12691663.03644  -9889600.97344  22904121.1634   22904120.5954
 -15619233.60644 -12170824.59344  21296224.0394   21296224.7134
 96  2 17  1 57 30.0000000  0  7G 2G 9G12G 7G 4G 5G24
  10567170.97544   8234157.49844  23644716.2314   23644719.3784
 -14930442.53044 -11634106.71244  21045989.6874   21045989.0454
   -316204.816 4   -246391.784 4  22785359.838    22785358.330
  -7849274.11644  -6116308.08644  22212275.1534   22212275.1204
 -17244315.45744 -13437121.15344  20598531.9554   20598531.2234
 -12773120.19744  -9953074.05144  22888620.2494   22888619.9054
 -15689563.76744 -12225627.28344  21282840.8984   21282841.5414
 96  2 17  1 58  0.0000000  0  7G 2G 9G12G 7G 4G 5G24
  10645919.88744   8295520.23844  23659703.1054   23659703.7094
 -14928197.30744 -11632357.18744  21046416.8384   21046416.3194
   -228262.784 4   -177865.546 4  22802094.846    22802093.240
  -7784419.22244  -6065771.80844  22224616.1634   22224616.2904
 -17238534.42844 -13432616.44244  20599632.2654   20599631.2244
 -12854513.43144 -10016497.32044  22873131.8094   22873130.8134
 -15759449.10844 -12280083.36944  21269541.8594   21269542.3984
 96  2 17  1 58 30.0000000  0  7G 2G 9G12G 7G 4G 5G24
  10724881.10544   8357048.46244  23674728.3344   23674727.9874
 -14925381.55444 -11630163.09844  21046952.4134   21046951.7914
   -140012.792 4   -109099.332 4  22818888.190    22818886.467
  -7719490.53444  -6015178.02044  22236971.6684   22236972.0454
 -17232137.12944 -13427631.52444  20600849.4154   20600848.6664
 -12935845.38244 -10079872.85244  22857654.0424   22857654.6834
 -15828892.74744 -12334195.26944  21256327.2904   21256327.9124
 96  2 17  1 59  0.0000000  0  7G 2G 9G12G 7G 4G 5G24
  10804057.95844   8418744.66644  23689794.6274   23689797.7914
 -14922004.81244 -11627531.86644  21047595.1654   21047594.2894
    -51455.062 4    -40093.323 4  22835740.180    22835738.552
  -7654483.46544  -5964523.15644  22249342.7424   22249343.0764
 -17225134.49444 -13422174.91044  20602181.9944   20602181.2074
 -13017122.18444 -10143205.41644  22842187.1574   22842187.7474
 -15897881.50344 -12387952.71344  21243198.7934   21243199.2394
 96  2 17  1 59 30.0000000  0  7G 2G 9G12G 7G 4G 5G24
  10883482.28544   8480633.75144  23704908.7074   23704907.2194
 -14918049.20844 -11624449.57744  21048348.0064   21048347.1554
     37429.940 4     29167.704 4  22852654.409    22852652.874
  -7589370.42344  -5913785.71544  22261733.1684   22261732.9334
 -17217509.49444 -13416233.33944  20603632.9514   20603632.1404
 -13098310.17244 -10206468.75844  22826737.7134   22826738.2464
 -15966404.41044 -12441347.15944  21230159.5834   21230160.1734
 96  2 17  2  0  0.0000000  0  7G 2G 9G12G 7G 4G 5G24
  10963170.93944   8542728.76944  23720071.9074
 -14913511.34244 -11620913.58344  21049211.2464   21049210.6564
    126646.987 4     98687.470 4  22869632.019    22869630.469
  -7524143.19844  -5862959.29744  22274145.4064   22274145.8744
 -17209270.13944 -13409813.04844  20605200.9434   20605200.0324
 -13179387.90944 -10269646.19744  22811309.4434   22811309.8454
 -16034449.36644 -12494369.17744  21217210.8064   21217211.4334
 96  2 17  2  0 30.0000000  0  7G 2G 9G12G 7G 4G 5G24
  11043130.37344   8605034.82244  23735288.1394
 -14908393.95144 -11616926.00544  21050185.3394   21050184.8434
    216181.126 4    168454.318 4  22886669.900    22886668.197
  -7458818.33744  -5812056.80844  22286576.2234   22286576.4084
 -17200439.93244 -13402932.35744  20606881.1704   20606880.6004
 -13260364.17944 -10332744.55644  22795900.0584   22795899.8504
 -16102016.66544 -12547018.99644  21204353.5714   21204354.0964
 96  2 17  2  1  0.0000000  0  7G 2G 9G12G 7G 4G 5G24
  11123366.85444                  23750557.5214
 -14902686.18544 -11612478.39844  21051271.8164   21051270.7064
    306034.600 4    238469.997 4  22903768.394    22903766.794
  -7393396.40444  -5761078.67844  22299025.6904   22299025.0004
 -17191005.26044 -13395580.65144  20608676.3914   20608675.5454
 -13341236.98144 -10395762.30044  22780510.5254   22780509.9254
 -16169110.18644 -12599299.64244  21191585.8624   21191586.2354
 96  2 17  2  1 30.0000000  0  7G 2G 9G12G 7G 4G 5G24
  11203846.50144                  23765872.5934
 -14896436.96744 -11607608.87544  21052460.8324   21052460.1964
    396168.737 4    308704.385 4  22920920.370    22920918.839
  -7327922.57544  -5710060.10344  22311484.5894   22311484.3504
 -17181005.96544 -13387788.98244  20610579.3284   20610578.4124
 -13422039.26944 -10458725.10244  22765135.0164   22765134.0004
 -16235786.61044 -12651255.26844  21178897.7644   21178898.1984
 96  2 17  2  2  0.0000000  0  7G 2G 9G12G 7G 4G 5G24
  11284551.13844   8793154.85844  23781229.9284
 -14889669.88344 -11602335.82344  21053748.5064   21053747.8714
    486563.358 4    379141.741 4  22938121.961    22938120.194
  -7262405.76944  -5659008.04544  22323952.1784   22323952.5524
 -17170476.41044 -13379584.11844  20612582.9894   20612582.1234
 -13502800.26344 -10521655.72344  22749767.1004   22749765.7404
 -16302052.93544 -12702891.34344  21166287.7914   21166288.5814
 96  2 17  2  2 30.0000000  0  7G 2G 9G12G 7G 4G 5G24
  11365491.20844                  23796632.2804
 -14882364.03744 -11596642.95444  21055138.6504   21055138.1504
    577234.972 4    449794.937 4  22955376.190    22955374.476
  -7196828.26944  -5607908.69244  22336431.3494   22336431.1854
 -17159393.73644 -13370948.25844  20614691.9564   20614690.9504
 -13583508.65444 -10584545.35444  22734407.9364   22734408.1984
 -16367895.24144 -12754197.01344  21153758.5594   21153758.9554
 96  2 17  2  3  0.0000000  0  8G 2G 9G12G 7G 4G20G 5G24
  11446672.76144                  23812080.3634
 -14874514.01044 -11590526.05144  21056632.3974   21056631.5794
    668191.992 4    520670.526 4  22972684.563    22972683.021
  -7131188.09244  -5556760.50544  22348922.6284   22348922.2574
 -17147735.94244 -13361864.25044  20616910.4514   20616909.4324
        -0.41354                  25215817.5064
 -13664159.85844 -10647390.41844  22719060.4644   22719060.1904
 -16433313.64744 -12805172.37144  21141309.5604   21141309.9804
 96  2 17  2  3 30.0000000  0  8G 2G 9G12G 7G 4G20G 5G24
  11528083.38244                  23827572.6794
 -14866145.57344 -11584005.19144  21058224.7334   21058223.9674
    759403.713 4    591744.587 4  22990041.410    22990040.131
  -7065521.59644  -5505591.79844  22361417.2514   22361417.8554
 -17135536.30544 -13352358.02744  20619231.9084   20619231.1544
    -95154.67344                  25197712.9024
 -13744782.67044 -10710213.37844  22703718.1524   22703717.8564
 -16498321.14544 -12855827.54144  21128939.0684   21128939.5054
 96  2 17  2  4  0.0000000  0  8G 2G 9G12G 7G 4G20G 5G24
  11609707.10744                  23843104.8914
 -14857228.11444 -11577056.52344  21059921.8194   21059921.1894
    850867.884 4    663015.363 4  23007446.626    23007445.041
  -6999826.70244  -5454400.98444  22373919.0774   22373920.0974
 -17122797.81344 -13342431.91744  20621655.8424   20621654.7174
   -190403.00244   -148364.48844  25179588.0354
 -13825374.11944 -10773011.89944  22688381.7124   22688382.0644
 -16562894.78244 -12906144.63744  21116651.0144   21116651.5684
 96  2 17  2  4 30.0000000  0  8G 2G 9G12G 7G 4G20G 5G24
  11691546.04944                  23858678.3744
 -14847723.30144 -11569650.17444  21061730.2074   21061729.8634
    942603.804 4    734497.890 4  23024903.652    23024901.765
  -6934101.89244  -5403186.84344  22386426.3254   22386426.2134
 -17109476.81044 -13332051.90244  20624190.8474   20624189.9164
   -285735.53044                  25161444.4514
 -13905901.42844 -10835760.42344  22673058.2314   22673057.6834
 -16627017.98344 -12956110.74444  21104448.7494   21104449.4034
 96  2 17  2  5  0.0000000  0  8G 2G 9G12G 7G 4G20G 5G24
  11773592.74444                  23874290.4004
 -14837632.39244 -11561787.13244  21063650.8144   21063650.2554
   1034607.050 4    806188.717 4  23042411.373    23042409.437
  -6868344.74444  -5351947.49944  22398939.7064   22398940.1044
 -17095574.55344 -13321218.96344  20626836.4904   20626835.3084
   -381153.69844                  25143285.4214
 -13986365.92244 -10898460.00944  22657746.4984   22657745.4634
 -16690684.53944 -13005721.02144  21092333.0814   21092333.7594
 96  2 17  2  5 30.0000000  0  8G 2G 9G12G 7G 4G20G 5G24
  11855860.39444                  23889945.7814
 -14826928.57744 -11553446.49644  21065687.5684   21065686.8364
   1126898.788 4    878104.340 4  23059973.855    23059971.947
  -6802529.11444  -5300662.59444  22411463.8104   22411463.5414
 -17081082.85544 -13309926.71944  20629593.9604   20629593.2304
   -476630.11544                  25125119.8294
 -14066729.69644 -10961081.12044  22642453.8404   22642452.3194
 -16753865.84044 -13054953.17544  21080310.2254   21080310.8474
 96  2 17  2  6  0.0000000  0  8G 2G 9G12G 7G 4G20G 5G24
  11938332.74544                  23905641.0624
 -14815625.20744 -11544638.67544  21067838.2614   21067837.8274
   1219473.734 4    950240.648 4  23077590.272    23077588.465
  -6736654.79944  -5249331.95344  22423999.7304   22423999.8374
 -17066005.86644 -13298178.40544  20632462.7984   20632461.8434
   -572156.70044                  25106944.6384
 -14146988.03244 -11023620.05844  22627181.2184   22627180.3774
 -16816576.02244 -13103818.22544  21068376.7294   21068377.2664
 96  2 17  2  6 30.0000000  0  8G 2G 9G12G 7G 4G20G 5G24
  12021022.05744                  23921375.6894
 -14803759.57144 -11535392.72644  21070096.3394   21070095.8154
   1312323.381 4   1022591.010 4  23095259.013    23095257.327
  -6670722.47344  -5197956.10744  22436546.0174   22436545.7784
 -17050348.35044 -13285977.73344  20635442.4844   20635441.7634
   -667735.10844                  25088763.3604
 -14227151.11844 -11086084.77744  22611926.5924   22611925.8044
 -16878840.69744 -13152336.12544  21056528.1844   21056528.8454
 96  2 17  2  7  0.0000000  0  8G 2G 9G12G 7G 4G20G 5G24
  12103974.02344                  23937161.2224
 -14791321.61644 -11525700.81644  21072463.1124   21072462.6604
   1405467.149 4   1095170.549 4  23112983.701    23112981.940
  -6604694.23244  -5146505.53744  22449110.6564   22449111.0114
 -17034104.47744 -13273320.15544  20638533.6304   20638532.6474
   -763345.41544   -594812.59744  25070560.0724
 -14307198.75744 -11148459.54244  22596693.9624   22596694.1154
 -16940632.29144 -13200485.39144  21044769.7314   21044770.4244
 96  2 17  2  7 30.0000000  0  7G 9G12G 7G 4G20G 5G24
 -14778303.97744 -11515557.20144  21074940.5884   21074939.9734
   1498913.736 4   1167986.054 4  23130765.657    23130764.261
  -6538556.68044  -5094969.77644  22461696.0294   22461696.0024
 -17017264.59544 -13260198.15544  20641738.1244   20641737.4154
   -858982.30644   -669334.79644  25052361.7594   25052361.0294
 -14387124.45944 -11210739.28244  22581484.3424   22581483.9794
 -17001938.82644 -13248256.69344  21033103.4984   21033104.0574
 96  2 17  2  8  0.0000000  0  7G 9G12G 7G 4G20G 5G24
 -14764727.86244 -11504978.41244  21077524.0064   21077523.4904
   1592644.336 4   1241022.874 4  23148602.050    23148600.608
  -6472319.96144  -5043356.74744  22474300.4794   22474300.4204
 -16999835.28044 -13246616.86044  20645054.9164   20645053.7514
   -954661.09544   -743889.68744  25034156.4074   25034152.9524
 -14466961.80244 -11272950.17844  22566292.0704   22566291.5824
 -17062769.92944 -13295657.53144  21021527.7664   21021528.1244
 96  2 17  2  8 30.0000000  0  7G 9G12G 7G 4G20G 5G24
 -14750595.06844 -11493965.84944  21080213.4124   21080212.7154
   1686645.495 4   1314270.512 4  23166490.190    23166488.487
  -6406001.14144  -4991679.74844  22486920.5524   22486920.6904
 -16981819.13944 -13232578.29644  20648482.9734   20648481.9804
  -1050400.51244   -818491.84344  25015939.3054
 -14546727.65644 -11335105.37044  22551113.4664   22551113.1444
 -17123126.11144 -13342688.29744  21010042.3384   21010042.7634
 96  2 17  2  9  0.0000000  0  7G 9G12G 7G 4G20G 5G24
 -14735915.07144 -11482526.88844  21083006.6774   21083006.2514
   1780897.616 4   1387713.710 4  23184425.766    23184424.069
  -6339630.76544  -4939962.56244  22499549.9714   22499549.9784
 -16963222.99644 -13218087.78444  20652021.9894   20652021.1024
  -1146217.92544                  24997706.8994
 -14626440.19044 -11397218.99344  22535944.7184   22535943.9154
 -17183004.96944 -13389347.12344  20998647.9214   20998648.2584
 96  2 17  2  9 30.0000000  0  7G 9G12G 7G20G 5G 4G24
 -14720707.63644 -11470676.94644  21085900.9564   21085900.4654
   1875386.867 4   1461341.684 4  23202406.469    23202404.695
  -6273235.95744  -4888226.35544  22512184.8014   22512185.5114
  -1242118.92244   -967882.61444  24979453.6834   24979451.7384
 -14706110.57344 -11459299.79944  22520784.1494   22520783.0554
 -16944062.83044 -13203157.77244  20655667.8384   20655667.0124
 -17242415.26044 -13435640.83244  20987342.6264   20987342.9504
 96  2 17  2 10  0.0000000  0  7G 9G12G 7G20G 4G 5G24
 -14704954.08044 -11458401.45044  21088898.4874   21088898.0614
   1970134.717 4   1535171.163 4  23220436.291    23220434.452
  -6206811.44644  -4836466.99944  22524824.7714   22524825.0834
  -1338075.90244  -1042654.26444  24961194.8754   24961194.4154
 -16924318.32044 -13187772.42744  20659425.2434   20659424.2634
 -14785709.73944 -11521325.09144  22505636.3874   22505635.3594
 -17301333.03144 -13481550.76044  20976130.7744   20976131.1144
 96  2 17  2 10 30.0000000  0  7G 9G12G 7G 4G20G 5G24
 -14688608.83944 -11445664.90244  21092008.8754   21092008.3244
   2065184.631 4   1609236.013 4  23238523.705    23238521.907
  -6140323.92844  -4784658.54644  22537477.0554   22537476.9704
 -16903946.04144 -13171897.91344  20663301.8404   20663300.9174
  -1434052.93344                  24942933.8834
 -14865174.60344 -11583245.73744  22490515.0074   22490514.4444
 -17359724.38844 -13527050.49844  20965019.4264   20965019.7304
 96  2 17  2 11  0.0000000  0  7G 9G12G 7G 4G20G 5G24
 -14671715.90944 -11432501.57844  21095223.4704   21095222.9564
   2160500.345 4   1683507.984 4  23256661.785    23256660.000
  -6073800.58744  -4732822.18844  22550135.9774   22550136.1944
 -16883003.14144 -13155578.76044  20667287.3394   20667286.2984
  -1530079.28844                  24924664.5014
 -14944539.04644 -11645088.14344  22475412.1054   22475411.8724
 -17417636.88244 -13572177.09444  20953999.0024   20953999.4244
 96  2 17  2 11 30.0000000  0  7G 9G12G 7G20G 5G 4G24
 -14654280.47244 -11418915.53144  21098541.4784   21098540.8674
   2256071.490 4   1757978.991 4  23274848.533    23274846.694
  -6007245.77644  -4680961.29444  22562801.2504   22562801.1834
  -1626154.93144                  24906377.1814
 -15023803.11744 -11706852.33344  22460328.2464   22460328.5844
 -16861516.22144 -13138835.69044  20671375.9584   20671374.8394
 -17475095.91744 -13616950.34644  20943064.8564   20943065.0854
 96  2 17  2 12  0.0000000  0  7G 9G12G 7G20G 4G 5G24
 -14636243.26444 -11404860.56844  21101973.9674   21101972.9474
   2351937.125 4   1832679.473 4  23293091.118    23293089.090
  -5940610.70144  -4629037.86144  22575481.1964   22575482.0334
  -1722232.97544  -1341997.26844  24888093.1944   24888089.5354
 -16839431.45244 -13121626.76944  20675578.5994   20675577.7294
 -15102913.36444 -11768496.66444  22445274.1144   22445274.2584
 -17532070.71244 -13661346.26944  20932222.8444   20932223.2734
 96  2 17  2 12 30.0000000  0  7G 9G12G 7G20G 5G 4G24
 -14617627.37644 -11390354.68144  21105516.3524   21105515.6274
   2448066.769 4   1907585.670 4  23311383.987    23311381.993
  -5873908.82144  -4577062.38044  22588174.0484   22588173.6694
  -1818332.10844  -1416879.65644  24869804.9544   24869802.3204
 -15181883.48944 -11830031.80744  22430247.0184   22430246.7644
 -16816787.20044 -13103981.88444  20679887.7334   20679886.8064
 -17588585.29944 -13705383.58444  20921468.2914   20921468.8414
 96  2 17  2 13  0.0000000  0  7G 9G12G 7G20G 5G 4G24
 -14598465.87944 -11375423.64644  21109162.4084   21109161.6744
   2544424.244 4   1982669.403 4  23329720.031    23329718.286
  -5807164.34944  -4525053.69544  22600875.1194   22600875.0304
  -1914465.91244  -1491789.03744  24851510.7594
 -15260753.38444 -11891488.84744  22415238.5604   22415238.0334
 -16793623.31744 -13085932.09744  20684295.4694   20684294.6884
 -17644655.08744 -13749074.30244  20910798.4704   20910798.9244
 96  2 17  2 13 30.0000000  0  7G 9G12G 7G20G 5G 4G24
 -14578682.86844 -11360008.31344  21112927.0804   21112926.5854
   2641075.373 4   2057981.969 4  23348111.947    23348110.638
  -5740319.05544  -4472966.44944  22613595.7234   22613595.6504
  -2010576.39544  -1566680.30144  24833220.6244   24833219.1914
 -15339442.80844 -11952805.25844  22400264.5684   22400264.0244
 -16769863.70444 -13067418.10244  20688816.8294   20688815.8764
 -17700193.40144 -13792350.88844  20900229.8634   20900230.2334
 96  2 17  2 14  0.0000000  0  7G 9G12G 7G20G 4G 5G24
 -14558295.84044 -11344122.32144  21116806.9994   21116806.4284
   2738007.702 4   2133513.641 4  23366557.948    23366555.981
  -5673384.95744  -4420810.01244  22626332.6804   22626333.1474
  -2106686.47544  -1641571.30444  24814930.0014
 -16745517.66744 -13048447.15344  20693449.6664   20693448.8954
 -15417972.54044 -12013997.23044  22385320.8004   22385320.3684
 -17755190.53244 -13835205.77344  20889764.1824   20889764.5494
 96  2 17  2 14 30.0000000  0  7G 9G12G 7G20G 5G 4G24
 -14537409.53844 -11327847.28244  21120781.1164   21120780.5474
   2835130.193 4   2209193.480 4  23385039.913    23385037.931
  -5606456.77644  -4368658.19744  22639068.4944   22639068.7194
  -2202896.00644  -1716539.82744  24796620.1614   24796621.9634
 -15496451.30844 -12075149.50444  22370386.2674   22370385.8884
 -16720689.37244 -13029100.42444  20698174.6374   20698173.4844
 -17809720.98244 -13877697.01044  20879387.3754   20879387.9984
 96  2 17  2 15  0.0000000  0  7G 9G12G 7G20G 5G 4G24
 -14515937.34044 -11311115.70344  21124866.9834   21124866.4124
   2932526.780 4   2285086.916 4  23403573.775    23403571.987
  -5539456.31444  -4316450.05244  22651818.3154   22651818.6954
  -2299128.99444  -1791526.46844  24778308.5814   24778314.4324
 -15574806.14744 -12136205.20244  22355476.1804   22355475.8214
 -16695282.01744 -13009302.47644  20703009.2844   20703008.4924
 -17863701.38244 -13919759.63644  20869115.0984   20869115.6944
 96  2 17  2 15 30.0000000  0  7G 9G12G 7G20G 5G 4G24
 -14493994.27444 -11294017.21544  21129042.6544   21129042.0704
   3030086.885 4   2361107.769 4  23422138.780    23422136.825
  -5472495.65644  -4264272.91844  22664560.6744   22664559.4524
  -2395510.02644  -1866628.49344  24759969.8474   24759973.2444
 -15653139.43844 -12197244.11844  22340569.8034   22340569.2594
 -16669398.77744 -12989133.70644  20707934.5494   20707933.4784
 -17917243.65344 -13961480.86644  20858926.5454   20858927.1494
 96  2 17  2 16  0.0000000  0  7G 9G12G 7G20G 5G 4G24
 -14471519.65544 -11276504.53144  21133319.7274   21133319.2414
   3127875.932 4   2437307.006 4  23440747.355    23440745.392
  -5405502.92244  -4212070.79944  22677309.4134   22677308.0484
  -2491950.24744  -1941776.69544  24741617.0814   24741620.6074
 -15731392.95344 -12258220.85944  22325679.0164   22325678.3044
 -16642963.28544 -12968534.61344  20712965.1194   20712964.1884
 -17970285.32444 -14002812.02144  20848833.2114   20848833.8154
 96  2 17  2 16 30.0000000  0  7G 9G12G 7G20G 5G 4G24
 -14448516.07344 -11258579.66644  21137697.1674   21137696.7084
   3225885.846 4   2513678.354 4  23459397.890    23459396.325
  -5338477.74044  -4159843.38444  22690063.5454   22690063.4094
  -2588441.41044  -2016964.56544  24723255.9744
 -15809557.36744 -12319128.17244  22310804.3564   22310803.8544
 -16615974.16044 -12947504.11644  20718101.0294   20718100.0524
 -18022850.53044 -14043771.90344  20838830.4854   20838830.6684
 96  2 17  2 17  0.0000000  0  7G 9G12G 7G20G 5G 4G24
 -14424964.67244 -11240227.93244  21142178.8744   21142178.2674
   3324139.228 4   2590239.415 4  23478095.101    23478093.330
  -5271389.92744  -4107567.17144  22702829.2934   22702829.7114
  -2684946.24544  -2092163.19244  24704886.1554   24704888.3484
 -15887591.12144 -12379933.68144  22295955.2254   22295954.6754
 -16588398.19844 -12926016.34444  20723348.6844   20723347.3394
 -18074921.67944 -14084346.80444  20828921.3474   20828921.6824
 96  2 17  2 17 30.0000000  0  7G 9G12G 7G20G 5G 4G24
 -14400877.78044 -11221458.92944  21146762.5394   21146761.9314
   3422623.434 4   2666980.334 4  23496836.155    23496834.037
  -5204252.34144  -4055252.17244  22715605.5324   22715605.8284
  -2781474.13844  -2167379.70144  24686515.5774
 -15965509.51444 -12440649.30144  22281127.0194   22281126.6774
 -16560251.36244 -12904083.73644  20728704.7674   20728704.0914
 -18126510.34544 -14124545.74244  20819104.5254   20819104.5824
 96  2 17  2 18  0.0000000  0  7G 9G12G 7G20G 5G 4G24
 -14376240.03744 -11202260.69244  21151451.0804   21151450.5784
   3521337.049 4   2743900.017 4  23515620.829    23515618.702
  -5137063.02944  -4002896.86744  22728391.7174   22728391.5454
  -2878022.64844  -2242612.20744  24668144.0764
 -16043318.80544 -12501279.89944  22266321.2584   22266320.7274
 -16531547.67444 -12881717.21944  20734166.9924   20734165.8924
 -18177621.49044 -14164372.58744  20809378.1094   20809378.4514
 96  2 17  2 18 30.0000000  0  7G 9G12G 7G20G 5G 4G24
 -14351027.20344 -11182614.33744  21156248.7524   21156248.0394
   3620306.612 4   2821019.132 4  23534454.033    23534451.936
  -5069789.95144  -3950476.31044  22741193.1144   22741192.9024
  -2974582.19344  -2317853.36044  24649770.3004   24649771.5694
 -16120980.05944 -12561795.14844  22251543.2644   22251542.5944
 -16502277.50544 -12858909.28744  20739736.6074   20739735.7154
 -18228229.05044 -14203807.02944  20799747.9544   20799748.1914
 96  2 17  2 19  0.0000000  0  7G 9G12G 7G20G 5G 4G24
 -14325259.14744 -11162535.33744  21161152.0494   21161151.3364
   3719496.750 4   2898310.122 4  23553329.031    23553327.289
  -5002475.11044  -3898023.19344  22754002.8394   22754001.9104
  -3071195.13944  -2393136.12644  24631387.2264   24631387.0134
 -16198531.19944 -12622224.57944  22236785.0814   22236784.4264
 -16472488.68944 -12835697.21544  20745405.3734   20745404.2654
 -18278346.61244 -14242859.65444  20790210.7074   20790211.0764
 96  2 17  2 19 30.0000000  0  7G 9G12G 7G20G 5G 4G24
 -14298960.67844 -11142043.02844  21166156.6454   21166156.0594
   3818868.218 4   2975742.415 4  23572239.039    23572237.131
  -4935154.66644  -3845565.71544  22766813.5954   22766812.3964
  -3167898.39744  -2468489.31644  24612985.4824
 -16276005.57244 -12682594.20344  22222042.4604   22222041.4434
 -16442227.85044 -12812117.33444  20751163.8974   20751162.8584
 -18328013.77644 -14281561.32044  20780759.2864   20780759.8534
 96  2 17  2 20  0.0000000  0  7G 9G12G 7G20G 5G 4G24
 -14272089.56144 -11121104.50044  21171270.1084   21171269.6914
   3918470.305 4   3053354.407 4  23591192.522    23591190.706
  -4867774.44944  -3793061.64144  22779635.7694   22779634.6384
  -3264636.98444  -2543869.97044  24594576.9664   24594575.0354
 -16353337.29944 -12742852.68444  22207326.6034   22207326.0264
 -16411446.08144 -12788131.53544  20757021.3474   20757020.3624
 -18377183.92244 -14319875.70244  20771402.5734   20771402.9754
 96  2 17  2 20 30.0000000  0  7G 9G12G 7G20G 5G 4G24
 -14244654.56644 -11099726.59144  21176490.7784   21176489.8634
   4018310.597 4   3131152.021 4  23610191.783    23610189.812
  -4800331.66444  -3740508.80944  22792469.3614   22792469.5704
  -3361392.72344  -2619263.99644  24576165.8294   24576166.7774
 -16430520.30644 -12802995.27544  22192638.6364   22192638.6114
 -16380119.61744 -12763721.29244  20762982.8034   20762981.6444
 -18425838.66444 -14357788.47044  20762143.6954   20762144.1014
 96  2 17  2 21  0.0000000  0  7G 9G12G 7G20G 5G 4G24
 -14216713.19544 -11077954.09644  21181807.8644   21181807.2794
   4118325.670 4   3209085.833 4  23629223.773    23629222.024
  -4732888.15644  -3687955.44644  22805303.3014   22805303.2774
  -3458216.48544  -2694710.99344  24557740.9314   24557736.6504
 -16507631.53044 -12863081.93044  22177965.0724   22177964.5624
 -16348292.83444 -12738921.19544  20769039.3224   20769038.0104
 -18474030.17544 -14395340.27644  20752973.7164   20752974.1324
 96  2 17  2 21 30.0000000  0  7G 9G12G 7G20G 5G 4G24
 -14188241.19144 -11055768.12744  21187225.7344   21187225.1684
   4218557.685 4   3287188.678 4  23648297.436    23648295.671
  -4665393.30444  -3635362.06244  22818147.3064   22818146.7504
  -3555059.55644  -2770173.07344  24539313.0904   24539311.1334
 -16584625.96144 -12923077.57244  22163313.7104   22163313.3364
 -16315909.55844 -12713687.46844  20775201.2704   20775200.5264
 -18521719.09044 -14432500.45444  20743898.4894   20743898.8064
 96  2 17  2 22  0.0000000  0  7G 9G12G 7G20G 4G 5G24
 -14159258.30744 -11033184.07044  21192741.1594   21192740.5634
   4318994.656 4   3365451.228 4  23667409.825    23667408.313
  -4597869.49544  -3582746.11644  22830996.8024   22830997.1624
  -3651932.13944  -2845658.13144  24520878.8154   24520875.6544
 -16282978.79644 -12688027.13144  20781467.8894   20781466.8034
 -16661520.99544 -12982995.76344  22148680.9494   22148680.3644
 -18568898.80444 -14469263.84844  20734920.5614   20734920.9574
 96  2 17  2 22 30.0000000  0  7G 9G12G 7G20G 5G 4G24
 -14129755.16244 -11010194.61444  21198355.1484   21198354.6004
   4419630.941 4   3443869.097 4  23686560.442    23686558.634
  -4530321.41744  -3530111.25844  22843850.8634   22843851.3754
  -3748835.65444  -2921167.39044  24502437.9764   24502436.8884
 -16738318.87244 -13042838.25044  22134066.8954   22134065.7974
 -16249505.52944 -12661944.05844  20787837.6594   20787836.7744
 -18615561.71544 -14505624.53744  20726040.9794   20726041.1964
 96  2 17  2 23  0.0000000  0  7G 9G12G 7G20G 5G 4G24
 -14099721.04644 -10986791.41644  21204070.8084   21204070.0334
   4520468.584 4   3522443.867 4  23705749.137    23705747.326
  -4462756.58644  -3477463.35144  22856707.8644   22856707.6664
  -3845762.41544  -2996694.72844  24483994.6274   24483991.5954
 -16814988.61844 -13102580.90444  22119477.0484   22119476.6484
 -16215485.20944 -12635434.71144  20794311.5954   20794310.5224
 -18661708.82444 -14541583.30744  20717259.5544   20717259.9044
 96  2 17  2 23 30.0000000  0  7G 9G12G 7G20G 5G 4G24
 -14069173.32144 -10962987.99544  21209884.0214   21209883.3694
   4621501.834 4   3601171.049 4  23724975.028    23724973.455
  -4395199.91744  -3424821.81344  22869563.5844   22869563.0344
  -3942716.99744  -3072243.73544  24465542.2694   24465544.0074
 -16891507.75744 -13162206.19344  22104915.6664   22104914.7484
 -16180935.53744 -12608512.88544  20800886.1294   20800885.0324
 -18707357.35644 -14577153.57344  20708572.8754   20708573.1934
 96  2 17  2 24  0.0000000  0  7G 9G12G 7G20G 4G 5G24
 -14038103.50044 -10938777.75444  21215795.7814   21215795.4274
   4722737.116 4   3680055.656 4  23744239.652    23744238.041
  -4327651.03844  -3372186.30744  22882417.2524   22882416.8154
  -4039690.76844  -3147807.60344  24447088.1104   24447088.7314
 -16145850.93744 -12581174.23144  20807562.3944   20807561.2424
 -16967869.08344 -13221708.51444  22090384.9234   22090384.2694
 -18752507.18644 -14612335.24544  20699981.0344   20699981.4144
 96  2 17  2 24 30.0000000  0  7G 9G12G 7G20G 5G 4G24
 -14006484.45244 -10914139.54044  21221813.2284   21221812.7494
   4824202.270 4   3759119.390 4  23763547.845    23763546.128
  -4260076.13244  -3319530.53744  22895276.5084   22895275.7254
  -4136655.04144  -3223364.22144  24428637.4314   24428635.8614
 -17044035.47244 -13281058.93144  22075890.8114   22075890.2704
 -16110202.06644 -12553395.88344  20814346.0984   20814345.2334
 -18797137.34444 -14647111.97444  20691488.2444   20691488.5804
 96  2 17  2 25  0.0000000  0  7G 9G12G 7G20G 4G 5G24
 -13974326.74744 -10889081.59544  21227932.1754   21227931.8234
   4925907.688 4   3838370.341 4  23782901.851    23782900.004
  -4192461.79044  -3266844.04144  22908143.1024   22908142.7964
  -4233588.37744  -3298896.64244  24410189.8284   24410191.4454
 -16073989.15944 -12525178.03044  20821237.4254   20821236.6024
 -17119996.17044 -13340249.07244  22061436.0134   22061435.6654
 -18841236.47044 -14681474.91644  20683096.6114   20683096.9564
 96  2 17  2 25 30.0000000  0  7G 9G12G 7G20G 5G 4G24
 -13941611.44344 -10863589.16244  21234157.9994   21234157.5794
   5027868.214 4   3917820.080 4  23802304.306    23802302.570
  -4124757.94544  -3214087.80744  22921026.3574   22921025.5884
  -4330479.71944  -3374396.39644  24391752.0434
 -17195742.78444 -13399272.39244  22047022.0564   22047021.4964
 -16037219.42944 -12496526.28844  20828234.1474   20828233.5244
 -18884789.75444 -14715412.52644  20674808.5754   20674808.8464
 96  2 17  2 26  0.0000000  0  7G 9G12G 7G20G 4G 5G24
 -13908282.43444 -10837618.51544  21240500.2804   21240499.8234
   5130119.157 4   3997496.123 4  23821762.254    23821760.136
  -4056900.04044  -3161211.54544  22933939.5264   22933939.2494
  -4427289.85544  -3449832.85444  24373329.0304   24373331.4154
 -15999860.05744 -12467415.08844  20835343.5474   20835342.8214
 -17271249.17744 -13458108.53444  22032653.4444   22032652.9174
 -18927748.75944 -14748887.05644  20666633.6554   20666633.8524
 96  2 17  2 26 30.0000000  0  7G 9G12G 7G20G 5G 4G24
 -13874366.63444 -10811190.63144  21246954.3944   21246953.7974
   5232620.061 4   4077366.938 4  23841267.524    23841265.425
  -3988923.32544  -3108242.69244  22946874.6344   22946875.7574
  -4524052.44444  -3525232.24144  24354917.8664   24354916.9394
 -17346549.16144 -13516783.82944  22018324.4804   22018324.2374
 -15961961.55744 -12437883.78344  20842555.3234   20842554.3384
 -18970143.43044 -14781921.85144  20658566.0064   20658566.3994
 96  2 17  2 27  0.0000000  0  7G 9G12G 7G20G 4G 5G24
 -13839955.47344 -10784376.74844  21253502.6684   21253502.0554
   5335270.197 4   4157354.031 4  23860801.147    23860798.966
  -3920919.80444  -3055252.92744  22959816.1654   22959816.7074
  -4620868.98944  -3600673.69544  24336494.1374   24336497.3334
 -15923626.11144 -12408012.00344  20849850.5214   20849849.4374
 -17421737.52944 -13575372.15544  22004016.2224   22004015.7254
 -19012075.79044 -14814596.40244  20650586.6814   20650586.9514
 96  2 17  2 27 30.0000000  0  7G 9G12G 7G20G 5G 4G24
 -13805014.28644 -10757149.85544  21260151.6784   21260151.0324
   5438083.741 4   4237468.447 4  23880365.932    23880363.727
  -3852884.68144  -3002238.54844  22972762.6514   22972762.0984
  -4717724.58044  -3676145.58544  24318064.5504   24318064.4274
 -17496801.80844 -13633863.79444  21989731.8194   21989731.4714
 -15884819.04644 -12377772.72944  20857235.2684   20857234.2114
 -19053528.75044 -14846897.39444  20642698.2354   20642698.6024
 96  2 17  2 28  0.0000000  0  7G 9G12G 7G20G 4G 5G24
 -13769541.56844 -10729508.78644  21266901.9994   21266901.3494
   5541065.052 4   4317713.592 4  23899962.476    23899960.480
  -3784842.20944  -2949218.47044  22985710.1844   22985710.6924
  -4814607.61744  -3751638.79544  24299627.4034   24299626.7364
 -15845516.97844 -12347147.73944  20864714.3644   20864713.1194
 -17571746.93344 -13692262.58044  21975471.0204   21975470.6144
 -19094486.12144 -14878812.21444  20634904.4554   20634904.6854
 96  2 17  2 28 30.0000000  0  7G 9G12G 7G20G 5G 4G24
 -13733557.47744 -10701469.24344  21273749.4144   21273749.0434
   5644215.493 4   4398090.536 4  23919591.397    23919589.318
  -3716801.76444  -2896199.96344  22998658.5704   22998658.2724
  -4911512.67844  -3827149.21044  24281187.4444   24281185.3234
 -17646561.10744 -13750559.31744  21961234.4194   21961233.7744
 -15805709.03444 -12316128.56044  20872289.1734   20872288.2794
 -19134944.71444 -14910338.37544  20627205.3044   20627205.4884
 96  2 17  2 29  0.0000000  0  7G 9G12G 7G20G 4G 5G24
 -13697076.82344 -10673042.77244  21280691.4914   21280690.9234
   5747534.222 4   4478598.636 4  23939252.157    23939250.443
  -3648764.97144  -2843184.26644  23011605.5014   23011605.1174
  -5008440.47644  -3902677.33544  24262742.0664   24262741.1144
 -15765388.88144 -12284710.25444  20879961.8004   20879960.6724
 -17721238.88044 -13808749.77744  21947023.3784   21947022.8584
 -19174899.03544 -14941471.60144  20619602.5054   20619602.7634
 96  2 17  2 29 30.0000000  0  7G 9G12G 7G20G 5G 4G24
 -13660099.65744 -10644229.40644  21287728.0734   21287727.5704
   5851025.326 4   4559241.044 4  23958946.017    23958944.152
  -3580725.86244  -2790166.78944  23024552.9664   23024553.0904
  -5105382.04344  -3978216.16044  24244294.6724   24244296.5934
 -17795776.75944 -13866831.23544  21932838.8414   21932838.4804
 -15724551.64044 -12252889.02644  20887733.2574   20887732.0824
 -19214330.12744 -14972197.11044  20612099.0124   20612099.3864
 96  2 17  2 30  0.0000000  0  7G 9G12G 7G20G 4G 5G24
 -13622635.31444 -10615036.42244  21294857.1684   21294856.6944
   5954686.977 4   4640016.334 4  23978672.225    23978670.324
  -3512665.90044  -2737133.04544  23037503.4494   23037502.6074
  -5202351.58044  -4053776.81544  24225841.6214   24225840.5324
 -15683209.51344 -12220674.37944  20895600.3294   20895599.1524
 -17870162.08744 -13924793.82344  21918683.5294   21918683.1314
 -19253235.30844 -15002512.82644  20604695.3444   20604695.7224
 96  2 17  2 30 30.0000000  0  7G 9G12G 7G20G 5G 4G24
 -13584667.77744 -10585451.34444  21302082.2154   21302081.5764
   6058545.539 4   4720945.051 4  23998435.854    23998433.897
  -3444548.47644  -2684054.56544  23050466.8234   23050466.8284
  -5299321.44344  -4129337.69544  24207387.8794   24207387.3064
 -17944352.29344 -13982604.35444  21904565.8644   21904565.5144
 -15641336.66044 -12188046.17744  20903568.4494   20903567.3024
 -19291584.06144 -15032394.95744  20597398.0174   20597398.5104
 96  2 17  2 31  0.0000000  0  7G 9G12G 7G 4G20G 5G24
 -13546176.33844 -10555458.02844  21309407.2444   21309406.2704
   6162601.869 4   4802027.864 4  24018237.013    24018235.296
  -3376370.89444  -2630929.20744  23063439.9544   23063440.0374
 -15598931.39644 -12155003.11544  20911637.8534   20911636.8614
  -5396286.64144  -4204894.94944  24188936.0254   24188935.4124
 -18018348.18844 -14040263.47844  21890485.2004   21890484.4064
 -19329380.03544 -15061846.35344  20590205.6414   20590205.9464
 96  2 17  2 31 30.0000000  0  7G 9G12G 7G20G 4G 5G24
 -13507167.71844 -10525061.71244  21316830.0464   21316829.3784
   6266841.485 4   4883253.509 4  24038073.037    24038071.491
  -3308143.46344  -2577764.97244  23076423.6164   23076423.1304
  -5493257.06544  -4280456.27844  24170483.8504   24170484.2454
 -15555999.30844 -12121549.53644  20919807.4884   20919806.8104
 -18092166.42044 -14097784.16544  21876438.2624   21876437.5504
 -19366642.35044 -15090881.91244  20583114.9224   20583114.9864
 96  2 17  2 32  0.0000000  0  7G 9G12G 7G 4G20G 5G24
 -13467653.15144 -10494271.15344  21324349.3024   21324348.8894
   6371264.068 4   4964621.729 4  24057944.039    24057942.600
  -3239870.96744  -2524565.64244  23089415.1444   23089415.9164
 -15512542.18944 -12087686.84344  20928077.1544   20928075.9844
  -5590216.92044  -4356009.40844  24152031.8744   24152032.3534
 -18165806.03244 -14155165.66344  21862425.0984   21862424.7064
 -19403390.40844 -15119516.74844  20576122.1134   20576122.2514
 96  2 17  2 32 30.0000000  0  7G 9G12G 7G20G 4G 5G24
 -13427613.87844 -10463071.73344  21331968.3494   21331967.9254
   6475881.237 4   5046141.589 4  24077851.913    24077850.721
  -3171549.72544  -2471328.30244  23102415.7714   23102416.4434
  -5687141.01444  -4431534.61744  24133587.8954   24133589.7744
 -15468546.69844 -12053404.63644  20936449.1704   20936448.1784
 -18239262.80944 -14212404.69944  21848446.4354   21848445.9674
 -19439622.95844 -15147749.89444  20569226.9254   20569226.9364
 96  2 17  2 33  0.0000000  0  7G 9G12G 7G 4G20G 5G24
 -13387025.27744 -10431444.26344  21339692.3544   21339691.9284
   6580697.032 4   5127816.223 4  24097797.771    24097796.276
  -3103169.12644  -2418044.75644  23115428.3484   23115427.2684
 -15424019.00144 -12018707.72944  20944922.1554   20944921.0804
  -5784012.07144  -4507018.51144  24115154.9994   24115156.0484
 -18312537.17944 -14269501.60544  21834502.7174   21834502.4304
 -19475340.63944 -15175581.83944  20562430.2594   20562430.5714
 96  2 17  2 33 30.0000000  0  7G 9G12G 7G 4G20G 5G24
 -13345901.66844 -10399399.90144  21347517.9044   21347517.3934
   6685701.498 4   5209637.873 4  24117779.645    24117777.826
  -3034733.16644  -2364718.03944  23128452.0994   23128451.5184
 -15378974.46144 -11983608.08544  20953494.0474   20953492.9724
  -5880837.99344  -4582467.25044  24096729.3434   24096731.1024
 -18385638.40944 -14326463.58944  21820591.9744   21820591.9154
 -19510538.08144 -15203008.40544  20555732.2184   20555732.5704
 96  2 17  2 34  0.0000000  0  7G 9G12G 7G 4G20G 5G24
 -13304276.91744 -10366965.04444  21355438.7454   21355438.3374
   6790860.256 4   5291579.738 4  24137790.990    24137788.850
  -2966275.60244  -2311374.52444  23141479.1104   23141478.9964
 -15333465.39444 -11948146.47544  20962154.1784   20962153.3274
  -5977647.62944  -4657903.29844  24078307.6494   24078309.6004
 -18458589.09444 -14383308.26644  21806710.2784   21806709.9104
 -19545241.93844 -15230050.35844  20549128.3214   20549128.6384
 96  2 17  2 34 30.0000000  0  7G 9G12G 7G 4G20G 5G24
 -13262112.54944 -10334109.70544  21363462.7464   21363462.4094
   6896197.270 4   5373660.488 4  24157835.856    24157833.831
  -2897761.44144  -2257986.89544  23154516.5324   23154516.2534
 -15287465.35544 -11912302.28944  20970907.7764   20970906.9254
  -6074412.95244  -4733304.83144  24059893.5744   24059896.7674
 -18531360.08544 -14440012.92044  21792861.9664   21792861.4364
 -19579402.30444 -15256668.81344  20542627.9784   20542628.2004
 96  2 17  2 35  0.0000000  0  7G 9G12G 7G 4G20G 5G24
 -13219466.92944 -10300879.36344  21371577.5264   21371576.8794
   7001670.520 4   5455847.390 4  24177906.942    24177904.663
  -2829233.55444  -2204588.52944  23167557.0774   23167557.1264
 -15241020.23444 -11876111.28344  20979745.8794   20979744.4684
  -6171172.37544  -4808701.74244  24041480.6854   24041483.0644
 -18603979.18744 -14496599.22944  21779043.3324   21779042.4604
 -19613040.18744 -15282880.13844  20536226.7984   20536227.0634
 96  2 17  2 35 30.0000000  0  7G 9G12G 7G 4G20G 5G24
 -13176370.39444 -10267297.66044  21379778.4644   21379777.9964
   7107268.273 4   5538131.312 4  24198001.279    24197999.284
  -2760701.07544  -2151186.59344  23180598.7884   23180598.7714
 -15194141.03944 -11839582.03844  20988666.7554   20988665.4934
  -6267950.97144  -4884113.57444  24023063.9694   24023063.7404
 -18676442.42344 -14553064.07544  21765253.8134   21765253.4354
 -19646164.30344 -15308691.12644  20529923.3494   20529923.6444
 96  2 17  2 36  0.0000000  0  7G 9G12G 7G 4G20G 5G24
 -13132832.02444 -10233371.66944  21388063.4574   21388063.1814
   7212991.141 4   5620512.731 4  24218119.958    24218117.667
  -2692161.88244  -2097779.44544  23193640.9404   23193639.6954
 -15146827.34544 -11802714.22344  20997670.3324   20997669.1274
  -6364743.42044  -4959536.20444  24004643.9374   24004644.4504
 -18748737.27844 -14609397.71944  21751496.8484   21751496.1364
 -19678781.54444 -15334107.14344  20523716.7844   20523717.0324
 96  2 17  2 36 30.0000000  0  7G 9G12G 7G 4G20G 5G24
 -13088844.86044 -10199095.96844  21396434.0644   21396433.8684
   7318836.516 4   5702989.614 4  24238261.759    24238259.331
  -2623613.25844  -2044364.99244  23206685.3144   23206686.1874
 -15099072.24444 -11765502.45344  21006757.7334   21006756.8334
  -6461558.98244  -5034976.87444  23986221.1894   23986220.2754
 -18820862.78744 -14665599.40844  21737771.8514   21737771.0034
 -19710891.59644 -15359127.95044  20517606.1564   20517606.2884
 96  2 17  2 37  0.0000000  0  7G 9G12G 7G 4G20G 5G24
 -13044393.49944 -10164458.55944  21404893.0284   21404892.8024
   7424810.206 4   5785566.508 4  24258427.914    24258425.830
  -2555053.86344  -1990942.10544  23219731.4004   23219731.5304
 -15050870.60844 -11727942.74144  21015930.3924   21015929.2584
  -6558406.56544  -5110442.49844  23967791.0754   23967791.0454
 -18892797.27344 -14721652.25844  21724082.9004   21724082.2394
 -19742497.63644 -15383756.02344  20511591.7744   20511591.9244
 96  2 17  2 37 30.0000000  0  7G 9G12G 7G 4G20G 5G24
 -12999434.56844 -10129425.64044  21413448.2954   21413447.7684
   7530925.951 4   5868254.082 4  24278620.909    24278619.165
  -2486464.15144  -1937495.53944  23232783.9304   23232785.2124
 -15002205.01244 -11690021.49244  21025191.1164   21025190.1864
  -6655266.24544  -5185917.52144  23949359.7994   23949362.5814
 -18964525.46144 -14777544.34544  21710433.7254   21710433.2314
 -19773590.95644 -15407984.57144  20505674.8014   20505675.1034
 96  2 17  2 38  0.0000000  0  7G 9G12G 7G 4G20G 5G24
 -12953950.91144 -10093983.83744  21422103.8524   21422103.2774
   7637185.445 4   5951053.690 4  24298841.424    24298839.834
  -2417850.33944  -1884030.23644  23245841.0284   23245840.1554
 -14953068.98344 -11651733.67844  21034541.4284   21034540.4954
  -6752117.80744  -5261386.24744  23930931.1294   23930930.4374
 -19036045.80844 -14833274.46944  21696823.4764   21696823.0194
 -19804160.23344 -15431804.77244  20499857.8664   20499858.1634
 96  2 17  2 38 30.0000000  0  7G 9G12G 7G 4G20G 5G24
 -12907935.25544 -10058127.49244  21430860.4014   21430859.4834
   7743594.229 4   6033969.611 4  24319090.277    24319088.647
  -2349205.67344  -1830540.90744  23258903.5874   23258903.0044
 -14903456.84044 -11613074.86244  21043982.1834   21043981.2704
  -6848945.83244  -5336836.61044  23912504.4034   23912504.7324
 -19107346.00444 -14888833.05044  21683256.0764   21683255.5104
 -19834190.13044 -15455204.67844  20494143.1754   20494143.3084
 96  2 17  2 39  0.0000000  0  7G 9G12G 7G 4G20G 5G24
 -12861443.89244 -10021900.47144  21439707.2264   21439706.9324
   7850119.602 4   6116976.377 4  24339361.406    24339359.727
  -2280565.94344  -1777055.42844  23271964.9204   23271965.4724
 -14853402.10344 -11574071.17244  21053507.3654   21053506.0794
  -6945759.99944  -5412276.15844  23894081.4434   23894082.6824
 -19178457.34644 -14944244.48544  21669723.8924   21669723.2504
 -19863710.11044 -15478207.24944  20488525.7714   20488526.0254
 96  2 17  2 39 30.0000000  0  7G 9G12G 7G 4G20G 5G24
 -12814484.12444  -9985308.45544  21448643.3454   21448642.9404
   7956778.473 4   6200087.142 4  24359657.901    24359656.110
  -2211915.90544  -1723561.91444  23285028.9044   23285030.1124
 -14802886.90144 -11534708.67144  21063120.1304   21063119.0914
  -7042522.15944  -5487675.22344  23875668.3984   23875667.1914
 -19249367.27844 -14999498.97544  21656230.0444   21656229.5564
 -19892693.68944 -15500791.84444  20483010.3144   20483010.5724
 96  2 17  2 40  0.0000000  0  7G 9G12G 7G 4G20G 5G24
 -12767082.14944  -9948371.86344  21457663.6914   21457663.2344
   8063569.014 4   6283300.510 4  24379979.378    24379977.637
  -2143257.15644  -1670061.61144  23298094.1924   23298094.8964
 -14751918.51044 -11494993.04344  21072819.1424   21072818.2464
  -7139236.01944  -5563036.65844  23857264.7334   23857265.2804
 -19320077.75744 -15054598.03344  21642773.9084   21642773.3324
 -19921139.32944 -15522957.26444  20477597.3604   20477597.5874
 96  2 17  2 40 30.0000000  0  7G 9G12G 7G 4G20G 5G24
 -12719218.33144  -9911075.39544  21466771.7504   21466771.4124
   8170511.260 4   6366632.082 4  24400329.925    24400327.732
  -2074564.62344  -1616534.96844  23311165.3944   23311166.8364
 -14700468.46644 -11454902.10044  21082609.6104   21082608.8314
  -7235883.84044  -5638346.65144  23838872.3454   23838872.7294
 -19390577.07744 -15109532.55944  21629358.5714   21629358.0204
 -19949031.60644 -15544691.49244  20472289.5934   20472289.5694
 96  2 17  2 41  0.0000000  0  7G 9G12G 7G 4G20G 5G24
 -12670869.41544  -9873400.93144  21475972.3834   21475972.1214
   8277612.192 4   6450087.306 4  24420710.670    24420708.549
  -2005838.99244  -1562982.54944  23324243.9934   23324244.1914
 -14648519.07344 -11414422.05344  21092495.4534   21092494.1364
  -7332470.07144  -5713608.59244  23820491.8894   23820495.1124
 -19460870.38944 -15164306.56244  21615982.5064   21615981.6814
 -19976368.49344 -15565992.95544  20467087.5004   20467087.6824
 96  2 17  2 41 30.0000000  0  7G 9G12G 7G 4G20G 5G24
 -12622033.18144  -9835346.73544  21485265.5854   21485265.2124
   8384855.620 4   6533653.577 4  24441118.719    24441116.317
  -1937087.17944  -1509409.68244  23337326.5784   23337326.8674
 -14596088.14444 -11373566.78144  21102472.6994   21102471.4684
  -7429024.14244  -5788845.52944  23802118.7844   23802119.3304
 -19530970.92244 -15218930.34344  21602642.6624   21602642.1994
 -20003165.55144 -15586873.76844  20461988.3394   20461988.4784
 96  2 17  2 42  0.0000000  0  7G 9G12G 7G 4G20G 5G24
 -12572698.22244  -9796903.92244  21494653.4104   21494653.1104
   8492241.780 4   6617331.059 4  24461553.586    24461551.351
  -1868302.32444  -1455811.07044  23350416.8974   23350416.5204
 -14543164.78844 -11332327.80444  21112543.6844   21112542.4714
  -7525551.75344  -5864061.82744  23783751.0074   23783752.7404
 -19600878.21844 -15273403.55644  21589339.5844   21589338.9534
 -20029424.00744 -15607334.88944  20456991.7754   20456991.8784
 96  2 17  2 42 30.0000000  0  7G 9G12G 7G 4G20G 5G24
 -12522850.14344  -9758061.28344  21504139.3074   21504138.8204
   8599769.958 4   6701119.216 4  24482015.512    24482013.079
  -1799480.27244  -1402183.50244  23363512.8364   23363513.4474
 -14489742.98844 -11290700.42444  21122709.5254   21122708.3924
  -7622041.16944  -5939248.37844  23765389.7594   23765390.0244
 -19670579.42144 -15327716.17444  21576075.9084   21576075.2704
 -20055142.86844 -15627375.54844  20452097.2844   20452097.3304
 96  2 17  2 43  0.0000000  0  7G 9G12G 7G 4G20G 5G24
 -12472505.82244  -9718831.95244  21513719.9424   21513719.0014
   8707431.759 4   6785011.487 4  24502502.971    24502500.613
  -1730624.04944  -1348529.33544  23376615.2414   23376615.7264
 -14435845.52644 -11248702.40044  21132965.5884   21132964.7274
  -7718499.00544  -6014410.28044  23747034.5014   23747033.7274
 -19740064.52344 -15381860.39144  21562853.2084   21562852.7684
 -20080322.74144 -15646996.21644  20447305.9874   20447306.0094
 96  2 17  2 43 30.0000000  0  7G 9G12G 7G 4G20G 5G24
 -12421695.60544  -9679239.58644  21523388.7244   21523387.9444
   8815211.806 4   6868995.910 4  24523012.785    24523010.630
  -1661739.89744  -1294853.39344  23389723.6254   23389725.2104
 -14381499.40044 -11206354.77344  21143307.2994   21143306.5044
  -7814924.04744  -6089546.62344  23728685.3594   23728682.9334
 -19809332.65944 -15435835.55544  21549671.9404   21549671.6904
 -20104970.21144 -15666202.02644  20442615.4484   20442615.5584
 96  2 17  2 44  0.0000000  0  7G 9G12G 7G 4G20G 5G24
 -12370419.32144  -9639284.05244  21533146.1104   21533145.7284
   8923112.785 4   6953074.566 4  24543545.722    24543543.307
  -1592831.36044  -1241158.43944  23402836.6644   23402837.2804
 -14326702.05444 -11163655.53744  21153734.9384   21153733.9134
  -7911298.43344  -6164643.50344  23710345.5274   23710345.7554
 -19878376.65344 -15489636.06844  21536533.3964   21536532.9964
 -20129082.32344 -15684990.67444  20438027.0034   20438027.1374
 96  2 17  2 44 30.0000000  0  7G 9G12G 7G 4G20G 5G24
 -12318695.63744  -9598979.90044  21542988.4554   21542988.2874
   9031119.845 4   7037235.887 4  24564098.666    24564096.448
  -1523914.17144  -1187456.75944  23415951.2914   23415951.5454
 -14271483.99044 -11120628.47044  21164242.3614   21164241.6174
  -8007627.34244  -6239704.96544  23692014.0824   23692014.9354
 -19947208.42544 -15543271.20444  21523435.0804   21523434.5144
 -20152679.71444 -15703378.24344  20433536.8074   20433536.8154
 96  2 17  2 45  0.0000000  0  7G 9G12G 7G 4G20G 5G24
 -12266518.48744  -9558322.39844  21552917.9234   21552917.5034
   9139254.552 4   7121496.675 4  24584676.300    24584674.239
  -1454967.88744  -1133732.37444  23429071.8174   23429072.6384
 -14215822.07044 -11077255.54644  21174834.7864   21174833.6834
  -8103893.30544  -6314717.35644  23673694.5414   23673693.4834
 -20015799.28544 -15596718.62444  21510382.8554   21510381.8644
 -20175737.11244 -15721345.03444  20429149.0444   20429149.1174
 96  2 17  2 45 30.0000000  0  7G 9G12G 7G 4G20G 5G24
 -12213875.89644  -9517302.21444  21562935.6064   21562935.2024
   9247522.112 4   7205860.980 4  24605278.789    24605276.905
  -1385981.77244  -1079976.97444  23442199.9394   23442198.7894
 -14159707.94144 -11033530.24344  21185512.9354   21185511.9574
  -8200086.04244  -6389672.69844  23655390.3064   23655389.8574
 -20084126.81744 -15649960.84444  21497380.3824   21497380.0084
 -20198249.26644 -15738886.96244  20424865.0784   20424865.2594
 96  2 17  2 46  0.0000000  0  6G 4G12G 7G20G 5G24
 -14103156.41844 -10989464.12244  21196274.1804   21196273.1584
   9355903.546 4   7290314.027 4  24625902.780    24625901.337
  -1316967.81844  -1026199.86344  23455332.7864   23455330.5474
  -8296219.21944  -6464581.65144  23637097.1634   23637096.6604
 -20152204.92944 -15703008.71144  21484425.4424   21484424.7364
 -20220235.15544 -15756018.81344  20420681.2294   20420681.1784
 96  2 17  2 46 30.0000000  0  6G 4G12G 7G20G 5G24
 -14046185.07844 -10945070.86444  21207115.5314   21207114.6964
   9464381.640 4   7374842.386 4  24646545.871    24646543.967
  -1247932.39444   -972406.02444  23468469.5174   23468468.2484
  -8392311.11244  -6539458.41344  23618811.2504   23618812.8654
 -20220043.17544 -15755869.67944  21471516.3664   21471515.7734
 -20241703.40144 -15772747.30644  20416596.1534   20416596.0234
 96  2 17  2 47  0.0000000  0  6G 4G 5G12G 7G20G24
 -13988770.05144 -10900331.88044  21218041.5504   21218040.4334
 -20287605.06744 -15808515.30144  21458659.7964   21458659.0504
   9572973.485 4   7459459.375 4  24667209.799    24667208.298
  -1178848.38444   -918574.31144  23481614.6074   23481614.0354
  -8488336.37244  -6614283.25144  23600537.8854   23600538.1144
 -20262628.01444 -15789052.18644  20412614.3004   20412614.5974
 96  2 17  2 47 30.0000000  0  6G 4G 5G12G 7G20G24
 -13930904.05944 -10855241.49344  21229053.0334   21229051.7234
 -20354908.44144 -15860959.48544  21445852.6274   21445851.9764
   9681685.222 4   7544169.803 4  24687897.143    24687895.637
  -1109708.86544   -864699.40044  23494771.1134   23494772.9454
  -8584279.01644  -6689043.73144  23582281.8754   23582281.4784
 -20283013.79944 -15804937.20144  20408735.2464   20408735.3014
 96  2 17  2 48  0.0000000  0  6G 4G 5G12G 7G20G24
 -13872605.50744 -10809814.05044  21240146.8054   21240145.8254
 -20421994.67944 -15913234.47044  21433086.3534   21433085.7044
   9790501.030 4   7628961.298 4  24708604.340    24708602.406
  -1040531.91444   -810795.29444  23507935.4384   23507935.2014
  -8680148.58444  -6763747.26044  23564037.9334   23564037.2824
 -20302876.45944 -15820414.58644  20404955.3214   20404955.3974
 96  2 17  2 48 30.0000000  0  6G 4G 5G12G 7G20G24
 -13813876.86444 -10764051.47244  21251322.2464   21251321.1034
 -20488863.99144 -15965340.42444  21420361.5184   21420360.9164
   9899412.209 4   7713827.129 4  24729329.230    24729327.055
   -971329.33744   -756871.20844  23521104.6134   23521105.1854
  -8775951.60644  -6838398.93044  23545805.4034   23545804.4264
 -20322232.15244 -15835496.93344  20401271.9304   20401271.9344
 96  2 17  2 49  0.0000000  0  6G 4G 5G12G 7G20G24
 -13754716.11744 -10717952.18444  21262580.3454   21262578.8974
 -20555521.58444 -16017281.40544  21407676.8874   21407676.0004
  10008415.158 4   7798764.442 4  24750072.507    24750070.259
   -902107.81144   -702932.36644  23534277.7374   23534278.3434
  -8871689.80944  -6913000.08544  23527588.7124   23527588.0914
 -20341092.46944 -15850193.27744  20397682.7594   20397682.8714
 96  2 17  2 49 30.0000000  0  6G 4G 5G12G 7G20G24
 -13695133.64444 -10671524.27644  21273918.4824   21273917.2314
 -20621982.90144 -16069069.43844  21395029.8234   21395029.2684
  10117502.581 4   7883767.580 4  24770830.886    24770828.664
   -832874.89944   -648984.66644  23547451.3154   23547451.8054
  -8967372.05244  -6987557.66244  23509381.0904   23509381.3324
 -20359446.12844 -15864494.81944  20394190.1934   20394190.3484
 96  2 17  2 50  0.0000000  0  6G 4G 5G12G 7G20G24
 -13635113.36544 -10624755.23244  21285340.0484   21285339.0364
 -20688203.13544 -16120669.61444  21382428.0914   21382427.5774
  10226690.674 4   7968849.168 4  24791608.676    24791606.470
   -763604.03044   -595007.37744  23560633.9374   23560634.2554
  -9062977.18544  -7062055.15044  23491187.5004   23491188.7894
 -20377258.25544 -15878374.38544  20390800.9684   20390800.7824
 96  2 17  2 50 30.0000000  0  6G12G 7G 4G20G 5G24
  10335967.687 4   8054000.049 4  24812403.343    24812400.907
   -694306.57144   -541009.37044  23573820.2014   23573820.7284
 -13574650.53244 -10577641.33644  21296845.6334   21296844.4154
  -9158518.94644  -7136503.20044  23473006.2294   23473006.9494
 -20754184.18744 -16172083.41544  21369872.5574   21369872.1034
 -20394536.26344 -15891837.75844  20387512.8244   20387512.8734
 96  2 17  2 51  0.0000000  0  6G 4G12G 7G20G 5G24
 -13513767.27444 -10530199.83144  21308431.1024   21308430.2394
  10445317.228 4   8139207.455 4  24833212.390    24833209.924
   -625002.74144   -487006.39644  23587008.0064   23587008.4574
  -9254023.22844  -7210922.09344  23454832.8504   23454832.3644
 -20819948.31744 -16223328.17744  21357358.0944   21357357.5364
 -20411269.97244 -15904877.00444  20384328.6184   20384328.7354
 96  2 17  2 51 30.0000000  0  7G 4G 6G12G 7G20G 5G24
 -13452451.94244 -10482421.65344  21320099.1384   21320098.1944
        -0.59354                  25359950.8004
  10554764.264 4   8224490.839 4  24854039.225    24854036.778
   -555661.99944   -432974.63644  23600202.8254   23600202.3964
  -9349460.40944  -7285288.72544  23436671.0014   23436670.8334
 -20885461.41744 -16274377.34444  21344891.2984   21344890.6454
 -20427419.45944 -15917461.00744  20381255.3074   20381255.3624
 96  2 17  2 52  0.0000000  0  8G 4G 6G16G12G 7G20G 5G24
 -13390702.85844 -10434305.48344  21331849.6834   21331848.9144
    -72987.53644                  25346061.5234
         0.17654                  24659191.1194
  10664310.787 4   8309851.739 4  24874885.002    24874883.134
   -486285.72844   -378915.25244  23613406.0804   23613407.2804
  -9444823.65544  -7359597.71044  23418523.1514   23418522.9784
 -20950713.39444 -16325223.03844  21332474.3784   21332473.7514
 -20443000.04644 -15929601.71544  20378290.5484   20378290.4774
 96  2 17  2 52 30.0000000  0  7G 6G12G 7G 4G20G 5G24
   -145966.73344                  25332171.5374
  10773904.529 4   8395249.433 4  24895739.875    24895738.020
   -416934.92644   -324875.62744  23626602.9604   23626601.9604
 -13328589.31344 -10385905.31144  21343669.4354   21343668.2334
  -9540161.36244  -7433886.80044  23400381.8384   23400381.1894
 -21015752.57444 -16375902.91044  21320098.1264   21320097.4794
 -20458063.71744 -15941339.62844  20375423.9724   20375424.1854
 96  2 17  2 53  0.0000000  0  7G 6G12G 7G 4G20G 5G24
   -218926.69544                  25318287.0554
  10883562.884 4   8480697.462 4  24916607.291    24916605.983
   -347592.08744   -270842.24344  23639798.2794   23639799.0764
 -13266118.75944 -10337226.95444  21355557.2784   21355556.5104
  -9635443.26144  -7508132.37144  23382251.1934   23382251.2634
 -21080542.41644 -16426388.49044  21307768.8944   21307768.1264
 -20472591.83844 -15952660.23244  20372659.2864   20372659.2114
 96  2 17  2 53 30.0000000  0  6G 4G12G 7G20G 5G24
 -13203275.07944 -10288257.85544  21367516.1154   21367515.3724
  10993298.877 4   8566205.999 4  24937489.328    24937487.868
   -278234.78144   -216797.63044  23652996.6284   23652996.1154
  -9730628.52744  -7582302.68144  23364136.7424   23364135.9304
 -21145065.80844 -16476666.45544  21295490.6224   21295489.9764
 -20486595.67844 -15963572.30444  20369994.5614   20369994.6794
 96  2 17  2 54  0.0000000  0  6G12G 7G 4G20G 5G24
  11103101.069 4   8651766.123 4  24958383.910    24958382.376
   -208868.34744   -162745.91044  23666196.2144   23666196.4994
 -13140053.24544 -10238994.08344  21379546.3304   21379545.4674
  -9825721.45944  -7656401.04644  23346042.8984   23346042.8964
 -21209334.48744 -16526745.94044  21283260.1424   21283259.7034
 -20500097.47844 -15974093.17744  20367425.1124   20367425.0284
 96  2 17  2 54 30.0000000  0  6G 4G12G 7G20G 5G24
 -13076435.79844 -10189422.04744  21391652.5234   21391651.6874
  11212980.034 4   8737386.078 4  24979293.377    24979292.036
   -139479.52444   -108676.71844  23679400.2814   23679401.4324
  -9920713.66144  -7730420.91244  23327965.8214   23327966.5074
 -21273327.42244 -16576610.55744  21271083.0104   21271082.4824
 -20513081.69144 -15984210.73344  20364954.2834   20364954.4404
 96  2 17  2 55  0.0000000  0  6G 4G12G 7G20G 5G24
 -13012426.10044 -10139544.35744  21403833.1994   21403832.4924
  11322912.358 4   8823047.593 4  25000212.734    25000211.300
    -70078.33144    -54597.87544  23692606.6214   23692606.1734
 -10015641.78744  -7804390.85244  23309901.9754   23309901.5654
 -21337059.05944 -16626271.57344  21258955.6364   21258955.0514
 -20525576.85144 -15993947.20944  20362576.7004   20362576.5354
 96  2 17  2 55 30.0000000  0  6G12G 7G 4G20G 5G24
  11432907.714 4   8908758.217 4  25021144.023    25021142.530
      -642.07344      -491.71944  23705819.2774   23705819.1604
 -12947998.76744 -10089341.24144  21416093.6474   21416092.4404
 -10110509.29744  -7878313.52344  23291848.4694   23291849.0024
 -21400521.62044 -16675722.90644  21246878.8484   21246878.2454
 -20537568.55144 -16003291.38344  20360294.6714   20360294.3894
 96  2 17  2 56  0.0000000  0  5G 7G 4G20G 5G24
     68816.95344     53632.19644  23719038.7674   23719037.1324
 -12883162.42344 -10038819.40944  21428431.5734   21428430.4414
 -10205335.44744  -7952203.98144  23273804.8404   23273803.8404
 -21463709.51244 -16724960.21644  21234854.4474   21234853.8804
 -20549051.27244 -16012238.94344  20358109.5374   20358109.6134
 96  2 17  2 56 30.0000000  0  7G 6G 9G 7G 4G20G 5G24
        -0.55254                  25221307.9244
        -0.52954         0.05954  21804510.6424   21804510.6364
    138323.10144    107792.81244  23732264.3034   23732264.6974
 -12817909.83744  -9987973.23344  21440848.3934   21440847.4174
 -10300084.26944  -8026034.22744  23255773.5444   23255771.7204
 -21526590.17744 -16773958.13344  21222888.5384   21222887.9264
 -20559991.78444 -16020764.00944  20356027.6514   20356027.5644
 96  2 17  2 57  0.0000000  0  7G 6G 9G 7G 4G20G 5G24
    -72554.49644                  25207500.1694
     62598.28844     48778.34144  21816422.9464   21816422.5254
    207910.87744    162017.10344  23745506.4974   23745504.9184
 -12752221.58744  -9936787.58444  21453348.8344   21453347.7864
 -10394706.21544  -8099765.59444  23237767.1744   23237765.9084
 -21589142.23144 -16822699.99144  21210985.4234   21210984.7764
 -20570357.92944 -16028841.51144  20354055.1274   20354054.9294
 96  2 17  2 57 30.0000000  0  6G 9G 7G 4G20G 5G24
    125666.20344     97922.15644  21828423.9064   21828423.7454
    277554.60644    216284.92444  23758759.9784   23758760.5204
 -12686119.22744  -9885279.24644  21465927.8394   21465926.5184
 -10489178.93244  -8173380.65444  23219789.2464   23219789.6064
 -21651389.50144 -16871204.35044  21199140.2684   21199139.7204
 -20580155.52244 -16036475.98844  20352190.5384   20352190.4554
 96  2 17  2 58  0.0000000  0  6G 9G 7G 4G20G 5G24
    189149.67744    147389.77944  21840504.7364   21840504.6994
    347195.79044    270550.74944  23772011.8444   23772012.3624
 -12619654.94544  -9833488.89944  21478575.0164   21478574.2184
 -10583519.31544  -8246892.60444  23201838.4914   23201836.5814
 -21713372.69844 -16919502.94044  21187344.9454   21187344.4734
 -20589435.47544 -16043707.10744  20350424.8344   20350424.9064
 96  2 17  2 58 30.0000000  0  6G 9G 7G 4G20G 5G24
    253038.18044    197173.01144  21852661.9894   21852661.8424
    416828.01544    324809.60544  23785261.3484   23785264.1544
 -12552841.51744  -9781426.48744  21491289.2944   21491288.2214
 -10677729.74544  -8320303.33644  23183909.9184   23183909.5544
 -21775097.97344 -16967600.54644  21175599.1134   21175598.4824
 -20598200.30544 -16050536.83344  20348756.7284   20348756.5014
 96  2 17  2 59  0.0000000  0  7G 6G 9G 7G 4G20G 5G24
        -0.40254                  25152388.5714
    317341.69044    247279.62544  21864899.2694   21864898.9444
    486463.46344    379070.90844  23798512.8574   23798515.6034
 -12485651.72544  -9729070.80244  21504075.2884   21504074.1444
 -10771802.43044  -8393606.71344  23166008.9324   23166009.7524
 -21836546.05344 -17015482.16644  21163906.2484   21163905.2924
 -20606431.09644 -16056950.42444  20347190.6144   20347190.7794
 96  2 17  2 59 30.0000000  0  6G 9G 7G 4G20G 5G24
    382025.15044    297682.30944  21877207.8814   21877207.0524
    556088.08744    433323.85544  23811762.2464   23811761.7164
 -12418110.20044  -9676441.04144  21516927.8694   21516926.7054
 -10865768.50544  -8466826.98044  23148127.2134   23148129.0974
 -21897730.98744 -17063158.74044  21152263.0214   21152261.9894
 -20614150.49044 -16062965.52344  20345721.5494   20345721.5284
 96  2 17  3  0  0.0000000  0  7G16G 9G 7G 4G20G 5G24
         0.12554                  24376069.1354
    447045.46444    348347.47644  21889580.8314   21889579.9954
    625704.56144    487570.47244  23825009.1374   23825013.0674
 -12350235.67944  -9623551.80144  21529844.1154   21529842.8544
 -10959665.72844  -8539993.62244  23130259.7234   23130260.1504
 -21958664.11244 -17110639.08644  21140667.8034   21140667.1564
 -20621379.93744 -16068598.84644  20344345.8704   20344345.8334
 96  2 17  3  0 30.0000000  0  8G 6G16G 9G 7G 4G20G 5G24
        -0.25654                  25111114.9184
    -93587.54744                  24358261.1704
    512451.73444    399313.39044  21902026.9874   21902026.5194
    695374.38544    541858.66644  23838268.2754   23838269.7264
 -12281989.82844  -9570373.21244  21542830.9664   21542829.5854
 -11053476.67444  -8613093.06744  23112407.7394   23112406.0414
 -22019293.65044 -17157882.87044  21129130.1504   21129129.5604
 -20628060.85444 -16073804.74244  20343074.5044   20343074.3034
 96  2 17  3  1  0.0000000  0  8G 6G16G 9G 7G 4G20G 5G24
    -72211.37144                  25097373.3194
   -187197.69944                  24340445.6994
    578218.06744    450559.87644  21914541.8634   21914541.3754
    765085.46844    596179.00444  23851534.0284   23851535.4574
 -12213391.74144  -9516920.15344  21555884.3304   21555883.1384
 -11147230.23744  -8686147.77444  23094567.1154   23094565.9524
 -22079647.51244 -17204911.85144  21117645.5194   21117644.7224
 -20634222.52344 -16078606.03144  20341901.9164   20341901.8644
 96  2 17  3  1 30.0000000  0  8G 6G16G 9G 7G 4G20G 5G24
   -144401.39244                  25083637.2824
   -280829.14544   -218824.92644  24322629.4604   24322627.6144
    644320.41344    502068.18344  21927120.8424   21927120.5074
    834817.80144    650515.91644  23864803.4734   23864804.9224
 -12144461.25544  -9463208.08444  21569001.4224   21569000.5644
 -11240948.78144  -8759175.18644  23076733.0244   23076732.7064
 -22139743.31944 -17251739.75044  21106209.3324   21106208.6104
 -20639882.68544 -16083016.53344  20340825.0174   20340824.7864
 96  2 17  3  2  0.0000000  0  7G16G 9G 7G 4G20G 5G24
   -374442.46644   -291768.96844  24304814.0444   24304815.4324
    710805.81544    553874.97244  21939772.8044   21939772.5194
    904602.99444    704894.58844  23878082.0234   23878078.9744
 -12075139.01144  -9409190.75044  21582193.3334   21582191.8354
 -11334580.32844  -8832134.81144  23058914.6214   23058915.1534
 -22199523.51044 -17298321.71344  21094833.7654   21094833.2194
 -20644993.18444 -16086998.73044  20339852.3834   20339852.4464
 96  2 17  3  2 30.0000000  0  7G16G 9G 7G 4G20G 5G24
   -468055.12344                  24287000.1664
    777678.24644    605983.34344  21952497.9724   21952497.8854
    974427.40644    759304.98244  23891370.1894   23891368.5444
 -12005420.90544  -9354864.95144  21595460.1144   21595458.9184
 -11428106.12844  -8905012.04544  23041117.2914   23041115.0464
 -22258983.85044 -17344654.43644  21083518.6544   21083518.0724
 -20649553.99544 -16090552.59544  20338984.4404   20338984.5404
 96  2 17  3  3  0.0000000  0  7G16G 9G 7G 4G20G 5G24
   -561679.14844   -437669.34544  24269184.9254
    844942.12844    658396.74544  21965298.0504   21965297.6444
   1044290.40544    813740.71544  23904664.1714   23904665.2034
 -11935288.33544  -9300216.20444  21608805.8854   21608805.0694
 -11521485.09644  -8977774.85944  23023347.7224   23023348.7514
 -22318121.82344 -17390735.96544  21072265.3544   21072264.7034
 -20653582.49244 -16093691.67144  20338217.7174   20338217.7424
 96  2 17  3  3 30.0000000  0  8G 6G16G 9G 7G 4G20G 5G24
        -0.31654                  25028809.1184
   -655339.31144   -510651.21944  24251362.3344   24251364.1624
    912584.52244    711105.09044  21978170.0604   21978169.8464
   1114168.06844    868191.25944  23917962.5264   23917964.0844
 -11864765.19244  -9245263.10044  21622225.9724   21622224.7824
 -11614715.08244  -9050421.59144  23005607.4494   23005608.6974
 -22376942.41744 -17436570.19044  21061072.0274   21061071.3034
 -20657099.69544 -16096432.33744  20337548.6144   20337548.6954
 96  2 17  3  4  0.0000000  0  8G 6G16G 9G 7G 4G20G 5G24
    -71879.19244    -56009.25244  25015133.9964
   -749043.82844   -583667.71144  24233530.8934   24233532.2774
    980613.87044    764114.95244  21991114.8634   21991114.9864
   1184076.44744    922665.32544  23931264.8404   23931264.4044
 -11793850.54644  -9190004.92944  21635720.3264   21635719.2054
 -11707769.81544  -9122931.71444  22987900.0454   22987900.1134
 -22435437.52644 -17482150.78544  21049940.9104   21049940.1804
 -20660105.98844 -16098774.88844  20336976.3814   20336976.4584
 96  2 17  3  4 30.0000000  0  8G 6G16G 9G 7G 4G20G 5G24
   -143726.08144                  25001462.5524
   -842808.48444   -656731.04644  24215688.1124   24215688.9414
   1049021.56144    817419.62344  22004132.7494   22004132.5894
   1254010.34044    977159.29644  23944573.1814   23944573.9154
 -11722585.18144  -9134473.47444  21649281.8884   21649280.5534
 -11800674.76844  -9195325.18844  22970220.6004   22970220.7724
 -22493636.00944 -17527500.25044  21038865.9334   21038865.2884
 -20662620.78644 -16100734.46044  20336497.8384   20336497.8424
 96  2 17  3  5  0.0000000  0  8G 6G16G 9G 7G 4G20G 5G24
   -215543.23144                  24987796.1554
   -936620.96544   -729831.62744  24197835.4114   24197837.4384
   1117802.02444    871014.77944  22017221.9324   22017221.3164
   1323962.85744   1031667.78144  23957884.3194   23957880.4224
 -11650984.92244  -9078681.06544  21662906.7314   21662905.8834
 -11893441.17844  -9267610.70344  22952567.4604   22952565.1874
 -22551542.04044 -17572621.82944  21027846.8974   21027846.2984
 -20664639.24644 -16102307.27444  20336113.6234   20336113.6684
 96  2 17  3  5 30.0000000  0  8G 6G16G 9G 7G 4G20G 5G24
   -287326.92244                  24974133.0734
  -1030470.52544   -802961.15644  24179976.7734   24179976.2254
   1186953.06744    924898.69744  22030380.7554   22030380.3284
   1393929.24544   1086187.06944  23971199.0024   23971197.1294
 -11579064.16944  -9022638.92544  21676592.9474   21676592.1284
 -11986082.84644  -9339798.98644  22934937.8034   22934938.2554
 -22609153.07344 -17617513.53644  21016884.0814   21016883.2534
 -20666143.40544 -16103479.33644  20335827.4094   20335827.4944
 96  2 17  3  6  0.0000000  0  8G 6G16G 9G 7G 4G20G 5G24
   -359073.61344                  24960480.3694
  -1124355.97244   -876118.60244  24162111.0344   24162112.1724
   1256459.26244    979059.35044  22043606.7834   22043606.8194
   1463907.20444   1140715.94144  23984514.4594   23984515.8454
 -11506849.56944  -8966367.80444  21690334.8834   21690333.8924
 -12078615.14044  -9411902.04944  22917329.8024   22917330.6804
 -22666476.29644 -17662180.97844  21005975.4904   21005974.8564
 -20667126.63344 -16104245.47744  20335640.4744   20335640.1734
 96  2 17  3  6 30.0000000  0  7G16G 9G 7G 4G20G 5G24
  -1218241.81244   -949276.36044  24144244.5954   24144244.6924
   1326336.99444   1033509.52144  22056904.3844   22056904.0674
   1533907.35544   1195263.95644  23997836.0614   23997834.9084
 -11434336.26944  -8909863.92844  21704133.6794   21704132.8414
 -12171024.68944  -9483909.46644  22899745.1494   22899745.3514
 -22723479.42444 -17706598.99944  20995128.1244   20995127.5664
 -20667573.68444 -16104593.81844  20335555.2694   20335555.1174
 96  2 17  3  7  0.0000000  0  7G16G 9G 7G 4G20G 5G24
  -1312133.35844  -1022438.57744  24126378.4874   24126376.4784
   1396554.87344   1088224.73344  22070266.9414   22070266.4884
   1603913.04244   1249812.58544  24011157.6134   24011157.7174
 -11361528.81444  -8853130.84244  21717988.8314   21717987.9344
 -12263311.72244  -9555821.42244  22882183.2274   22882183.4944
 -22780159.35844 -17750765.17644  20984342.4874   20984341.8104
 -20667495.34444 -16104532.76444  20335570.2604   20335570.3554
 96  2 17  3  7 30.0000000  0  7G16G 9G 7G 4G20G 5G24
  -1406025.30744  -1095601.09044  24108511.2504   24108510.4324
   1467123.47644   1143213.24944  22083695.8584   22083695.3744
   1673950.31544   1304387.11744  24024485.1904   24024487.6124
 -11288410.54944  -8796155.57444  21731902.7234   21731902.0344
 -12355465.63944  -9627629.63744  22864646.4114   22864648.1484
 -22836491.38644 -17794660.26844  20973622.9774   20973621.9254
 -20666882.10444 -16104054.90644  20335686.8084   20335686.9394
 96  2 17  3  8  0.0000000  0  8G 6G16G 9G 7G 4G20G 5G24
         0.20054                  24905984.1154
  -1499925.48344  -1168770.01344  24090642.2944   24090643.5374
   1538022.26244   1198459.03744  22097186.9024   22097186.8694
   1744008.62444   1358977.99944  24037817.0364   24037817.1124
 -11214983.52944  -8738939.71144  21745875.2044   21745874.1704
 -12447499.37244  -9699344.21244  22847133.6084   22847133.1304
 -22892486.62244 -17838292.91444  20962967.2974   20962966.6564
 -20665751.95044 -16103174.25944  20335901.9594   20335901.7244
 96  2 17  3  8 30.0000000  0  8G 6G16G 9G 7G 4G20G 5G24
    -71483.71144                  24892380.0804
  -1593816.88544  -1241932.10344  24072775.4044   24072778.1764
   1609261.42044   1253970.05144  22110742.7374   22110742.7104
   1814093.21244   1413589.39344  24051152.9804   24051151.0104
 -11141196.10544  -8681443.01444  21759916.4414   21759915.2554
 -12539392.02644  -9770948.87244  22829646.9564   22829647.4084
 -22948134.14644 -17881654.61444  20952377.7964   20952377.1434
 -20664109.89544 -16101894.72444  20336214.5214   20336214.6524
 96  2 17  3  9  0.0000000  0  8G 6G16G 9G 7G 4G20G 5G24
   -142937.44444   -111378.75244  24878784.6214   24878784.8814
  -1687722.61344  -1315105.37044  24054905.3204   24054905.8114
   1680834.31444   1309741.12044  22124362.6974   22124362.5294
   1884201.12344   1468218.89344  24064494.7604   24064493.7994
 -11067038.86044  -8623658.14144  21774028.0074   21774026.8044
 -12631152.58444  -9842450.57944  22812185.3084   22812185.1544
 -23003466.98244 -17924771.10744  20941848.3534   20941847.8004
 -20661959.04244 -16100218.72744  20336623.7164   20336623.5324
 96  2 17  3  9 30.0000000  0  8G 6G16G 9G 7G 4G20G 5G24
   -214340.92444   -167017.69244  24865197.6924   24865199.4914
  -1781633.85344  -1388282.93744  24037035.3064   24037036.8284
   1752760.86644   1365787.77544  22138050.7424   22138050.4134
   1954337.14944   1522870.34744  24077840.6844   24077840.7484
 -10992508.71944  -8565582.70344  21788210.9874   21788210.0124
 -12722776.70044  -9913845.98044  22794750.5274   22794750.8034
 -23058490.39244 -17967646.49044  20931377.6564   20931376.8884
 -20659312.05244 -16098156.12844  20337127.2144   20337127.2934
 96  2 17  3 10  0.0000000  0  8G 6G16G 9G 7G 4G20G 5G24
   -285696.27344   -222619.17844  24851618.0534   24851620.5444
  -1875542.46344  -1461458.44644  24019165.1054   24019164.2674
   1825035.36844   1422105.55144  22151804.0244   22151803.2174
   2024484.47944   1577530.58744  24091188.7974   24091189.1414
 -10917622.09144  -8507229.48744  21802461.1734   21802460.1274
 -12814262.17244  -9985133.33544  22777340.9394   22777340.1194
 -23113223.45144 -18010295.62644  20920962.3624   20920961.6294
 -20656191.14644 -16095724.24344  20337721.1624   20337721.1274
 96  2 17  3 10 30.0000000  0  8G 6G16G 9G 7G 4G20G 5G24
   -356984.41744   -278168.29944  24838050.4424   24838052.1204
  -1969440.49244  -1534625.67544  24001295.9644   24001299.5974
   1897671.04944   1478704.77144  22165625.9754   22165625.3844
   2094662.74144   1632214.92844  24104544.8504   24104543.6814
 -10842384.93344  -8448603.13144  21816778.4514   21816777.5174
 -12905582.22044 -10056291.80444  22759963.5334   22759962.8954
 -23167646.71644 -18052703.35844  20910606.1624   20910605.5554
 -20652579.64144 -16092910.07444  20338408.6234   20338408.6054
 96  2 17  3 11  0.0000000  0  8G 6G16G 9G 7G 4G20G 5G24
   -428230.68044   -333684.84944  24824491.8074   24824491.4644
  -2063340.48644  -1607794.52444  23983427.1774   23983430.0374
   1970659.32044   1535578.73644  22179515.1604   22179514.4114
   2164863.72044   1686916.93144  24117903.3494   24117904.4434
 -10766845.70344  -8389741.39644  21831153.1574   21831152.4424
 -12996748.45844 -10127330.40344  22742615.2564   22742614.6454
 -23221764.92544 -18094873.38644  20900307.5454   20900306.5734
 -20648476.89444 -16089713.11944  20339189.3094   20339189.3634
 96  2 17  3 11 30.0000000  0  8G 6G16G 9G 7G 4G20G 5G24
   -499446.59144   -389177.72044  24810937.6954
  -2157234.93844  -1680958.97644  23965559.4464   23965561.6224
   2043983.76744   1592714.65944  22193467.9754   22193468.2274
   2235071.61744   1741624.35844  24131262.8664   24131264.2484
 -10691029.52644  -8330663.85144  21845580.2344   21845579.5034
 -13087762.27244 -10198250.25544  22725295.3794   22725294.8684
 -23275557.57944 -18136789.74744  20890071.2244   20890070.7214
 -20643884.72144 -16086134.79244  20340063.2294   20340063.1644
 96  2 17  3 12  0.0000000  0  8G 6G16G 9G 7G 4G20G 5G24
   -570623.18144   -444639.90544  24797393.9804
  -2251116.93444  -1754113.72944  23947695.4624   23947695.8524
   2117647.85144   1650115.22044  22207485.4194   22207485.7754
   2305304.87644   1796351.49344  24144628.7544   24144629.1184
 -10614927.19344  -8271363.32444  21860062.0804   21860060.9014
 -13178599.86544 -10269032.78344  22708010.2444   22708009.7254
 -23328998.95644 -18178432.37044  20879901.6534   20879901.0714
 -20638770.71344 -16082149.84244  20341036.5104   20341036.3834
 96  2 17  3 12 30.0000000  0  8G 6G16G 9G 7G 4G20G 5G24
   -641741.13644   -500056.47944  24783861.7544   24783860.8014
  -2344974.02944  -1827249.15344  23929835.0414   23929835.9484
   2191678.52144   1707801.43744  22221573.2954   22221573.6054
   2375588.95144   1851118.29244  24158002.9494   24158004.4354
 -10538514.17744  -8211820.71844  21874603.1174   21874602.2334
 -13269238.98444 -10339660.65244  22690760.8594   22690761.6704
 -23382052.93144 -18219773.12744  20869805.8434   20869805.0154
 -20633100.94444 -16077731.83044  20342115.2264   20342115.3614
 96  2 17  3 13  0.0000000  0  8G 6G16G 9G 7G 4G20G 5G24
   -712856.68444   -555471.11444  24770328.2244   24770329.0434
  -2438851.40244  -1900400.29644  23911970.6434   23911972.3674
   2266023.51344   1765732.58744  22235721.3834   22235721.0254
   2445859.52244   1905874.57944  24171375.4924   24171376.0644
 -10461832.74344  -8152068.95644  21889195.0354   21889194.2954
 -13359741.80344 -10410182.31844  22673539.4584   22673538.3444
 -23434773.30044 -18260853.92644  20859773.4884   20859772.7204
 -20626935.56744 -16072927.62844  20343288.4854   20343288.3134
 96  2 17  3 13 30.0000000  0  8G 6G16G 9G 7G 4G20G 5G24
   -783975.41744   -610888.27944  24756794.7114   24756792.7764
  -2532759.15444  -1973575.15544  23894100.6694   23894101.5824
   2340660.82844   1823891.52144  22249923.8934   22249923.0694
   2516107.78244   1960613.48244  24184742.9304   24184741.2164
 -10384880.80844  -8092106.40744  21903838.7374   21903837.4114
 -13450118.84644 -10480605.98844  22656340.9984   22656341.4414
 -23487177.37344 -18301688.26444  20849801.3014   20849800.7874
 -20620293.16344 -16067751.72244  20344552.3024   20344552.3294
 96  2 17  3 14  0.0000000  0  8G 6G16G 9G 7G 4G20G 5G24
   -855066.67644                  24743266.5654
  -2626662.40744  -2046746.48944  23876230.7444   23876232.1234
   2415616.05244   1882298.18044  22264187.8064   22264187.2814
   2586358.50644   2015354.28044  24198111.6314   24198111.1914
 -10307626.94144  -8031908.58744  21918539.8824   21918538.6504
 -13540347.05944 -10550913.66844  22639171.3424   22639172.0764
 -23539250.89944 -18342265.03944  20839891.9624   20839891.3794
 -20613162.47644 -16062195.33244  20345909.3344   20345909.2924
 96  2 17  3 14 30.0000000  0  8G 6G16G 9G 7G 4G20G 5G24
   -926113.75844   -721645.35644  24729749.0024
  -2720525.77344  -2119886.72544  23858369.9454   23858373.1284
   2490891.85444   1940954.63844  22278512.6674   22278511.8364
   2656624.05444   2070106.69744  24211482.1314   24211483.3994
 -10230049.86344  -7971458.91444  21933301.7504   21933300.8624
 -13630414.21644 -10621095.84044  22622031.4924   22622032.0294
 -23590981.89244 -18382574.89644  20830048.0624   20830047.3214
 -20605533.36644 -16056250.56344  20347361.1144   20347361.0134
 96  2 17  3 15  0.0000000  0  8G 6G16G 9G 7G 4G20G 5G24
   -997096.62444   -776956.63044  24716241.4684   24716244.3804
  -2814322.58244  -2192975.11144  23840520.8254   23840521.2424
   2566474.75444   1999850.39844  22292895.6954   22292894.4454
   2726918.43244   2124881.50944  24224858.4054   24224858.8224
 -10152139.44944  -7910749.49744  21948127.7194   21948126.5684
 -13720304.98444 -10691140.58944  22604926.6214   22604926.1814
 -23642365.81044 -18422614.31044  20820270.0654   20820269.1264
 -20597398.91344 -16049912.02044  20348908.9544   20348908.9764
 96  2 17  3 15 30.0000000  0  8G 6G16G 9G 7G 4G20G 5G24
  -1068017.58844   -832219.66144  24702746.0774   24702746.9034
  -2908044.09344  -2266004.81344  23822686.2684   23822688.0614
   2642356.75344   2058979.22444  22307335.2854   22307334.5104
   2797249.57644   2179684.97144  24238240.7614   24238243.4904
 -10073909.85944  -7849791.37444  21963014.3304   21963013.2424
 -13810010.54244 -10761041.01644  22587857.0604   22587855.8124
 -23693395.21144 -18462377.47644  20810559.2584   20810558.2174
 -20588764.33544 -16043183.76944  20350552.2394   20350551.9654
 96  2 17  3 16  0.0000000  0  8G 6G16G 9G 7G 4G20G 5G24
  -1138872.15044                  24689261.0304
  -3001686.39044  -2338972.80444  23804866.1694   23804867.7394
   2718542.74344   2118344.91744  22321832.2804   22321832.2894
   2867627.40944   2234524.74144  24251633.2484   24251636.5164
  -9995367.62544  -7788589.63544  21977960.4164   21977959.3394
 -13899523.72944 -10830791.55344  22570822.8504   22570822.6024
 -23744055.22644 -18501852.80944  20800919.2294   20800918.6564
 -20579625.78444 -16036062.81244  20352290.9094   20352290.8554
 96  2 17  3 16 30.0000000  0  8G 6G16G 9G 7G 4G20G 5G24
  -1209678.71844   -942604.88444  24675787.7864   24675784.9464
  -3095266.61944  -2411892.41144  23787058.6034   23787059.8444
   2795010.78344   2177930.37544  22336383.1824   22336383.9814
   2938052.08544   2289401.07444  24265035.6684   24265038.0414
  -9916542.06344  -7727167.11744  21992960.4554   21992959.4724
 -13988856.82644 -10900401.74144  22553823.0634   22553822.7034
 -23794345.89344 -18541040.33844  20791349.2964   20791348.3854
 -20569981.99644 -16028548.16244  20354126.1624   20354126.1014
 96  2 17  3 17  0.0000000  0  8G 6G16G 9G 7G 4G20G 5G24
  -1280453.36344   -997753.96344  24662318.1704
  -3188803.63144  -2484778.38444  23769259.2354   23769260.1324
   2871761.81844   2237736.35244  22350989.2694   22350989.6714
   3008517.37044   2344309.02944  24278445.5104   24278444.9564
  -9837448.21944  -7665535.55544  22008012.0674   22008010.5304
 -14078018.70344 -10969878.52044  22536855.4234   22536855.8374
 -23844267.07944 -18579939.96744  20781849.4394   20781848.6714
 -20559837.91444 -16020643.67344  20356056.7014   20356056.6014
 96  2 17  3 17 30.0000000  0  8G 6G16G 9G 7G 4G20G 5G24
  -1351198.18044  -1052879.75744  24648855.4164   24648854.2294
  -3282298.58244  -2557631.52544  23751468.1054   23751468.6814
   2948816.56144   2297778.99044  22365653.0264   22365652.6054
   3079027.64144   2399252.08444  24291863.4804   24291862.9334
  -9758080.25644  -7603690.38644  22023114.9364   22023113.5874
 -14167001.98144 -11039216.12744  22519922.5334   22519921.7634
 -23893810.26044 -18618545.03844  20772421.6344   20772420.9584
 -20549189.07244 -16012345.86744  20358083.0144   20358083.0504
 96  2 17  3 18  0.0000000  0  8G 6G16G 9G 7G 4G20G 5G24
  -1421916.71244  -1107985.04844  24635400.2814   24635402.3164
  -3375758.23144  -2630457.23744  23733683.0124   23733682.6514
   3026163.37944   2358049.23044  22380371.2104   22380370.6794
   3149576.56544   2454225.28644  24305287.0944
  -9678438.47344  -7541631.84944  22038270.0854   22038268.9154
 -14255818.98444 -11108424.15244  22503021.9274   22503022.2584
 -23942988.47344 -18656865.72344  20763063.3694   20763062.4214
 -20538036.62344 -16003655.63744  20360205.2714   20360205.4044
 96  2 17  3 18 30.0000000  0  8G 6G16G 9G 7G 4G20G 5G24
  -1492588.20744  -1163053.62544  24621951.8584   24621948.7844
  -3469158.52544  -2703236.65744  23715908.2484   23715909.9064
   3103811.70444   2418554.41244  22395147.1364   22395146.8444
   3220167.45644   2509231.24144  24318721.4524
  -9598503.29044  -7479344.69444  22053481.3884   22053479.8974
 -14344454.73344 -11177490.95744  22486154.9764   22486154.8544
 -23991796.28744 -18694897.78244  20753775.5434   20753774.8124
 -20526376.98544 -15994570.19644  20362424.0394   20362424.0084
 96  2 17  3 19  0.0000000  0  8G 6G16G 9G 7G 4G20G 5G24
  -1563178.83944  -1218059.32844  24608519.7114   24608519.4044
  -3562472.84144  -2775949.06544  23698151.5474   23698154.5084
   3181787.86544   2479315.04444  22409985.2684   22409985.1144
   3290813.63444                  24332162.8814
  -9518246.52044  -7416806.95144  22068753.4364   22068752.1914
 -14432873.50044 -11246388.68244  22469329.3724   22469329.1514
 -24040218.64044 -18732629.47944  20744561.0554   20744560.3874
 -20514208.63044 -15985088.35244  20364739.4704   20364739.3274
 96  2 17  3 19 30.0000000  0  8G 6G16G 9G 7G 4G20G 5G24
  -1633707.63444  -1273016.79244  24595097.5584   24595097.7154
  -3655709.48244  -2848600.95644  23680410.0324   23680411.4144
   3260068.19844   2540312.69244  22424881.3494   22424880.8484
   3361497.01844                  24345613.7454
  -9437694.32344  -7354039.01144  22084081.9884   22084081.5564
 -14521094.01244 -11315131.91644  22452541.7324   22452541.1344
 -24088280.89344 -18770080.58544  20735415.0594   20735414.4454
 -20501556.23744 -15975229.33344  20367147.3694   20367147.1534
 96  2 17  3 20  0.0000000  0  8G 6G16G 9G 7G 4G20G 5G24
  -1704190.44344  -1327938.44144  24581685.8584   24581687.4844
  -3748877.02344  -2921199.00844  23662680.4714   23662681.6584
   3338622.70344   2601523.98544  22439830.2684   22439830.4514
   3432194.67544   2674447.09144  24359068.5924   24359069.9394
  -9356874.26744  -7291062.35044  22099461.4124   22099460.3964
 -14609129.60444 -11383731.07644  22435788.8404   22435788.7594
 -24135990.44444 -18807256.85744  20726336.5174   20726335.9274
 -20488438.47244 -15965007.69244  20369643.4524   20369643.4754
 96  2 17  3 20 30.0000000  0  8G 6G16G 9G 7G 4G20G 5G24
  -1774656.18344  -1382846.78744  24568276.0594   24568274.6494
  -3842008.06944  -2993768.62844  23644957.7434   23644959.3874
   3417419.47744   2662924.04744  22454824.2634   22454824.5454
   3502872.63644   2729520.79944  24372518.6194   24372516.2134
  -9275828.92944  -7227910.14044  22114884.2014   22114883.0094
 -14696996.02744 -11452198.41144  22419067.7294   22419067.8414
 -24183365.81444 -18844172.72744  20717320.9394   20717320.1664
 -20474889.58544 -15954450.10744  20372221.6544   20372221.5254
 96  2 17  3 21  0.0000000  0  8G 6G16G 9G 7G 4G20G 5G24
  -1845098.97844  -1437737.22944  24554870.9754   24554871.5634
  -3935093.44144  -3066302.65644  23627244.8184   23627247.2314
   3496473.55944   2724524.61144  22469867.5034   22469868.0114
   3573542.95844   2784588.56644  24385966.7354
  -9194554.72544  -7164579.58244  22130350.0374   22130349.4914
 -14784673.30744 -11520518.36244  22402383.5344   22402382.9924
 -24230378.22844 -18880805.77344  20708374.9214   20708373.7734
 -20460880.95644 -15943534.28544  20374887.3454   20374887.2294
 96  2 17  3 21 30.0000000  0  8G 6G16G 9G 7G 4G20G 5G24
  -1915520.65844  -1492611.25444  24541468.9734   24541470.4654
  -4028122.78544  -3138793.05044  23609542.0534   23609542.4934
   3575788.12244   2786328.14444  22484961.5494   22484961.8374
   3644213.13644                  24399415.7114
  -9113036.27944  -7101058.72144  22145862.4444   22145861.4794
 -14872159.03644 -11588689.05244  22385735.8574   22385735.1874
 -24277010.61044 -18917142.69444  20699501.0264   20699499.9264
 -20446395.70544 -15932247.06644  20377643.9314   20377643.5704
 96  2 17  3 22  0.0000000  0  8G 6G16G 9G 7G 4G20G 5G24
  -1985893.91444  -1547447.50144  24528077.8394   24528078.3134
  -4121082.29544  -3211229.00044  23591851.9524   23591852.5784
   3655375.37244   2848344.16544  22500106.9614   22500106.4804
   3714897.33844                  24412864.4314
  -9031256.57144  -7037334.27044  22161424.3294   22161422.1974
 -14959423.52044 -11656687.35644  22369129.5744   22369129.4514
 -24323235.26544 -18953161.90144  20690704.7684   20690704.1574
 -20431423.86944 -15920580.69244  20380492.9644   20380492.7384
 96  2 17  3 22 30.0000000  0  8G 6G16G 9G 7G 4G20G 5G24
  -2056228.58344  -1602253.65244  24514694.5444   24514693.5024
  -4213980.48644  -3283617.17444  23574173.7754   23574173.1184
   3735228.55144   2910567.41544  22515301.9204   22515300.8484
   3785593.24344                  24426318.1774
  -8949220.51944  -6973410.07744  22177035.5614   22177034.2414
 -15046486.11144 -11724528.31944  22352562.4664   22352562.6764
 -24369073.37344 -18988879.90544  20681982.1014   20681981.0534
 -20415986.58844 -15908551.63444  20383430.4484   20383430.1374
 96  2 17  3 23  0.0000000  0  7G 6G16G 9G 4G20G 5G24
  -2126509.37844  -1657017.87244  24501319.8894   24501320.5244
  -4306784.22044  -3355931.75544  23556514.1444   23556513.1554
   3815372.36644   2973017.13944  22530552.5324   22530551.9144
  -8866897.04944  -6909261.91844  22192701.1634   22192700.0534
 -15133335.37944 -11792203.05644  22336035.5134   22336036.2074
 -24414506.95944 -19024282.69944  20673336.3444   20673335.5754
 -20400069.27744 -15896148.52444  20386459.5744   20386459.5454
 96  2 17  3 23 30.0000000  0  7G 6G16G 9G 4G20G 5G24
  -2196756.24844  -1711755.73544  24487951.4134   24487950.6194
  -4399500.42944  -3428178.12244  23538870.5714   23538870.5414
   3895776.16044   3035669.42744  22545852.7304   22545852.5914
  -8784303.66544  -6844903.44344  22208418.2634   22208417.5934
 -15219990.58344 -11859726.57844  22319545.7804   22319545.2004
 -24459561.27744 -19059389.95244  20664762.5554   20664762.0064
 -20383698.04644 -15883391.71544  20389574.9464   20389574.7174
 96  2 17  3 24  0.0000000  0  8G 6G16G 9G 7G 4G20G 5G24
  -2266948.64444  -1766451.01244  24474593.3234   24474592.5964
  -4492104.99044  -3500337.51544  23521249.0254   23521249.0974
   3976453.10044   3098534.55144  22561204.6304   22561204.9414
        -0.07154                  24466706.4234
  -8701431.21644  -6780327.50744  22224188.2484   22224187.1524
 -15306427.39044 -11927079.92644  22303097.7174   22303097.3324
 -24504228.42044 -19094195.52144  20656263.0714   20656262.2624
 -20366856.08244 -15870268.09944  20392779.7574   20392779.4674
 96  2 17  3 24 30.0000000  0  8G 6G16G 9G 7G 4G20G 5G24
  -2337115.14544  -1821126.18744  24461242.5214   24461242.1154
  -4584611.89644  -3572420.78444  23503645.1414   23503646.7734
   4057378.18544   3161593.04244  22576604.2204   22576604.7324
     70784.40644                  24480176.2314
  -8618297.15344  -6715547.71944  22240007.5484   22240007.3234
 -15392671.69244 -11994283.27244  22286685.6564   22286686.1104
 -24548531.86444 -19128717.68344  20647832.2014   20647831.4254
 -20349544.39744 -15856778.46644  20396074.0424   20396073.7014
 96  2 17  3 25  0.0000000  0  8G 6G16G 9G 7G 4G20G 5G24
  -2407272.74844  -1875794.43944  24447892.5064   24447890.1084
  -4677034.36344  -3644438.24944  23486058.0534   23486058.9364
   4138539.26944   3224835.41644  22592048.7874   22592049.0144
    141574.77144    110317.79144  24493647.5534
  -8534917.44244  -6650576.51744  22255874.7574   22255874.0884
 -15478720.77244 -12061334.48644  22270311.2114   22270310.5264
 -24592478.37044 -19162961.71044  20639469.4254   20639468.7614
 -20331752.04144 -15842914.28744  20399459.7634   20399459.5374
 96  2 17  3 25 30.0000000  0  8G 6G16G 9G 7G 4G20G 5G24
  -2477412.01644  -1930448.32544  24434544.8404   24434545.3244
  -4769365.75244  -3716384.77244  23468487.3114   23468487.5324
   4219940.53444   3288264.95944  22607539.5364   22607539.1494
    212399.46144                  24507125.1164
  -8451285.83844  -6585409.03344  22271789.2764   22271788.4844
 -15564557.29044 -12128220.07644  22253977.1304   22253976.4914
 -24636067.76444 -19196927.47344  20631174.4884   20631173.8314
 -20313459.28044 -15828660.18444  20402940.7714   20402940.3464
 96  2 17  3 26  0.0000000  0  8G 6G16G 9G 7G 4G20G 5G24
  -2547553.77644  -1985104.19444  24421197.0484   24421194.4704
  -4861629.05344  -3788278.22544  23450931.0984   23450933.4114
   4301566.39944   3351869.51344  22623072.6244   22623072.3124
    283255.09044                  24520607.6414
  -8367433.47144  -6520069.54044  22287745.8944   22287745.4044
 -15650202.41344 -12194956.51144  22237678.7274   22237678.6194
 -24679313.27844 -19230625.27744  20622945.3744   20622944.6504
 -20294691.61144 -15814036.02044  20406512.2544   20406512.1174
 96  2 17  3 26 30.0000000  0  8G 6G16G 9G 7G 4G20G 5G24
  -2617698.93744  -2039762.81244  24407849.3344   24407848.7034
  -4953830.65944  -3860123.60144  23433385.4554   23433386.8884
   4383413.70444   3415646.61044  22638647.2864   22638646.7924
    354149.05244                  24534096.7234
  -8283386.53344  -6454578.41744  22303739.4134   22303737.9934
 -15735650.44144 -12261539.37344  22221418.8904   22221418.3184
 -24722194.19344 -19264038.97944  20614785.5614   20614784.6384
 -20275457.66244 -15799048.52144  20410172.5234   20410172.1304
 96  2 17  3 27  0.0000000  0  8G 6G16G 9G 7G 4G20G 5G24
  -2687835.70844  -2094414.82544  24394503.4394   24394502.2194
  -5045951.64244  -3931906.16144  23415854.9794   23415856.4954
   4465489.23744   3479601.55844  22654265.4274   22654264.6054
    425092.53244                  24547599.1454
  -8199144.83644  -6388935.53344  22319769.4934   22319769.2274
 -15820885.04344 -12327955.93844  22205199.1704   22205199.6144
 -24764690.07844 -19297152.65744  20606698.7644   20606698.0574
 -20255761.70444 -15783701.01544  20413920.1394   20413920.3984
 96  2 17  3 27 30.0000000  0  7G 6G16G 9G 4G20G 5G24
  -2757934.43044  -2149037.19844  24381164.7994   24381162.9064
  -5137976.85044  -4003614.09044  23398342.8294   23398344.1874
   4547796.65444   3543737.20144  22669928.0034   22669928.5844
  -8114704.95944  -6323138.23644  22335838.4844   22335838.0474
 -15905889.67544 -12394193.30344  22189023.8394   22189023.4194
 -24806755.67544 -19329931.04344  20598693.8884   20598693.2464
 -20235606.20544 -15767995.42744  20417755.7054   20417755.6584
 96  2 17  3 28  0.0000000  0  8G 6G16G 9G 7G 4G20G 5G24
  -2827967.21844  -2203608.14444  24367837.2944   24367835.0964
  -5229877.22744  -4075224.74744  23380854.5754   23380855.9814
   4630357.91944   3608070.62944  22685638.5744   22685638.8454
         0.12854                  24574630.0344
  -8030055.01644  -6257177.24144  22351946.9814   22351946.0274
 -15990633.79144 -12460227.66944  22172897.5294   22172897.1164
 -24848341.47444 -19362335.56244  20590780.2404   20590779.6544
 -20214975.19644 -15751919.31144  20421681.7914   20421681.6784
 96  2 17  3 28 30.0000000  0  8G 6G16G 9G 7G 4G20G 5G24
  -2897912.62944  -2258111.04644  24354525.0684   24354524.5484
  -5321618.38444  -4146711.33444  23363397.7924   23363398.7004
   4713195.92744   3672619.70944  22701402.7304   22701402.1704
     71094.85444                  24588158.3694
  -7945163.45044  -6191027.95844  22368101.0854   22368100.5814
 -16075095.65044 -12526042.10144  22156824.9614   22156824.4344
 -24889430.13544 -19394352.70244  20582961.5734   20582960.5184
 -20193846.85544 -15735455.66144  20425702.1164   20425702.2764
 96  2 17  3 29  0.0000000  0  8G 6G16G 9G 7G 4G20G 5G24
  -2967788.70844  -2312559.90044  24341229.0704   24341227.3784
  -5413202.68344  -4218075.71444  23345970.2274   23345970.7504
   4796291.44644   3737369.45444  22717215.7234   22717214.8934
    142219.78544                  24601691.9024
  -7860027.77744  -6124688.48144  22384302.3114   22384301.2334
 -16159309.33044 -12591663.13644  22140799.5914   22140799.2624
 -24930053.34044 -19426007.14944  20575231.3074   20575230.4934
 -20172241.60844 -15718620.40044  20429813.7244   20429813.5124
 96  2 17  3 29 30.0000000  0  8G 6G16G 9G 7G 4G20G 5G24
  -3037573.23244  -2366937.45944  24327949.5054   24327949.8674
  -5504599.16144  -4289293.71144  23328576.9854   23328577.7314
   4879681.03144   3802348.34044  22733084.6194   22733084.1384
    213409.31244                  24615238.5884
  -7774619.51144  -6058136.58544  22400555.1894   22400554.7954
 -16243240.75044 -12657064.22744  22124827.1544   22124827.4224
 -24970196.23144 -19457287.32144  20567592.3094   20567591.5884
 -20150144.75344 -15701402.06544  20434018.3444   20434018.3134
 96  2 17  3 30  0.0000000  0  8G 6G16G 9G 7G 4G20G 5G24
  -3107298.07044  -2421268.46644  24314680.9444   24314681.2934
  -5595805.39244  -4360363.48044  23311220.8864   23311221.5244
   4963354.33344   3867548.29944  22749006.8394   22749006.9144
    284643.87344                  24628795.1704
  -7688951.84544  -5991382.57144  22416857.2934   22416856.0984
 -16326904.16944 -12722256.49544  22108907.0114   22108906.7244
 -25009915.67244 -19488237.54144  20560033.9054   20560033.1794
 -20127570.94944 -15683812.08244  20438314.1474   20438314.0354
 96  2 17  3 30 30.0000000  0  8G 6G16G 9G 7G 4G20G 5G24
  -3176970.95744  -2475558.96544  24301421.7714   24301422.1634
  -5686844.15044  -4431302.74244  23293896.7884   23293897.4084
   5047291.50044   3932953.85744  22764979.4394   22764979.7194
    355918.37944                  24642357.6784
  -7603037.43844  -5924436.28544  22433205.8684   22433205.4754
 -16410319.36544 -12787255.34644  22093033.7204   22093033.1134
 -25049241.30544 -19518880.89144  20552550.5284   20552549.9474
 -20104531.15644 -15665858.99344  20442698.4934   20442698.2994
 96  2 17  3 31  0.0000000  0  7G 6G16G 9G 4G20G 5G24
  -3246599.03744  -2529814.58344  24288171.9814   24288175.0614
  -5777733.10444  -4502125.30044  23276601.2194   23276602.0904
   5131475.66044   3998551.88644  22780998.6074   22780998.5194
  -7516892.30944  -5857310.21244  22449598.8764   22449597.5094
 -16493479.00644 -12852055.06844  22077209.5574   22077209.0824
 -25088177.57344 -19549220.84244  20545141.2284   20545140.4004
 -20081034.19844 -15647549.66844  20447169.7294   20447169.7224
 96  2 17  3 31 30.0000000  0  7G 6G16G 9G 4G20G 5G24
  -3316223.77844  -2584067.57844  24274924.1794   24274923.8324
  -5868521.46044  -4572869.45044  23259324.7024   23259325.6884
   5215863.44044   4064308.58544  22797056.6734   22797057.0404
  -7430557.84844  -5790036.60644  22466027.3004   22466027.1314
 -16576404.79744 -12916672.54944  22061428.7094   22061428.3494
 -25126754.76844 -19579280.99644  20537799.9574   20537799.2914
 -20057112.39344 -15628909.29544  20451721.9504   20451721.9634
 96  2 17  3 32  0.0000000  0  7G 6G16G 9G 4G20G 5G24
  -3385787.78844  -2638273.27944  24261686.4164   24261685.9964
  -5959181.97344  -4643513.98044  23242072.5204   23242074.3054
   5300472.14244   4130237.42744  22813157.9394   22813156.9194
  -7343995.94044  -5722585.77444  22482499.5914   22482499.1864
 -16659070.93744 -12981087.71844  22045697.8594   22045697.5454
 -25164921.12844 -19609021.01744  20530537.2694   20530536.4614
 -20032724.90944 -15609906.05444  20456362.7434   20456362.5994
 96  2 17  3 32 30.0000000  0  8G 6G16G 9G 7G 4G20G 5G24
  -3455316.11744  -2692451.15444  24248455.5624   24248454.9094
  -6049753.36244  -4714089.06344  23224837.8394   23224838.5574
   5385253.74344   4196301.00744  22829291.5774   22829291.2394
        -0.43754                  24696641.8624
  -7257243.39044  -5654986.38944  22499008.1904   22499007.5724
 -16741511.13944 -13045326.83244  22030010.0164   22030010.0964
 -25202684.42944 -19638446.96644  20523351.1804   20523350.4224
 -20007919.44844 -15590577.12044  20461083.0534   20461082.8814
 96  2 17  3 33  0.0000000  0  7G 6G16G 9G 4G20G 5G24
  -3524818.20844  -2746608.59144  24235230.1464   24235229.7454
  -6140218.87344  -4784581.64144  23207622.5974   23207624.0474
   5470203.61744   4262495.70144  22845456.7954   22845456.7524
  -7170302.70544  -5587240.41244  22515552.2374   22515550.9934
 -16823718.69144 -13109384.66944  22014366.8004   22014366.4404
 -25240032.59344 -19667549.43644  20516244.2394   20516243.5684
 -19982703.31644 -15570928.17644  20465881.5024   20465881.3804
 96  2 17  3 33 30.0000000  0  7G 6G16G 9G 4G20G 5G24
  -3594287.23944  -2800740.30244  24222009.5304   24222007.6474
  -6230570.31444  -4854985.32644  23190429.4074   23190429.9764
   5555309.27844   4328811.77744  22861651.8394   22861652.0484
  -7083177.88344  -5519350.93444  22532132.0534   22532131.1924
 -16905699.06644 -13173265.47344  21998766.2124   21998765.8194
 -25276962.30144 -19696325.83344  20509216.8614   20509215.9954
 -19957076.63744 -15550959.33144  20470758.0724   20470758.0844
 96  2 17  3 34  0.0000000  0  7G 6G16G 9G 4G20G 5G24
  -3663711.07644  -2854836.75144  24208798.8894   24208797.3354
  -6320770.15044  -4925270.88844  23173264.9784   23173265.6664
   5640584.06844   4395259.64844  22877879.7744   22877878.9884
  -6995861.61844  -5451312.28844  22548747.2384   22548746.0434
 -16987426.48444 -13236949.16144  21983213.3364   21983212.9424
 -25313460.66244 -19724766.11444  20502271.1654   20502270.5804
 -19931022.39344 -15530657.31744  20475716.0864   20475716.0484
 96  2 17  3 34 30.0000000  0  7G 6G16G 9G 4G20G 5G24
  -3733095.60744  -2908902.55644  24195595.6484   24195594.9404
  -6410789.50844  -4995415.81144  23156134.8204   23156134.4774
   5726054.85044   4461860.23644  22894143.5034   22894143.8134
  -6908341.51844  -5383114.81044  22565401.6434   22565400.1624
 -17068871.33544 -13300412.66444  21967715.7024   21967715.1474
 -25349513.75544 -19752859.43644  20495410.3394   20495409.7124
 -19904509.62344 -15509998.01044  20480761.2924   20480760.9134
 96  2 17  3 35  0.0000000  0  8G 6G16G 9G 7G 4G20G 5G24
  -3802457.55044  -2962950.80844  24182396.4524   24182396.3614
  -6500630.79044  -5065421.98244  23139038.1584   23139039.0124
   5811713.68744   4528607.35944  22910443.9944   22910444.0854
        -0.12154                  24764576.8574
  -6820611.61544  -5314753.85344  22582096.4364   22582096.1034
 -17150044.12044 -13363664.18844  21952268.9244   21952268.4804
 -25385133.57744 -19780615.14244  20488632.4274   20488631.8514
 -19877531.05144 -15488975.73744  20485895.1394   20485894.9114
 96  2 17  3 35 30.0000000  0  8G 6G16G 9G 7G 4G20G 5G24
  -3871819.09444  -3016998.73744  24169197.6334   24169197.5544
  -6590308.57344  -5135300.75244  23121972.9564   23121974.4034
   5897549.04044   4595492.03144  22926777.4624   22926777.2744
     71522.37344                  24778185.4544
  -6732682.16144  -5246237.40744  22598828.6294   22598827.7864
 -17230960.48544 -13426715.89344  21936870.6444   21936870.1454
 -25420341.55744 -19808049.93344  20481932.4484   20481931.6934
 -19850100.08744 -15467600.95344  20491115.3474   20491115.1974
 96  2 17  3 36  0.0000000  0  8G 6G16G 9G 7G 4G20G 5G24
  -3941177.19344  -3071044.00344  24155998.3694   24155998.8564
  -6679814.60944  -5205045.68044  23104940.7104   23104940.8224
   5983585.23144   4662533.20544  22943150.1444   22943150.0144
    143077.61344                  24791803.8594
  -6644537.26144  -5177553.07744  22615602.1524   22615600.4614
 -17311617.25644 -13489565.32144  21921522.1154   21921522.3394
 -25455127.61344 -19835155.95444  20475312.8004   20475312.0564
 -19822206.55744 -15445865.72844  20496423.2364   20496422.9184
 96  2 17  3 36 30.0000000  0  8G 6G16G 9G 7G 4G20G 5G24
  -4010517.63644  -3125075.46644  24142804.0754   24142804.6114
  -6769153.86044  -5274660.67544  23087939.9424   23087941.2024
   6069827.24344   4729734.76444  22959561.6924   22959562.0344
    214639.24744                  24805421.2034
  -6556178.74144  -5108702.28444  22632416.1574   22632413.9144
 -17392023.28644 -13552219.36144  21906221.4944   21906221.5474
 -25489484.21344 -19861927.32944  20468775.0284   20468774.5174
 -19793847.50144 -15423767.75644  20501819.3584   20501819.1204
 96  2 17  3 37  0.0000000  0  8G 6G16G 9G 7G 4G20G 5G24
  -4079827.63144  -3179083.27344  24129614.2744   24129612.3494
  -6858320.57944  -5344141.20244  23070972.8494   23070973.8774
   6156269.91044   4797092.67444  22976011.2254   22976010.8894
    286207.14244                  24819040.0734
  -6467617.31744  -5039693.39944  22649268.5724   22649267.9824
 -17472165.32044 -13614667.68244  21890970.6134   21890970.4054
 -25523402.25144 -19888356.97544  20462320.6834   20462319.7394
 -19765037.38244 -15401318.30644  20507301.7904   20507301.3894
 96  2 17  3 37 30.0000000  0  8G 6G16G 9G 7G 4G20G 5G24
  -4149117.58844  -3233075.42544  24116428.7974   24116428.4514
  -6947342.84944  -5413509.18744  23054032.1524   23054032.1334
   6242900.95944   4864597.36644  22992496.5864   22992496.9914
    357776.82044                  24832656.8914
  -6378894.86744  -4970559.02644  22666152.0534   22666150.3714
 -17552042.11944 -13676909.34244  21875771.0954   21875770.7434
 -25556898.53944 -19914457.98244  20455946.5664   20455946.0524
 -19735810.45444 -15378544.06744  20512863.6674   20512863.6434
 96  2 17  3 38  0.0000000  0  8G 6G16G 9G 7G 4G20G 5G24
  -4218357.89244  -3287028.87944  24103253.8774   24103253.3494
  -7036208.35644  -5482755.02044  23037121.4694   23037122.6494
   6329730.96344   4932257.08944  23009018.9304   23009019.6644
    429362.27944                  24846280.2824
  -6290008.13044  -4901296.62244  22683067.2914   22683066.1384
 -17631636.60844 -13738931.01544  21860624.4054   21860623.8484
 -25589958.50244 -19940218.98944  20449655.4084   20449654.6064
 -19706164.95744 -15355443.67844  20518505.1354   20518504.8114
 96  2 17  3 38 30.0000000  0  7G 6G16G 9G 4G20G 5G24
  -4287538.95344  -3340936.17844  24090088.3764   24090088.7654
  -7124897.41544  -5551863.35944  23020244.8994   23020246.0344
   6416762.05244   5000073.49144  23025580.0844   23025581.6034
  -6200959.67744  -4831908.22044  22700011.6884   22700011.1634
 -17710927.49944 -13800716.11744  21845535.6634   21845535.5424
 -25622567.83844 -19965628.86744  20443450.0964   20443449.4994
 -19676115.31044 -15332028.36644  20524223.1704   20524222.8054
 96  2 17  3 39  0.0000000  0  8G 6G16G 9G 7G 4G20G 5G24
  -4356681.84944  -3394813.70344  24076930.8674   24076928.8934
  -7213424.53844  -5620845.50344  23003398.0104   23003399.1514
   6503977.18844   5068033.30944  23042177.2564   23042177.7974
         0.11754                  24873541.0264
  -6111749.03644  -4762393.44344  22716988.6584   22716988.2474
 -17789916.75344 -13862266.18544  21830504.4434   21830504.5144
 -25654731.91744 -19990691.78544  20437329.6134   20437329.0164
 -19645677.96844 -15308310.95344  20530015.2344   20530015.0354
 96  2 17  3 39 30.0000000  0  8G 6G16G 9G 7G 4G20G 5G24
  -4425804.85244  -3448675.76944  24063777.8814   24063776.5864
  -7301801.58744  -5689710.71644  22986580.5814   22986581.9304
   6591366.28844   5136128.69044  23058806.5884   23058806.1714
     71672.82444                  24887180.5914
  -6022375.31844  -4692751.57544  22733996.6544   22733995.2514
 -17868635.74444 -13923605.65044  21815525.4614   21815525.3844
 -25686454.28844 -20015410.51844  20431292.9164   20431292.0124
 -19614852.06444 -15284290.76744  20535881.3284   20535881.0654
 96  2 17  3 40  0.0000000  0  8G 6G16G 9G 7G 4G20G 5G24
  -4494936.39144  -3502544.52544  24050622.2784   24050621.5204
  -7390030.18844  -5758460.26744  22969791.3394   22969791.6494
   6678890.13444   5204329.08244  23075462.4164   23075462.0114
    143354.55244                  24900820.6324
  -5932865.38544  -4623003.57044  22751028.8204   22751028.2974
 -17947123.86044 -13984765.20644  21800589.9344   21800589.8774
 -25717747.91344 -20039795.16544  20425338.0534   20425337.1794
 -19583643.89144 -15259972.70244  20541820.0744   20541819.6524
 96  2 17  3 40 30.0000000  0  7G 6G16G 9G 4G20G 5G24
  -4564051.99744  -3556400.80644  24037469.4424   24037469.5224
  -7478062.82144  -5827057.08744  22953039.4124   22953039.6594
   6766573.41844   5272653.69744  23092147.2684   23092146.7954
  -5843183.90244  -4553121.90844  22768094.9984   22768093.5504
 -18025341.62844 -14045714.11544  21785705.7774   21785705.4774
 -25748566.24444 -20063809.45044  20419473.4724   20419472.7504
 -19551999.43744 -15235314.68544  20547841.8454   20547841.7274
 96  2 17  3 41  0.0000000  0  7G 6G16G 9G 4G20G 5G24
  -4633150.36144  -3610243.65344  24024319.7214   24024322.8014
  -7565894.46644  -5895497.30244  22936324.9364   22936325.9534
   6854397.54944   5341088.06044  23108860.4854   23108859.3614
  -5753328.46544  -4483104.69044  22785193.8214   22785193.1954
 -18103285.05844 -14106449.25844  21770873.1704   21770873.4154
 -25778907.77144 -20087452.20444  20413699.6054   20413698.8964
 -19519896.78344 -15210299.62444  20553950.5264   20553950.6004
 96  2 17  3 41 30.0000000  0  7G 6G16G 9G 4G20G 5G24
  -4702210.31744  -3664056.56744  24011178.4894   24011179.0964
  -7653494.72244  -5963757.23244  22919655.4174   22919656.3624
   6942359.07944   5409629.50244  23125599.4324   23125598.8064
  -5663301.90544  -4412954.12444  22802325.7854   22802324.9474
 -18180941.30344 -14166960.61044  21756095.3854   21756095.0964
 -25808767.63544 -20110719.63244  20408017.5254   20408016.8614
 -19487341.47744 -15184931.85044  20560145.6264   20560145.6024
 96  2 17  3 42  0.0000000  0  7G 6G16G 9G 4G20G 5G24
  -4771191.89244  -3717808.42544  23998052.7024   23998051.6074
  -7740828.08444  -6031809.17544  22903036.4844   22903037.7564
   7030478.77444   5478294.18644  23142367.5934   23142366.9544
  -5573082.90944  -4342653.61144  22819493.6654   22819491.9964
 -18258262.90444 -14227211.20544  21741381.4274   21741381.3804
 -25838143.82844 -20133610.17544  20402427.3064   20402426.3694
 -19454327.87244 -15159206.96344  20566427.8594   20566427.5974
 96  2 17  3 42 30.0000000  0  7G20G 6G16G 9G 4G 5G24
 -18335238.86344 -14287192.46544  21726733.7894   21726733.4264
  -4840088.68744  -3771494.24044  23984941.8154   23984941.2974
  -7827905.90744  -6099661.99344  22886466.0994   22886467.1024
   7118762.01344   5547086.28444  23159167.5834   23159167.3054
  -5482656.92144  -4272191.80344  22836700.9734   22836699.4164
 -25867041.69144 -20156127.99544  20396928.3394   20396927.6184
 -19420872.43444 -15133137.78444  20572794.3754   20572794.0254
 96  2 17  3 43  0.0000000  0  7G20G 6G16G 9G 4G 5G24
 -18411892.61944 -14346922.66144  21712147.3674   21712146.7364
  -4908925.62844  -3825133.40344  23971841.7764   23971842.8584
  -7914758.20844  -6167339.09544  22869938.4254   22869939.6894
   7207189.54044   5615990.83544  23175994.5754   23175994.2924
  -5392056.15344  -4201593.80944  22853941.1094   22853940.5034
 -25895488.92444 -20178294.67144  20391514.9694   20391514.2414
 -19387020.89744 -15106759.96044  20579236.0574   20579236.0274
 96  2 17  3 43 30.0000000  0  7G 6G16G 9G 4G20G 5G24
  -4977706.80844  -3878729.10244  23958752.0424   23958754.0054
  -8001394.51044  -6234847.87144  22853452.1784   22853453.8594
   7295777.00744   5685020.02044  23192851.8704   23192852.5124
  -5301287.52344  -4130865.01044  22871214.5404   22871213.6534
 -18488226.00044 -14406403.21744  21697621.1034   21697621.0794
 -25923489.87244 -20200113.59744  20386186.4514   20386185.4564
 -19352780.93944 -15080079.47144  20585751.7694   20585751.7394
 96  2 17  3 44  0.0000000  0  7G20G 6G16G 9G 4G 5G24
 -18564257.35544 -14465648.42444  21683153.0064   21683153.2624
  -5046471.06044  -3932311.57244  23945668.1404   23945670.4224
  -8087841.67544  -6302209.28644  22837002.1364   22837002.9104
   7384513.07544   5754164.97944  23209737.7324   23209738.3094
  -5210379.01044  -4060027.20444  22888513.6314   22888511.5514
 -25951053.75444 -20221591.95344  20380941.3254   20380940.5544
 -19318153.10444 -15053096.73644  20592341.0274   20592341.0894
 96  2 17  3 44 30.0000000  0  7G20G 6G16G 9G 4G 5G24
 -18640000.76144 -14524669.24644  21668739.3754   21668739.2124
  -5115245.77344  -3985902.19344  23932580.6444   23932582.3004
  -8174117.55344  -6369437.22444  22820584.0154   22820584.5094
   7473374.06044   5823407.28744  23226646.8664   23226646.4134
  -5119355.59944  -3989099.86844  22905834.5874   22905832.7544
 -25978165.30344 -20242717.83544  20375782.1274   20375781.2754
 -19283135.94444 -15025810.63844  20599004.7354   20599004.4654
 96  2 17  3 45  0.0000000  0  7G20G 6G16G 9G 4G 5G24
 -18715436.54044 -14583450.36744  21654384.2484   21654384.0084
  -5184022.92744  -4039494.77944  23919493.4014   23919494.2194
  -8260192.20244  -6436508.35444  22804204.7244   22804205.1054
   7562370.78744   5892755.38944  23243583.6954   23243583.3264
  -5028215.09844  -3918081.30744  22923178.4244   22923177.1914
 -26004803.45144 -20263474.84544  20370712.8964   20370712.3524
 -19247705.11444 -14998202.19444  20605746.8534   20605746.4884
 96  2 17  3 45 30.0000000  0  7G20G 6G16G 9G 4G 5G24
 -18790544.29644 -14641975.89744  21640091.5744   21640090.8564
  -5252787.53544  -4093077.58244  23906406.8624   23906408.2684
  -8346055.12344  -6503414.50844  22787865.7814   22787867.2644
   7651504.76944   5962210.42444  23260544.7694   23260545.2404
  -4936939.37244  -3846957.36644  22940547.5524   22940546.2194
 -26030961.20744 -20283857.51244  20365735.5294   20365734.7334
 -19211836.52144 -14970252.63844  20612572.4044   20612572.5154
 96  2 17  3 46  0.0000000  0  7G20G 6G16G 9G 4G 5G24
 -18865304.04544 -14700230.24744  21625865.5244   21625865.6404
  -5321518.96744  -4146634.52344  23893327.1334   23893328.6964
  -8431677.12144  -6570132.93844  22771572.4034   22771572.6694
   7740782.23444   6031777.25144  23277533.6584   23277533.7794
  -4845503.32644  -3775708.50544  22957946.8584   22957945.0724
 -26056621.03844 -20303852.19244  20360852.6084   20360851.7434
 -19175524.97944 -14941957.93044  20619482.5324   20619482.1864
 96  2 17  3 46 30.0000000  0  7G20G 6G16G 9G 4G 5G24
 -18939707.60044 -14758207.03744  21611707.1894   21611707.3194
  -5390180.41744  -4200136.91044  23880262.4624   23880263.7464
  -8517041.65844  -6636650.74844  22755327.8264   22755327.8024
   7830214.87744   6101465.02244  23294551.8104   23294551.4164
  -4753879.42244  -3704313.24444  22975382.7594   22975381.7094
 -26081781.01044 -20323457.36744  20356064.7954   20356064.2184
 -19138773.78144 -14913320.62544  20626476.1614   20626475.8974
 96  2 17  3 47  0.0000000  0  7G20G 6G16G 9G 4G 5G24
 -19013780.68444 -14815926.31244  21597611.3254   21597610.9584
  -5458792.40544  -4253600.80044  23867205.7784   23867205.6554
  -8602164.05644  -6702979.87644  22739129.9874   22739130.7874
   7919785.17144   6171260.04144  23311596.5904   23311597.0324
  -4662081.41944  -3632782.33944  22992851.6404   22992850.1784
 -26106486.86344 -20342708.68644  20351363.5294   20351362.7254
 -19101624.72244 -14884373.30544  20633545.0964   20633545.0354
 96  2 17  3 47 30.0000000  0  7G20G 6G16G 9G 4G 5G24
 -19087532.60044 -14873395.34044  21583576.9144   21583576.3394
  -5527361.64044  -4307031.33144  23854156.9964   23854157.5824
  -8687053.21744  -6769127.25144  22722975.2794   22722975.7934
   8009492.04044   6241161.47444  23328667.3244   23328667.9424
  -4570113.15544  -3561118.75644  23010352.1174   23010351.6044
 -26130747.31544 -20361612.93944  20346746.8154   20346746.0654
 -19064104.12044 -14855136.47044  20640684.9974   20640684.7254
 96  2 17  3 48  0.0000000  0  7G20G 6G16G 9G 4G 5G24
 -19160972.91444 -14930621.55944  21569601.8774   21569601.3984
  -5595892.13844  -4360431.67944  23841116.3204   23841117.7974
  -8771696.25144  -6835082.84644  22706869.2964   22706870.0264
   8099344.28544   6311176.19044  23345765.4174   23345767.0484
  -4477977.35544  -3489324.64144  23027885.2434   23027885.3134
 -26154551.81044 -20380161.90144  20342217.0274   20342216.0724
 -19026224.16244 -14825619.61244  20647893.3344   20647893.2044
 96  2 17  3 48 30.0000000  0  7G20G 6G16G 9G 4G 5G24
 -19234117.68544 -14987617.48644  21555682.7594   21555682.4894
  -5664415.59944  -4413826.57644  23828076.8724   23828075.8734
  -8856118.90444  -6900866.71044  22690803.3874   22690803.3654
   8189313.80244   6381282.28344  23362886.0904   23362887.5144
  -4385713.51944  -3417430.74344  23045442.3634   23045441.8544
 -26177909.69144 -20398362.85244  20337772.0094   20337771.3914
 -18987998.20044 -14795833.14844  20655167.5364   20655167.5764
 96  2 17  3 49  0.0000000  0  7G20G 6G16G 9G 4G 5G24
 -19306961.91844 -15044379.21944  21541821.2384   21541820.7694
  -5732954.32444  -4467233.33344  23815034.3834   23815034.0254
  -8940322.34244  -6966479.76044  22674780.0114   22674780.5964
   8279387.58044   6451469.61644  23380026.3894   23380025.7024
  -4293339.02844  -3345450.61544  23063020.6354   23063020.2564
 -26200812.67344 -20416209.33644  20333413.8574   20333413.0604
 -18949426.69844 -14765777.42944  20662507.4074   20662507.3134
 96  2 17  3 49 30.0000000  0  7G20G 6G16G 9G 4G 5G24
 -19379498.53844 -15100901.25544  21528017.6744   21528017.3214
  -5801500.93344  -4520646.23544  23801990.9744   23801991.0084
  -9024303.17444  -7031919.36544  22658798.6684   22658800.0214
   8369557.36344   6521731.77344  23397185.5114   23397185.5464
  -4200863.60144  -3273391.84844  23080617.7724   23080617.3604
 -26223235.64144 -20433681.78644  20329146.9504   20329146.1084
 -18910493.74844 -14735440.06244  20669916.0284   20669916.0924
 96  2 17  3 50  0.0000000  0  7G20G 6G16G 9G 4G 5G24
 -19451735.93944 -15157190.15644  21514271.3574   21514271.2484
  -5870061.81144  -4574070.27344  23788943.4664   23788943.9264
  -9108075.19144  -7097196.25244  22642857.8754   22642858.5144
   8459787.40344   6592040.87444  23414356.4904   23414356.9544
  -4108312.09944  -3201273.80644  23098230.0374   23098230.2524
 -26245184.59944 -20450784.87444  20324969.9824   20324969.3704
 -18871200.69844 -14704822.09744  20677393.4384   20677393.1934
 96  2 17  3 50 30.0000000  0  7G20G 6G16G 9G 4G 5G24
 -19523643.10444 -15213221.70844  21500587.4734   21500587.4864
  -5938606.42444  -4627481.62444  23775900.7104   23775900.3094
  -9191605.12944  -7162284.48644  22626962.3724   22626962.7874
   8550081.60644   6662399.98244  23431538.5534   23431538.9334
  -4015670.51244  -3129085.55844  23115859.1804   23115857.5414
 -26266639.44644 -20467502.94244  20320887.4274   20320886.7944
 -18831520.81044 -14673902.69944  20684944.0344   20684943.7304
 96  2 17  3 51  0.0000000  0  7G20G 6G16G 9G 4G 5G24
 -19595206.87144 -15268985.67844  21486969.5744   21486969.2424
  -6007110.38544  -4680861.31044  23762864.4494   23762863.4824
  -9274875.39344  -7227170.38944  22611116.9244   22611117.5774
   8640452.90044   6732819.15444  23448735.8234   23448735.9924
  -3922927.07044  -3056817.92644  23133507.9324   23133505.6014
 -26287599.34244 -20483835.33444  20316898.7884   20316898.0394
 -18791451.41344 -14642679.78844  20692569.3024   20692569.0334
 96  2 17  3 51 30.0000000  0  7G20G 6G16G 9G 4G 5G24
 -19666424.10744 -15324479.63544  21473417.7654   21473417.2924
  -6075569.06444  -4734205.70044  23749837.0794   23749836.8544
  -9357886.40744  -7291854.28544  22595320.2244   22595321.3724
   8730898.67644   6803296.37344  23465946.5454   23465947.1584
  -3830082.41844  -2984471.43344  23151175.6944   23151173.9614
 -26308063.14344 -20499781.15744  20313004.8354   20313004.2284
 -18750995.10944 -14611155.39544  20700267.7334   20700267.8994
 96  2 17  3 52  0.0000000  0  7G20G 6G16G 9G 4G 5G24
 -19737263.01544 -15379678.78344  21459937.4554   21459937.1014
  -6143951.02644  -4787490.32644  23736824.6234   23736824.3824
  -9440602.33644  -7356308.24244  22579579.9324   22579580.2874
   8821453.25544   6873858.35644  23483178.8924   23483179.4864
  -3737110.10344  -2912025.48744  23168867.3344   23168865.7574
 -26328016.89944 -20515329.54544  20309207.7314   20309206.9094
 -18710137.58244 -14579318.36144  20708042.5254   20708042.3174
 96  2 17  3 52 30.0000000  0  7G20G 6G16G 9G 4G 5G24
 -19807725.23844 -15434584.40744  21446528.7634   21446528.6804
  -6212264.53344  -4840721.59044  23723825.5494   23723824.4514
  -9523021.51644  -7420530.95344  22563896.1694   22563897.6834
   8912133.44644   6944518.21444  23500435.2154   23500436.8724
  -3644005.27944  -2839476.27444  23186584.5094   23186584.1934
 -26347472.30744 -20530489.60944  20305505.3094   20305504.7974
 -18668884.40544 -14547173.02344  20715892.7294   20715892.7714
 96  2 17  3 53  0.0000000  0  7G20G 6G16G 9G 4G 5G24
 -19877810.96644 -15489196.66344  21433191.8814   21433191.6804
  -6280510.68944  -4893900.38644  23710838.9564   23710838.5814
  -9605149.66544  -7484526.89344  22548267.8084   22548268.1034
   9002946.98944   7015282.00244  23517716.1694   23517716.6384
  -3550766.05844  -2766822.31644  23204327.4434   23204324.9984
 -26366431.63944 -20545263.11844  20301897.7414   20301896.9314
 -18627240.46144 -14514723.19544  20723817.4164   20723817.1204
 96  2 17  3 53 30.0000000  0  7G20G 6G16G 9G 4G 5G24
 -19947536.93944 -15543528.59544  21419923.6124   21419923.2054
  -6348710.02844  -4947042.70044  23697860.3994   23697859.7224
  -9686987.36744  -7548296.51244  22532694.3944   22532694.7684
   9093874.81244   7086134.84644  23535019.8644   23535018.3934
  -3457397.58144  -2694067.65544  23222095.1794   23222094.9234
 -26384901.70744 -20559655.38344  20298382.9224   20298382.2864
 -18585211.09644 -14481973.03544  20731815.4514   20731815.4184
 96  2 17  3 54  0.0000000  0  7G20G 6G16G 9G 4G 5G24
 -20016909.86744 -15597585.41744  21406722.2564   21406721.9424
  -6416870.40544  -5000154.62144  23684889.5314   23684890.0504
  -9768528.53744  -7611835.07344  22517177.0984   22517178.2654
   9184913.76944   7157074.29344  23552343.4964   23552343.6784
  -3363909.27744  -2621219.65044  23239885.5634   23239884.3754
 -26402898.39544 -20573678.78044  20294958.0924   20294957.4414
 -18542805.42644 -14448929.65744  20739884.8754   20739884.6294
 96  2 17  3 54 30.0000000  0  7G20G 6G16G 9G 4G 5G24
 -20085944.08644 -15651378.32044  21393585.5544   21393585.2924
  -6485012.41644  -5053252.22844  23671922.3174   23671922.4044
  -9849782.23844  -7675149.62844  22501715.5094   22501716.4564
   9276035.22044   7228078.01844  23569683.2634   23569683.7044
  -3270307.78144  -2548283.41944  23257697.8584   23257696.0924
 -26420423.07744 -20587334.38444  20291623.4844   20291622.6234
 -18500030.80444 -14415598.77744  20748024.5614   20748024.7974
 96  2 17  3 55  0.0000000  0  7G20G 6G16G 9G 4G 5G24
 -20154630.65744 -15704900.31844  21380514.7114   21380514.9224
  -6553135.18744  -5106334.84544  23658959.9664   23658959.6194
  -9930734.10344  -7738228.97244  22486310.9644   22486311.5014
   9367220.10844   7299131.15344  23587033.5964   23587034.2214
  -3176590.40944  -2475256.88744  23275531.1224   23275530.0644
 -26437461.81544 -20600611.32644  20288380.9034   20288380.3534
 -18456887.20044 -14381980.38644  20756234.5414   20756234.8404
 96  2 17  3 55 30.0000000  0  7G20G 6G16G 9G 4G 5G24
 -20222967.83144 -15758150.06444  21367510.5394   21367510.6844
  -6621248.01044  -5159409.83444  23645998.5384   23645997.6864
 -10011404.13744  -7801088.71644  22470960.2404   22470961.0334
   9458456.52544   7370224.44844  23604395.9864   23604397.0934
  -3082757.95444  -2402140.67644  23293386.0964   23293384.9194
 -26454012.18844 -20613507.72644  20285231.7124   20285230.9644
 -18413384.67944 -14348082.31644  20764512.9254   20764512.7654
 96  2 17  3 56  0.0000000  0  7G20G 6G16G 9G 4G 5G24
 -20290946.90844 -15811120.77844  21354575.0644   21354574.4744
  -6689344.68844  -5212473.24044  23633039.2094   23633036.9784
 -10091815.89844  -7863747.21144  22455658.5154   22455658.4514
   9549740.85844   7441355.08144  23621767.6684   23621767.8274
  -2988824.52044  -2328945.80144  23311261.5864   23311260.3214
 -26470077.49444 -20626026.14944  20282174.5004   20282173.7724
 -18369537.83144 -14313915.93444  20772856.6534   20772856.7784
 96  2 17  3 56 30.0000000  0  7G20G 6G16G 9G 4G 5G24
 -20358560.07744 -15863806.36844  21341708.3054   21341708.5514
  -6757420.87144  -5265519.51244  23620083.4224   23620083.5234
 -10171983.27444  -7926215.27644  22440402.8774   22440403.4944
   9641061.95144   7512514.37344  23639145.4804   23639146.0464
  -2894781.58144  -2255665.58744  23329157.1024   23329156.3804
 -26485644.24844 -20638156.09344  20279212.2574   20279211.5924
 -18325348.35244 -14279482.57744  20781265.5444   20781265.5094
 96  2 17  3 57  0.0000000  0  7G20G 6G16G 9G 4G 5G24
 -20425797.73144 -15916199.33444  21328913.4154   21328913.0394
  -6825477.95244  -5318550.94544  23607133.7194   23607133.9394
 -10251918.96044  -7988502.79944  22425191.2994   22425192.3924
   9732427.84844   7583708.55644  23656532.4154   23656533.3664
  -2800641.93744  -2182310.01244  23347071.3914   23347070.2224
 -26500720.57544 -20649903.88344  20276343.3274   20276342.8144
 -18280827.08844 -14244790.67944  20789737.5804   20789737.3294
 96  2 17  3 57 30.0000000  0  7G20G 6G16G 9G 4G 5G24
 -20492652.30944 -15968293.81544  21316191.5654   21316191.3064
  -6893513.86244  -5371565.89044  23594187.1964   23594188.0584
 -10331621.00444  -8050608.26844  22410024.6234   22410024.8634
   9823852.47244   7654948.52944  23673928.1954   23673928.4524
  -2706429.33144  -2108897.59144  23364999.7264   23364998.6784
 -26515307.69944 -20661270.48144  20273567.4474   20273566.7644
 -18235986.08044 -14209849.63144  20798270.6894   20798270.4124
 96  2 17  3 58  0.0000000  0  7G16G 6G 9G 4G20G 5G24
 -10411060.95644  -8112509.50744  22394908.0334   22394908.2654
  -6961538.24044  -5424571.86944  23581242.3184   23581242.8294
   9915322.01944   7726223.49344  23691335.1034   23691334.5844
  -2612169.16944  -2035448.13844  23382936.9334   23382934.9434
 -20559127.87044 -16020092.95544  21303541.1064   21303540.7154
 -26529409.60044 -20672258.98044  20270884.1014   20270883.4684
 -18190830.32044 -14174663.32244  20806863.4764   20806863.3064
 96  2 17  3 58 30.0000000  0  7G20G 6G16G 9G 4G 5G24
 -20625190.38244 -16071570.23044  21290970.5604   21290970.1134
  -7029526.16444  -5477549.46144  23568304.7564   23568304.1914
 -10490171.45444  -8174154.02544  22379853.4504   22379853.4634
  10006864.69844   7797555.43344  23708755.2114   23708755.7954
  -2517828.42844  -1961935.88644  23400888.5954   23400888.5904
 -26542983.39044 -20682835.96444  20268300.9544   20268300.1684
 -18145324.33544 -14139204.11144  20815523.1174   20815522.8364
 96  2 17  3 59  0.0000000  0  7G16G 6G 9G 4G20G 5G24
 -10568915.60044  -8235513.07544  22364869.0334   22364869.7464
  -7097467.63644  -5530490.84844  23555375.5744   23555375.7404
  10098490.83744   7868952.41444  23726191.4844   23726190.2054
  -2423422.44044  -1888372.78944  23418854.1374   23418852.6174
 -20690827.57844 -16122716.09944  21278480.2204   21278479.7854
 -26556020.48544 -20692994.74744  20265820.0404   20265819.3704
 -18099458.77544 -14103464.71144  20824250.9134   20824250.7444
 96  2 17  3 59 30.0000000  0  7G20G 6G16G 9G 4G 5G24
 -20756060.41144 -16173546.87844  21266066.4114   21266066.0854
  -7165373.70244  -5583404.66644  23542453.1074   23542452.3974
 -10647284.75444  -8296579.92944  22349955.8644   22349956.6684
  10190181.70044   7940399.82244  23743640.0934   23743639.5194
  -2328953.29244  -1814760.44844  23436831.2204   23436830.0234
 -26568523.89144 -20702737.66444  20263440.6444   20263439.9394
 -18053230.25144 -14067442.48344  20833047.9404   20833047.8304
 96  2 17  4  0  0.0000000  0  7G20G 6G16G 9G 4G 5G24
 -20820910.58044 -16224079.47444  21253726.2774   21253725.7074
  -7233247.51044  -5636293.34044  23529537.1634   23529536.8034
 -10725292.45244  -8357365.13144  22335111.2844   22335111.8214
  10281918.54344   8011883.08044  23761095.5174   23761098.1594
  -2234408.78244  -1741089.42644  23454822.5524   23454821.2184
 -26580509.23244 -20712076.89644  20261160.0934   20261159.5134
 -18006629.15744 -14031129.93844  20841915.6804   20841915.8724
 96  2 17  4  0 30.0000000  0  7G16G 6G 9G 4G20G 5G24
 -10802946.45144  -8417874.71544  22320334.2264   22320334.9044
  -7301074.21844  -5689145.30944  23516631.1514   23516630.6074
  10373718.74344   8083415.69844  23778565.2754   23778565.1514
  -2139771.18544  -1667345.86544  23472830.9704   23472828.6714
 -20885376.07544 -16274312.33044  21241458.6294   21241458.1244
 -26591973.34644 -20721009.97844  20258978.5384   20258977.8654
 -17959652.79644 -13994524.98644  20850855.0954   20850855.0904
 96  2 17  4  1  0.0000000  0  7G20G16G 6G 9G 4G 5G24
 -20949473.27444 -16324258.19844  21229261.4604   21229261.1504
 -10880275.12544  -8478130.80444  22305619.1614   22305619.9984
  -7368872.99244  -5741975.49944  23503729.1594   23503729.1264
  10465578.10544   8154994.40444  23796045.5934   23796045.9924
  -2045047.40044  -1593535.12944  23490856.4834   23490855.1714
 -26602938.23144 -20729554.05544  20256891.8754   20256891.2064
 -17912311.24844 -13957635.46344  20859864.1074   20859863.7684
 96  2 17  4  1 30.0000000  0  7G20G16G 6G 9G 4G 5G24
 -21013193.91144 -16373910.63844  21217135.6024   21217135.3664
 -10957282.90744  -8538136.85544  22290964.8914   22290965.6754
  -7436629.23044  -5794772.53744  23490835.0624   23490835.9204
  10557519.27144   8226636.88144  23813542.0534   23813542.3904
  -1950206.88344  -1519633.43144  23508903.9464   23508903.0044
 -26613386.65744 -20737695.68744  20254903.6694   20254902.9324
 -17864586.52244 -13920447.36144  20868945.6554   20868945.8404
 96  2 17  4  2  0.0000000  0  7G20G16G 6G 9G 4G 5G24
 -21076533.55444 -16423266.20344  21205082.3544   21205082.2754
 -11033975.98944  -8597897.67444  22276370.7024   22276371.2464
  -7504342.52844  -5847536.11044  23477950.1854   23477951.2334
  10649536.13644   8298338.30944  23831051.2854   23831050.1704
  -1855266.80044  -1445654.13344  23526970.1314   23526968.8494
 -26623321.87644 -20745437.42244  20253012.9744   20253012.2454
 -17816498.12144 -13882975.87944  20878096.6154   20878096.5204
 96  2 17  4  2 30.0000000  0  7G20G16G 6G 9G 4G 5G24
 -21139474.15244 -16472310.82744  21193105.5714   21193105.1464
 -11110352.53544  -8657411.85344  22261836.8644   22261837.5094
  -7572026.83244  -5900277.11144  23465070.3994   23465068.8664
  10741621.84444   8370093.40544  23848574.4144   23848576.4774
  -1760238.80444  -1371606.35744  23545054.0974   23545052.4104
 -26632732.80944 -20752770.62244  20251222.1934   20251221.4614
 -17768061.61644 -13845233.14444  20887313.7154   20887313.5314
 96  2 17  4  3  0.0000000  0  7G20G16G 6G 9G 4G 5G24
 -21202003.00444 -16521034.60844  21181206.4844   21181206.1734
 -11186413.77244  -8716680.33444  22247362.9734   22247363.3924
  -7639682.03244  -5952995.44244  23452196.0494   23452194.6174
  10833762.56844   8441891.37744  23866108.6104   23866108.9394
  -1665123.00844  -1297490.15844  23563153.7414   23563151.1774
 -26641619.67344 -20759695.46044  20249531.2194   20249530.5004
 -17719279.90744 -13807221.41944  20896596.6544   20896596.4604
 96  2 17  4  3 30.0000000  0  7G20G16G 6G 9G 4G 5G24
 -21264126.67944 -16569442.66244  21169385.1884   21169384.5734
 -11262168.23744  -8775709.76344  22232947.2614   22232947.2514
  -7707309.78744  -6005692.36244  23439326.8624   23439326.5034
  10925919.26344   8513701.75044  23883645.0554   23883645.2784
  -1569946.77444  -1223326.83244  23581264.9294   23581261.7834
 -26649988.57644 -20766216.69044  20247938.4894   20247937.9574
 -17670180.79744 -13768962.37444  20905939.9114   20905939.6624
 96  2 17  4  4  0.0000000  0  7G20G16G 6G 9G 4G 5G24
 -21325848.36144 -16617537.48344  21157639.3984   21157639.2594
 -11337618.35744  -8834502.04944  22218589.2474   22218589.6344
  -7774921.34844  -6058376.68244  23426460.4404   23426461.5784
  11018060.53844   8585500.14744  23901180.1184   23901179.9214
  -1474725.53044  -1149128.46544  23599384.8614   23599382.7234
 -26657849.23244 -20772341.88444  20246442.7904   20246442.1234
 -17620791.88444 -13730477.50044  20915337.9664   20915337.9354
 96  2 17  4  4 30.0000000  0  7G20G16G 6G 9G 4G 5G24
 -21387187.89644 -16665334.51644  21145966.6574   21145966.6924
 -11412787.79644  -8893075.61644  22204285.1134   22204285.8234
  -7842533.92344  -6111061.79144  23413593.3154   23413592.7164
  11110159.68344   8657265.72044  23918705.6784   23918704.6154
  -1379476.47744  -1074908.47644  23617510.0944   23617509.2674
 -26665224.26844 -20778088.67044  20245039.4484   20245038.7394
 -17571137.37744 -13691785.67944  20924786.9744   20924787.0084
 96  2 17  4  5  0.0000000  0  7G20G16G 6G 9G 4G 5G24
 -21448117.79544 -16712812.35544  21134372.4704   21134372.2114
 -11487628.28344  -8951392.86144  22190043.4054   22190043.9154
  -7910099.92844  -6163710.61844  23400736.8004   23400736.3474
  11202252.32044   8729026.20344  23936230.6384   23936231.0914
  -1284164.22844  -1000639.17244  23635648.0384   23635646.8744
 -26672074.66644 -20783426.65044  20243735.8524   20243735.0664
 -17521181.09944 -13652858.70844  20934293.6264   20934293.1644
 96  2 17  4  5 30.0000000  0  7G20G16G 6G 9G 4G 5G24
 -21508634.84044 -16759968.49344  21122856.4694   21122856.2584
 -11562110.54544  -9009430.96844  22175869.7394   22175870.3584
  -7977609.12144  -6216315.15344  23387890.0894   23387889.3164
  11294353.22644   8800793.12444  23953756.9164   23953757.1154
  -1188781.95244   -926315.29944  23653797.9204   23653796.5944
 -26678380.60944 -20788340.38044  20242535.8604   20242535.2114
 -17470904.54744 -13613682.17044  20943860.9574   20943860.6254
 96  2 17  4  6  0.0000000  0  7G20G16G 6G 9G 4G 5G24
 -21568739.03044 -16806802.92344  21111419.0344   21111418.8204
 -11636237.96044  -9067192.56844  22161764.6124   22161765.2274
  -8045077.13744  -6268887.61744  23375051.7424   23375051.3824
  11386468.48744   8872571.22744  23971284.8984   23971284.5324
  -1093325.56544   -851933.72044  23671962.3004   23671961.7034
 -26684161.38744 -20792844.88744  20241435.6904   20241435.0494
 -17420308.13244 -13574256.38844  20953489.1504   20953489.0464
 96  2 17  4  6 30.0000000  0  7G16G20G 6G 9G 4G 5G24
 -11709980.75744  -9124654.46544  22147731.0514   22147731.3044
 -21628407.38544 -16853297.74044  21100064.5974   21100064.3354
  -8112497.17144  -6321422.68644  23362221.9924   23362221.4924
  11478621.84844   8944379.03044  23988821.3184   23988821.0184
   -997785.45744   -777486.86244  23690144.2124   23690142.6564
 -26689405.57644 -20796931.27244  20240437.9424   20240437.0914
 -17369377.08544 -13534569.85744  20963180.7534   20963180.4974
 96  2 17  4  7  0.0000000  0  7G16G 6G 9G 4G20G 5G24
 -11783340.66044  -9181818.00644  22133771.3564   22133771.5834
  -8179903.67744  -6373947.20144  23349394.8094   23349394.0774
  11570802.11744   9016207.82644  24006362.8644   24006361.5494
   -902180.65444   -702989.62544  23708337.5194   23708335.4154
 -21687651.20344 -16899461.75444  21088790.8634   21088790.5464
 -26694131.09144 -20800613.49844  20239538.6674   20239537.8944
 -17318119.45444 -13494628.84044  20972934.8184   20972934.7234
 96  2 17  4  7 30.0000000  0  7G 6G16G 9G 4G20G 5G24
  -8247300.68444  -6426464.34744  23336569.9104   23336569.5544
 -11856327.02844  -9238690.48144  22119882.6104   22119883.0984
  11663015.95344   9088062.74244  24023911.2414   24023910.3794
   -806502.58044   -628435.26044  23726542.9074   23726541.9494
 -21746458.06744 -16945285.28544  21077600.2584   21077600.1544
 -26698343.35644 -20803895.78644  20238737.1404   20238736.4654
 -17266537.99144 -13454435.49144  20982750.5794   20982750.5844
 96  2 17  4  8  0.0000000  0  7G 6G16G 9G 4G20G 5G24
  -8314689.06844  -6478974.73444  23323745.9974   23323745.6544
 -11928943.42644  -9295274.66044  22106063.8464   22106064.3814
  11755257.18744   9159939.00544  24041463.3924   24041462.2624
   -710757.17444   -553828.47544  23744763.5504   23744763.3224
 -21804822.06044 -16990763.71544  21066493.6674   21066493.5404
 -26702035.18144 -20806772.53444  20238034.4594   20238033.8124
 -17214637.88344 -13413993.84944  20992626.8264   20992626.4754
 96  2 17  4  8 30.0000000  0  7G 6G16G 9G 4G20G 5G24
  -8382067.09644  -6531477.08444  23310924.4644   23310923.9304
 -12001188.61344  -9351569.59644  22092315.7334   22092316.3614
  11847517.82944   9231830.39944  24059020.8654   24059019.1884
   -614965.99444   -479185.98344  23762992.5104   23762992.2764
 -21862758.57444 -17035909.04844  21055468.9284   21055468.6084
 -26705197.48944 -20809236.67044  20237432.8334   20237432.2134
 -17162419.59244 -13373304.26744  21002563.8264   21002563.3284
 96  2 17  4  9  0.0000000  0  7G 6G16G 9G 4G20G 5G24
  -8449429.33244  -6583967.13544  23298105.4984   23298105.1954
 -12073086.76444  -9407594.10144  22078634.3774   22078634.8714
  11939771.44344   9303716.34744  24076576.5394   24076575.8534
   -519131.46244   -404509.75144  23781228.7484   23781228.0904
 -21920284.15144 -17080734.17644  21044522.1344   21044521.8834
 -26707830.79444 -20811288.60344  20236931.6964   20236930.9024
 -17109879.87744 -13332364.22444  21012561.5724   21012561.0304
 96  2 17  4  9 30.0000000  0  7G 6G16G 9G 4G20G 5G24
  -8516753.22144  -6636427.29844  23285293.6594   23285293.9934
 -12144636.74344  -9463347.30944  22065018.9304   22065019.5154
  12032006.67544   9375587.93344  24094127.5004   24094127.0294
   -423256.82344   -329802.22144  23799472.7244   23799471.1614
 -21977391.04544 -17125233.05544  21033655.1624   21033655.2664
 -26709926.78444 -20812921.84944  20236532.8614   20236532.1674
 -17057025.95944 -13291179.35244  21022619.4094   21022619.2094
 96  2 17  4 10  0.0000000  0  7G 6G16G 9G 4G20G 5G24
  -8584045.50244  -6688862.83044  23272488.4594   23272488.4854
 -12215821.11344  -9518815.63144  22051472.7104   22051473.1594
  12124208.27144   9447433.32244  24111672.6044   24111671.9114
   -327362.59644   -255079.45944  23817721.0884   23817718.2984
 -22034080.04944 -17169406.30344  21022867.7404   21022867.2284
 -26711491.17444 -20814140.86544  20236235.1534   20236234.5374
 -17003862.92544 -13249753.60944  21032735.9474   21032735.8594
 96  2 17  4 10 30.0000000  0  7G 6G16G 9G 4G20G 5G24
  -8651302.79244  -6741271.07944  23259690.2354   23259689.9044
 -12286638.05544  -9573997.64244  22037997.0754   22037997.5254
  12216376.25244   9519252.51044  24129211.6614   24129212.8274
   -231438.68344   -180333.55644  23835975.6274   23835973.9144
 -22090338.73444 -17213244.24144  21012162.0514   21012161.6094
 -26712539.17044 -20814957.49144  20236035.8164   20236035.1234
 -16950397.11144 -13208091.93244  21042910.2074   21042909.8504
 96  2 17  4 11  0.0000000  0  7G 6G16G 9G 4G20G 5G24
  -8718509.69744  -6793640.06944  23246901.8204   23246901.3044
 -12357076.14944  -9628884.44744  22024593.6154   22024594.4824
  12308527.49344   9591058.64944  24146747.4424   24146749.2904
   -135458.75944   -105544.00344  23854239.6894   23854238.9844
 -22146140.89444 -17256726.44044  21001542.9044   21001542.5934
 -26713051.14944 -20815356.44244  20235938.1274   20235937.4884
 -16896626.59744 -13166192.82844  21053142.0754   21053141.8744
 96  2 17  4 11 30.0000000  0  7G 6G16G 9G 4G20G 5G24
  -8785685.88044  -6845985.13444  23234118.4164   23234118.7934
 -12427133.19144  -9683474.33244  22011261.3164   22011261.9024
  12400663.23244   9662852.73544  24164280.4894   24164280.6934
    -39436.44844    -30721.44444  23872511.5104   23872511.1674
 -22201489.10944 -17299854.92344  20991010.5614   20991010.4674
 -26713041.94944 -20815349.27644  20235939.8854   20235939.3054
 -16842577.31944 -13124076.50944  21063427.5354   21063427.5854
 96  2 17  4 12  0.0000000  0  7G16G 6G 9G 4G20G 5G24
 -12496808.45744  -9737766.72544  21998002.5024   21998003.3884
  -8852827.13444  -6898302.98244  23221342.0544   23221341.4874
  12492786.24344   9734636.89044  24181809.9434   24181810.1234
     56638.85344     44142.42344  23890794.5234   23890792.6094
 -22256392.45344 -17342636.74944  20980562.8274   20980562.5284
 -26712505.50544 -20814931.27244  20236042.0644   20236041.4214
 -16788248.35044 -13081742.24544  21073765.9924   21073765.7384
 96  2 17  4 12 30.0000000  0  7G16G 6G 9G 4G20G 5G24
 -12566101.28044  -9791761.11544  21984816.5244   21984817.3934
  -8919912.32944  -6950577.14444  23208576.3174   23208576.0724
  12584904.22744   9806417.12744  24199340.1004   24199340.7764
    152773.81244    119052.77844  23909087.4574   23909086.4384
 -22310854.54444 -17385074.74344  20970199.2154   20970198.8024
 -26711424.35744 -20814088.82644  20236247.9004   20236247.1984
 -16733629.01944 -13039181.72744  21084159.6634   21084159.5634
 96  2 17  4 13  0.0000000  0  7G16G 6G 9G 4G20G 5G24
 -12635024.75744  -9845467.70444  21971700.9584   21971701.2614
  -8986961.67144  -7002823.37744  23195817.7424   23195816.8704
  12676988.21844   9878170.88744  24216863.2414   24216862.3834
    248929.96444    193979.60744  23927385.1204   23927384.4994
 -22364891.76844 -17427181.67344  20959916.1264   20959915.9714
 -26709800.67344 -20812823.62844  20236556.5764   20236555.8684
 -16678729.02444 -12996402.50844  21094606.8184   21094606.6744
 96  2 17  4 13 30.0000000  0  7G16G 6G 9G 4G20G 5G24
 -12703550.34244  -9898864.24244  21958660.5624   21958661.2934
  -9053967.18144  -7055035.44844  23183066.9524   23183065.9734
  12769036.87444   9949897.12144  24234379.0224   24234379.4714
    345099.77944    268917.12544  23945686.3124   23945685.3494
 -22418485.68644 -17468943.16744  20949717.4894   20949717.2874
 -26707631.28244 -20811133.20144  20236969.6014   20236969.0174
 -16623543.49044 -12953400.79244  21105108.3664   21105108.0954
 96  2 17  4 14  0.0000000  0  7G16G 6G 9G 4G20G 5G24
 -12771669.90944  -9951944.40444  21945698.3224   21945698.6214
  -9120928.40844  -7107212.99944  23170324.2224   23170323.8454
  12861054.68944  10021599.31044  24251889.5624   24251891.3124
    441268.33344    343853.66144  23963986.8294   23963987.8384
 -22471635.30044 -17510358.45544  20939603.5454   20939603.1994
 -26704924.34944 -20809023.91044  20237484.8974   20237484.2704
 -16568063.92044 -12910169.96044  21115665.5924   21115665.4904
 96  2 17  4 14 30.0000000  0  7G16G 6G 9G 4G20G 5G24
 -12839357.41344 -10004687.88944  21932817.9264   21932818.4204
  -9187837.41944  -7159349.86944  23157591.9524   23157591.3084
  12953066.19544  10093296.56744  24269398.5674   24269397.9834
    537453.45744    418803.11144  23982291.2384   23982290.4054
 -22524297.19644 -17551393.70144  20929582.3844   20929582.0444
 -26701657.10044 -20806478.01044  20238106.5554   20238105.9024
 -16512273.97344 -12866697.27344  21126282.1004   21126281.8484
 96  2 17  4 15  0.0000000  0  7G 6G16G 9G 4G20G 5G24
  -9254720.44044  -7211466.48544  23144864.3474   23144864.2214
 -12906620.58544 -10057100.72844  21920017.6664   21920018.1494
  13045061.59844  10164981.26944  24286904.7164   24286905.2834
    633660.57244    493769.68044  24000597.7554   24000596.6464
 -22576470.54744 -17592048.26144  20919654.0044   20919653.7044
 -26697839.65744 -20803503.38544  20238832.9264   20238832.1904
 -16456204.31044 -12823006.62044  21136951.8694   21136951.4644
 96  2 17  4 15 30.0000000  0  7G 6G16G 9G 4G20G 5G24
  -9321584.68444  -7263568.51144  23132140.7634   23132139.7424
 -12973457.92744 -10109181.75844  21907299.2984   21907299.7044
  13137051.60744  10236661.85944  24304410.8434   24304410.7074
    729908.64344    568768.16044  24018912.6014   24018910.7804
 -22628169.62044 -17632333.25344  20909815.9424   20909815.6294
 -26693489.15844 -20800113.38944  20239660.9124   20239660.3584
 -16399875.49144 -12779114.03744  21147670.9424   21147670.8804
 96  2 17  4 16  0.0000000  0  7G 6G16G 9G 4G20G 5G24
  -9388422.73244  -7315650.07644  23119421.0924   23119421.3564
 -13039879.62244 -10160938.90644  21894659.4224   21894661.0264
  13229042.85844  10308343.33344  24321915.1404   24321917.5284
    826220.92444    643816.70044  24037240.6944   24037239.9314
 -22679396.68544 -17672250.44844  20900067.6284   20900067.6544
 -26688598.81244 -20796302.73744  20240591.5874   20240590.9454
 -16343273.21744 -12735008.37044  21158441.9654   21158441.5734
 96  2 17  4 16 30.0000000  0  7G 6G16G 9G 4G20G 5G24
  -9455236.06644  -7367712.39444  23106706.6824   23106705.5884
 -13105905.94244 -10212387.96344  21882094.8134   21882095.8884
  13321009.05244  10380005.29344  24339416.7434   24339417.2484
    922597.49244    718915.31144  24055579.5664   24055577.4874
 -22730150.79644 -17711799.10544  20890409.7094   20890409.3764
 -26683157.81444 -20792063.00444  20241627.0784   20241626.5624
 -16286407.82544 -12690697.66844  21169263.1404   21169262.9084
 96  2 17  4 17  0.0000000  0  7G 6G16G 9G 4G20G 5G24
  -9522037.09344  -7419765.11544  23093995.4424   23093995.4544
 -13171549.31144 -10263538.62044  21869603.2424   21869604.0254
  13412923.31644  10451626.78944  24356907.3104   24356907.9554
   1019011.46344    794043.06144  24073927.3224   24073925.4054
 -22780462.74344 -17751003.22544  20880836.0364   20880835.1744
 -26677198.79044 -20787419.61444  20242760.9424   20242760.1844
 -16229289.28944 -12646189.71944  21180132.3024   21180132.2114
 96  2 17  4 17 30.0000000  0  7G 6G16G 9G 4G20G 5G24
  -9588807.10744  -7471793.66044  23081289.2284   23081288.1374
 -13236818.80144 -10314397.94444  21857183.0304   21857183.8414
  13504767.04944  10523193.32144  24374385.1774   24374385.1274
   1115445.04344    869186.12544  24092277.6864   24092278.2924
 -22830332.75744 -17789862.97744  20871345.8014   20871345.5434
 -26670741.03444 -20782387.60144  20243989.7224   20243989.2974
 -16171897.94444 -12601469.19544  21191053.7984   21191053.6494
 96  2 17  4 18  0.0000000  0  7G 6G16G 9G 4G20G 5G24
  -9655536.27344  -7523790.40944  23068591.0984   23068589.7114
 -13301719.44644 -10364969.84744  21844832.7114   21844833.2164
  13596525.19944  10594693.17244  24391845.4644   24391843.5324
   1211877.62344    944328.38844  24110628.6584   24110625.9134
 -22879753.11544 -17828372.34644  20861941.1914   20861940.8044
 -26663775.41744 -20776959.85744  20245315.2814   20245314.6144
 -16114216.99344 -12556523.00144  21202029.8494   21202029.7964
 96  2 17  4 18 30.0000000  0  7G 6G16G 9G 4G20G 5G24
  -9722233.87844  -7575762.56044  23055899.4644   23055898.3534
 -13366252.56944 -10415255.38044  21832552.5584   21832552.9384
  13688190.87744  10666121.00444  24409288.7964   24409287.8184
   1308282.71344   1019449.24644  24128974.1094   24128971.3034
 -22928727.93444 -17866534.54544  20852621.4634   20852621.3924
 -26656306.04944 -20771139.57244  20246736.6654   20246736.0774
 -16056263.38344 -12511364.34344  21213058.1874   21213057.6704
 96  2 17  4 19  0.0000000  0  7G 6G16G 9G 4G20G 5G24
  -9788876.60244  -7627691.94844  23043217.1194   23043216.5004
 -13430381.78744 -10465226.18044  21820349.2844   21820349.4434
  13779786.47244  10737494.17644  24426719.2204   24426718.7844
   1404678.85644   1094563.09844  24147317.4804   24147317.9284
 -22977241.17044 -17904337.06244  20843390.0934   20843389.7954
 -26648319.63644 -20764916.40044  20248256.3254   20248255.5604
 -15998027.47144 -12465985.70144  21224140.0594   21224139.6144
 96  2 17  4 19 30.0000000  0  7G 6G16G 9G 4G20G 5G24
  -9855448.31544  -7679565.99844  23030548.6804   23030548.7214
 -13494082.84644 -10514863.34644  21808227.5134   21808227.4384
  13871332.64144  10808828.85044  24444138.6144   24444140.1204
   1501082.34844   1169682.70944  24165662.7414   24165662.3754
 -23025260.42644 -17941754.66944  20834252.1654   20834251.8354
 -26639771.62944 -20758255.62144  20249883.0714   20249882.4624
 -15939502.61844 -12420381.92544  21235277.0594   21235276.7974
 96  2 17  4 20  0.0000000  0  7G 6G16G 9G 4G20G 5G24
  -9922005.15044  -7731428.43544  23017884.0354   23017882.8574
 -13557379.98144 -10564185.76544  21796182.7184   21796182.7254
  13962801.02744  10880102.92044  24461544.7594   24461545.1424
   1597443.46844   1244769.27044  24183999.8074   24183998.3464
 -23072829.13144 -17978821.19344  20825200.2864   20825199.9714
 -26630678.65944 -20751170.20044  20251613.3474   20251612.6624
 -15880751.36644 -12374601.72444  21246457.1694   21246456.7564
 96  2 17  4 20 30.0000000  0  7G 6G16G 9G 4G20G 5G24
  -9988551.15944  -7783282.45244  23005220.4884   23005219.9074
 -13620245.19644 -10613171.62544  21784219.5194   21784219.9544
  14054193.99244  10951318.21344  24478935.6794   24478936.5884
   1693777.33444   1319834.64444  24202331.7404   24202331.6194
 -23119928.82844 -18015522.25944  20816237.6954   20816237.2264
 -26621035.42844 -20743656.00044  20253448.3444   20253447.5964
 -15821782.58344 -12328652.02244  21257678.3794   21257678.1784
 96  2 17  4 21  0.0000000  0  7G 6G16G 9G 4G20G 5G24
 -10055052.96544  -7835102.02144  22992565.1224   22992564.5104
 -13682628.32044 -10661781.82444  21772348.7674   21772348.8884
  14145536.08944  11022493.88944  24496317.9754   24496318.9354
   1790126.55844   1394911.93944  24220665.8074   24220665.4184
 -23166523.27844 -18051829.62444  20807370.9114   20807370.3934
 -26610812.02844 -20735689.72144  20255393.9124   20255393.4574
 -15762564.57644 -12282508.12444  21268947.1654   21268947.0744
 96  2 17  4 21 30.0000000  0  7G 6G16G 9G 4G20G 5G24
 -10121523.19944  -7886896.99844  22979916.3594   22979915.8934
 -13744538.34944 -10710023.38744  21760567.2084   21760567.5984
  14236822.16544  11093625.86644  24513688.6824   24513687.9124
   1886479.70744   1469992.31944  24239001.7044   24239001.1714
 -23212626.09144 -18087753.89344  20798597.5844   20798597.2464
 -26600022.67544 -20727282.43944  20257447.0024   20257446.3064
 -15703097.50344 -12236170.14344  21280263.1274   21280262.7944
 96  2 17  4 22  0.0000000  0  7G 6G16G 9G 4G20G 5G24
 -10187951.55344  -7938659.34444  22967275.9834   22967274.8044
 -13805976.36044 -10757897.14244  21748876.0904   21748876.4894
  14328042.62444  11164706.75744  24531048.7734   24531047.9284
   1982842.16044   1545079.96444  24257338.0984   24257338.6194
 -23258247.84544 -18123303.31544  20789916.2804   20789916.0044
 -26588689.06944 -20718451.06444  20259603.6204   20259603.0474
 -15643373.93344 -12189632.29844  21291628.2214   21291627.9814
 96  2 17  4 22 30.0000000  0  7G 6G16G 9G 4G20G 5G24
 -10254315.25844  -7990371.30644  22954647.3894   22954647.0454
 -13866923.33344 -10805388.27144  21737278.4674   21737278.7874
  14419208.79144  11235745.32744  24548397.2824   24548396.9044
   2079247.97044   1620201.34944  24275682.2984   24275682.6154
 -23303367.13744 -18158461.20444  20781330.4544   20781330.3264
 -26576802.17444 -20709188.55544  20261865.7704   20261864.9354
 -15583366.87844 -12142873.55444  21303047.1064   21303046.8084
 96  2 17  4 23  0.0000000  0  7G 6G16G 9G 4G20G 5G24
 -10320609.23044  -8042028.93544  22942032.0764   22942031.5644
 -13927400.93144 -10852513.65044  21725769.5334   21725769.7414
  14510321.37644  11306742.19244  24565734.6624   24565736.4894
   2175694.66844   1695354.59544  24294035.6054   24294036.2934
 -23347998.45344 -18193238.85544  20772837.3314   20772837.1194
 -26564358.72544 -20699492.36744  20264233.5734   20264232.9084
 -15523084.31144 -12095900.12644  21314518.5674   21314518.2484
 96  2 17  4 23 30.0000000  0  7G 6G16G 9G 4G20G 5G24
 -10386843.05044  -8093639.68844  22929428.0844   22929427.0174
 -13987430.94544 -10899290.26444  21714346.5104   21714346.7884
  14601366.91844  11377686.72944  24583060.8864   24583059.8054
   2272165.19944   1770526.43844  24312392.2974   24312393.0874
 -23392147.37544 -18227640.61544  20764436.0784   20764435.6784
 -26551365.96744 -20689368.14644  20266706.1634   20266705.5014
 -15462535.95744 -12048719.58844  21326040.5084   21326040.3734
 96  2 17  4 24  0.0000000  0  7G 6G16G 9G 4G20G 5G24
 -10453041.71044  -8145223.05544  22916831.1144   22916830.6884
 -14047020.69344 -10945723.81944  21703006.8914   21703006.8554
  14692335.00444  11448570.94344  24600371.5404   24600372.0554
   2368652.24144   1845711.14744  24330753.6044   24330752.9004
 -23435807.33344 -18261661.36244  20756127.5744   20756127.3874
 -26537825.95444 -20678817.49444  20269282.7074   20269282.1174
 -15401743.35144 -12001348.73344  21337609.3784   21337609.0734
 96  2 17  4 24 30.0000000  0  7G 6G16G 9G 4G20G 5G24
 -10519245.41844  -8196810.35144  22904232.6974   22904232.1504
 -14106187.52344 -10991827.82144  21691747.4254   21691747.8644
  14783215.68644  11519387.05444  24617665.6544   24617668.1004
   2465125.33544   1920885.03044  24349112.1134   24349112.2954
 -23478979.40044 -18295301.93744  20747912.3604   20747912.1144
 -26523752.16444 -20667850.91144  20271960.9904   20271960.4714
 -15340738.22344 -11953812.26844  21349218.0354   21349217.5564
 96  2 17  4 25  0.0000000  0  7G 6G16G 9G 4G20G 5G24
 -10585448.52844  -8248397.18244  22891634.9244   22891634.3224
 -14164932.05644 -11037602.75544  21680569.2004   21680569.6014
  14874010.05444  11590135.91144  24634942.9894   24634942.6864
   2561575.11944   1996040.64344  24367466.2364   24367463.4284
 -23521647.79444 -18328550.03944  20739792.8674   20739792.5174
 -26509146.38344 -20656469.78944  20274740.2444   20274739.6414
 -15279518.39544 -11906108.50644  21360867.5294   21360867.4344
 96  2 17  4 25 30.0000000  0  7G 6G16G 9G 4G20G 5G24
 -10651633.00144  -8299969.48344  22879040.6234   22879040.0304
 -14223225.43844 -11083026.15044  21669476.0144   21669476.2744
  14964722.16744  11660820.66344  24652203.7354   24652202.1664
   2658012.38644   2071186.52344  24385818.5684   24385818.0214
 -23563786.44044 -18361385.34944  20731774.4154   20731774.0344
 -26493999.03344 -20644666.67044  20277622.5794   20277622.0164
 -15218056.41744 -11858216.05444  21372563.6504   21372563.2284
 96  2 17  4 26  0.0000000  0  7G 6G16G 9G 4G20G 5G24
 -10717808.20644  -8351534.56244  22866447.7764   22866446.9854
 -14281089.54644 -11128115.04444  21658465.2344   21658465.2354
  15055327.19244  11731421.95944  24669445.2514   24669445.8914
   2754422.16944   2146311.04144  24404164.7284
 -23605408.54644 -18393818.16144  20723853.8024   20723853.4334
 -26478323.95344 -20632452.32944  20280605.4494   20280604.8494
 -15156374.15044 -11810151.95144  21384301.5154   21384301.0304
 96  2 17  4 26 30.0000000  0  7G 6G16G 9G 4G20G 5G24
 -10783929.15744  -8403057.36044  22853865.1894   22853864.6844
 -14338492.01144 -11172844.21544  21647541.3794   21647541.7524
  15145832.40244  11801945.52344  24686669.4334   24686670.4564
   2850818.70744   2221425.29444  24422509.3454   24422505.9444
 -23646496.17544 -18425834.49644  20716034.9114   20716034.9804
 -26462094.85944 -20619806.28944  20283693.8354   20283693.2884
 -15094445.72644 -11761896.03544  21396086.3214   21396086.0564
 96  2 17  4 27  0.0000000  0  7G 6G16G 9G 4G20G 5G24
 -10849974.53244  -8454521.27444  22841297.1374   22841296.8764
 -14395429.00644 -11217210.68644  21636706.7234   21636707.0034
  15236226.46344  11872382.42844  24703868.7494   24703869.3964
   2947221.02444   2296543.92444  24440853.7554   24440855.2164
 -23687070.46444 -18457450.82844  20708313.6484   20708313.3934
 -26445305.10644 -20606723.37244  20286888.8674   20286888.2784
 -15032260.42044 -11713439.95644  21407919.4824   21407919.3424
 96  2 17  4 27 30.0000000  0  8G 6G16G 9G17G 4G20G 5G24
 -10915970.42544  -8505946.62544  22828738.6054   22828738.7774
 -14451921.72944 -11261230.96844  21625956.3774   21625956.7404
  15326486.89844  11942715.23444  24721045.8184   24721046.2254
        -0.59154                  25529029.9864
   3043594.22144   2371639.84544  24459192.1394   24459192.3244
 -23727165.65544 -18488693.83844  20700684.3544   20700683.9724
 -26427976.97744 -20593220.94044  20290186.3814   20290185.7074
 -14969848.40644 -11664807.21844  21419795.9794   21419796.0544
 96  2 17  4 28  0.0000000  0  8G 6G16G 9G17G 4G20G 5G24
 -10981915.28744  -8557332.21844  22816189.0284   22816189.3544
 -14507955.09044 -11304893.30844  21615293.9514   21615294.1844
  15416632.45244  12012958.54744  24738200.0394   24738198.8844
    -98478.86544                  25510291.5494
   3139929.25244   2446706.11644  24477524.2894   24477521.0224
 -23766776.30944 -18519559.28244  20693146.6704   20693146.2844
 -26410097.95244 -20579289.23844  20293588.6294   20293588.0374
 -14907213.36444 -11616000.69744  21431715.1644   21431715.2174
 96  2 17  4 28 30.0000000  0  8G 6G16G 9G17G 4G20G 5G24
 -11047822.91844  -8608688.81044  22803647.2544   22803646.6314
 -14563525.30244 -11348194.74744  21604719.0114   21604719.3704
  15506663.43344  12083112.54844  24755331.9834   24755335.1514
   -196863.78944                  25491570.8404
   3236215.63744   2521734.45744  24495848.1824   24495847.6294
 -23805920.96644 -18550061.61444  20685697.7664   20685697.3884
 -26391686.81744 -20564942.90744  20297092.2414   20297091.4864
 -14844363.93044 -11567027.11344  21443674.9494   21443674.6294
 96  2 17  4 29  0.0000000  0  8G 6G16G 9G17G 4G20G 5G24
 -11113665.95544  -8659995.07544  22791117.9484   22791117.6494
 -14618620.28244 -11391125.87444  21594234.9774   21594235.1994
  15596619.29644  12153208.03744  24772451.8074   24772450.1504
   -295126.01944                  25472872.6094
   3332484.13244   2596748.86944  24514167.1704   24514164.3124
 -23844562.21844 -18580171.68644  20678344.2924   20678344.2274
 -26372724.94544 -20550167.43344  20300700.4194   20300699.8024
 -14781274.16744 -11517866.25644  21455680.3224   21455680.1414
 96  2 17  4 29 30.0000000  0  7G 6G16G 9G 4G20G 5G24
 -11179451.26044  -8711256.32644  22778599.3284   22778599.5954
 -14673232.35044 -11433680.70744  21583842.5384   21583842.9214
  15686505.60344  12223249.33744  24789555.9704   24789553.7554
   3428721.30244   2671738.88544  24532480.1964   24532478.5834
 -23882671.06344 -18609866.89244  20671092.4134   20671091.9694
 -26353207.53244 -20534959.06944  20304414.2764   20304413.7074
 -14717948.41444 -11468521.51644  21467731.1024   21467731.1824
 96  2 17  4 30  0.0000000  0  7G 6G16G 9G 4G20G 5G24
 -11245204.31544  -8762492.46544  22766087.2634   22766086.9724
 -14727371.40244 -11475866.96244  21573540.2814   21573540.5724
  15776297.21044  12293216.81644  24806642.3244   24806641.9194
   3524933.65344   2746709.55344  24550789.4664   24550786.8684
 -23920252.96644 -18639151.49744  20663940.9224   20663940.7254
 -26333153.34844 -20519332.43944  20308230.6494   20308230.1394
 -14654401.30144 -11419004.28744  21479823.5054   21479823.0904
 96  2 17  4 30 30.0000000  0  7G 6G16G 9G 4G20G 5G24
 -11310926.86944  -8813704.83244  22753580.7594   22753580.0994
 -14781035.77944 -11517683.33844  21563328.3794   21563328.5554
  15865988.20344  12363105.90244  24823710.2204   24823709.3134
   3621144.74344   2821679.24144  24569096.7174   24569095.9194
 -23957294.66744 -18668015.15644  20656892.2514   20656891.9254
 -26312572.22944 -20503295.21344  20312147.0364   20312146.6094
 -14590625.39944 -11369308.77544  21491959.5984   21491959.4044
 96  2 17  4 31  0.0000000  0  7G 6G16G 9G 4G20G 5G24
 -11376629.73044  -8864901.84844  22741077.7854   22741077.3224
 -14834213.53844 -11559120.52944  21553208.6464   21553209.1454
  15955574.85844  12432913.71944  24840757.4974   24840757.9364
   3717351.51044   2896645.55844  24587404.4034   24587403.6264
 -23993775.66744 -18696441.91644  20649950.0504   20649949.9634
 -26291447.25344 -20486834.20044  20316166.9954   20316166.4414
 -14526615.31244 -11319430.78644  21504140.3864   21504140.2274
 96  2 17  4 31 30.0000000  0  8G 6G16G 9G17G 4G20G 5G24
 -11442325.84244  -8916093.61244  22728576.0274   22728575.4324
 -14886885.58044 -11600163.65944  21543185.6344   21543185.9454
  16045044.54344  12502630.34844  24857782.2904   24857784.2674
        -1.07354                  25379743.2654
   3813558.78344   2971612.24444  24605711.7524   24605710.4464
 -24029708.39944 -18724441.44644  20643111.9064   20643111.8154
 -26269778.83544 -20469949.72644  20320290.6124   20320290.0924
 -14462378.80744 -11269376.36544  21516363.8654   21516364.1174
 96  2 17  4 32  0.0000000  0  8G 6G16G 9G17G 4G20G 5G24
 -11508021.62644  -8967285.12944  22716075.1804   22716074.1454
 -14939054.63344 -11640814.84844  21533258.0754   21533258.4994
  16134380.64644  12572242.91744  24874783.1294   24874785.2794
    -97555.81144                  25361180.3384
   3909761.22344   3046575.20544  24624019.4924   24624016.1754
 -24065126.42944 -18752039.91844  20636372.5854   20636372.1794
 -26247585.51244 -20452656.23444  20324513.5794   20324513.1074
 -14397935.12144 -11219160.51144  21528627.1434   21528627.3464
 96  2 17  4 32 30.0000000  0  8G 6G16G 9G17G 4G20G 5G24
 -11573697.19644  -9018460.88144  22703577.2244   22703576.6654
 -14990721.62344 -11681074.82044  21523426.1444   21523426.5324
  16223595.52444  12641760.99844  24891759.5784   24891758.1644
   -195026.25544   -151967.98644  25342633.1764
   4005941.79644   3121521.11244  24642321.2824   24642319.9364
 -24100039.18344 -18779244.66244  20629728.7314   20629728.2904
 -26224854.17644 -20434943.50944  20328839.4094   20328838.7054
 -14333285.68644 -11168784.32444  21540929.6324   21540929.3414
 96  2 17  4 33  0.0000000  0  8G 6G16G 9G17G 4G20G 5G24
 -11639327.93044  -9069601.70844  22691088.0224   22691087.6354
 -15041887.50244 -11720944.31344  21513689.4364   21513689.8624
  16312698.02144  12711191.53544  24908714.9984
   -292390.37244   -227836.14144  25324105.3064
   4102096.85844   3196447.17944  24660620.1374   24660616.0774
 -24134451.92744 -18806059.79044  20623180.0784   20623179.6984
 -26201563.20344 -20416794.70544  20333271.5304   20333270.9074
 -14268438.54244 -11118254.08544  21553270.1544   21553269.7864
 96  2 17  4 33 30.0000000  0  8G 6G16G 9G17G 4G20G 5G24
 -11704870.12044  -9120673.53644  22678615.6754   22678614.9334
 -15092540.25344 -11760413.96444  21504050.6264   21504051.0344
  16401703.28544  12780546.29844  24925652.6444   24925653.2174
   -389610.15944   -303591.81244  25305604.6414   25305604.2094
   4198248.76244   3271370.73544  24678916.5454   24678916.9204
 -24168357.57644 -18832479.77844  20616728.3904   20616728.0374
 -26177699.33644 -20398199.48944  20337812.6604   20337811.8774
 -14203376.65144 -11067556.50644  21565650.6694   21565650.3804
 96  2 17  4 34  0.0000000  0  8G 6G16G 9G17G 4G20G 5G24
 -11770312.18844  -9171667.34344  22666162.3594   22666162.1144
 -15142684.66144 -11799487.50844  21494508.3454   21494508.7594
  16490615.50544  12849828.50944  24942571.4784   24942571.0424
   -486675.30544                  25287131.6384
   4294382.91244   3346280.49144  24697209.7614   24697209.1694
 -24201735.91444 -18858488.87844  20610376.4854   20610376.3424
 -26153247.40244 -20379146.04144  20342465.5304   20342465.0024
 -14138090.38644 -11016684.09044  21578074.2344   21578074.0274
 96  2 17  4 34 30.0000000  0  8G 6G16G24G 9G17G 4G20G 5
 -11835710.69644  -9222627.21044  22653717.3954   22653716.7994
 -15192395.11244 -11838222.90244  21485049.0654   21485049.4074
 -14072645.46344 -10965688.04344  21590528.0494   21590527.8834
  16579363.77544  12918983.02344  24959461.7034   24959463.2574
   -583646.82844   -454789.12544  25268671.7924
   4390427.92844   3421120.77744  24715487.3854   24715486.0394
 -24234623.54544 -18884115.60444  20604118.1534   20604117.8624
 -26128275.42844 -20359687.36444  20347217.7084   20347217.1154
 96  2 17  4 35  0.0000000  0  8G 6G16G 9G17G 4G20G 5G24
 -11901075.85244  -9273561.08444  22641279.0694   22641278.0594
 -15241662.11844 -11876612.75644  21475673.6014   21475674.0874
  16667924.47544  12987991.33444  24976313.2524   24976314.9324
   -680509.73944   -530266.79444  25250238.8384
   4486394.98644   3495900.24644  24733748.4344   24733748.6174
 -24267007.48144 -18909349.84344  20597955.6224   20597955.2324
 -26102786.48344 -20339825.85344  20352068.1384   20352067.6114
 -14007041.81444 -10914568.31444  21603011.8554   21603011.7994
 96  2 17  4 35 30.0000000  0  8G 6G16G24G 9G17G 4G20G 5
 -11966432.78344  -9324488.55844  22628842.0154   22628841.3804
 -15290485.59444 -11914657.00644  21466383.3314   21466383.5054
 -13941289.37244 -10863332.64644  21615524.4054   21615524.3894
  16756275.63644  13056836.41444  24993126.6054   24993124.3544
   -777289.86744   -605679.85644  25231823.1084   25231827.0924
   4582270.84944   3570608.72144  24751992.0664   24751988.5174
 -24298885.92144 -18934190.18844  20591889.5934   20591889.2904
 -26076797.40944 -20319574.63344  20357013.5774   20357013.0554
 96  2 17  4 36  0.0000000  0  8G 6G16G24G 9G17G 4G20G 5
 -12031738.18544  -9375375.87644  22616414.4204   22616413.2364
 -15338802.41744 -11952306.46044  21457188.4524   21457189.0854
 -13875332.81744 -10811937.92744  21628075.2954   21628075.3754
  16844481.37944  13125568.18844  25009910.6114   25009908.3054
   -873948.56244   -680998.30544  25213433.4104
   4678110.90544   3645289.27544  24770230.4564   24770226.0554
 -24330189.03544 -18958582.22644  20585932.8884   20585932.4814
 -26050263.31344 -20298898.72144  20362063.0604   20362062.5634
 96  2 17  4 36 30.0000000  0  8G 6G16G24G 9G17G 4G20G 5
 -12096969.79544  -9426205.69244  22604001.9714   22604000.6794
 -15386580.65944 -11989536.23544  21448095.9394   21448096.7034
 -13809155.29944 -10760371.02944  21640668.8294   21640668.4064
  16932559.25244  13194200.27744  25026671.9564   25026671.3164
   -970469.79144   -756209.62144  25195069.9304   25195068.9564
   4773944.22644   3719964.61544  24788466.6784
 -24360918.32044 -18982527.12844  20580085.1464   20580084.7444
 -26023176.24544 -20277791.91944  20367217.4724   20367216.8664
 96  2 17  4 37  0.0000000  0  8G 6G16G24G 9G17G 4G20G 5
 -12162162.47344  -9477005.16644  22591596.4754   22591595.1624
 -15433833.34444 -12026356.48744  21439104.8224   21439105.4484
 -13742770.42344 -10708642.55444  21653301.6154   21653301.1164
  17020493.62944  13262720.60844  25043405.3724
  -1066871.93844   -831328.20844  25176726.5594   25176723.4254
   4869751.67944   3794619.73844  24806699.2404   24806697.4414
 -24391109.19844 -19006052.48844  20574339.8604   20574339.6244
 -25995548.60244 -20256263.89444  20372474.8674   20372474.2534
 96  2 17  4 37 30.0000000  0  8G 6G16G24G 9G17G 4G20G 5
 -12227323.09144  -9527779.67044  22579196.7144   22579195.6384
 -15480569.40944 -12062774.18044  21430211.3014   21430211.6884
 -13676186.94844 -10656759.32644  21665971.7544   21665971.2874
  17108293.99144  13331136.52844  25060113.0164   25060113.9954
  -1163177.52544   -906371.52444  25158400.7244   25158397.0954
   4965516.29044   3869241.55944  24824923.3184   24824925.7584
 -24420764.83344 -19029160.77844  20568696.6754   20568696.2854
 -25967402.17944 -20234331.62244  20377830.8054   20377830.2794
 96  2 17  4 38  0.0000000  0  8G 6G16G24G 9G17G 4G20G 5
 -12292438.78444  -9578519.15444  22566805.6444   22566803.8744
 -15526794.12244 -12098793.41544  21421414.6324   21421415.1454
 -13609404.65644 -10604721.16944  21678680.1734   21678680.0134
  17195953.47644                  25076794.1394
  -1259372.42044   -981328.62644  25140095.3114   25140093.6294
   5061236.40244   3943828.65244  24843137.8004   24843134.9024
 -24449888.34244 -19051854.41844  20563154.8224   20563154.6324
 -25938738.64844 -20211996.40944  20383285.5124   20383284.9284
 96  2 17  4 38 30.0000000  0  8G 6G16G24G 9G17G 4G20G 5
 -12357480.07444  -9629200.67044  22554428.7414   22554427.3144
 -15572490.94444 -12134401.30244  21412719.1364   21412719.4714
 -13542413.85544 -10552520.54644  21691427.5324   21691427.9404
  17283481.48344                  25093448.9764
  -1355421.36144  -1056171.99944  25121816.8314   25121813.2634
   5156933.14844   4018397.55044  24861347.3704
 -24478455.73844 -19074114.73044  20557718.5084   20557718.1614
 -25909507.12044 -20189218.60044  20388847.9764   20388847.4554
 96  2 17  4 39  0.0000000  0  8G 6G16G24G 9G17G 4G20G 5
 -12422479.69444  -9679849.72244  22542058.9444   22542058.7514
 -15617693.41644 -12169623.99044  21404117.0054   21404117.3784
 -13475246.06544 -10500182.01744  21704209.0744   21704209.2334
  17370847.60844                  25110075.0004
  -1451351.51544  -1130922.82244  25103559.5864   25103556.5534
   5252583.30844   4092930.12744  24879549.5054
 -24506462.00644 -19095937.79844  20552389.4214   20552389.0274
 -25879717.78844 -20166006.14344  20394516.5944   20394516.0914
 96  2 17  4 39 30.0000000  0  7G 6G16G24G 9G 4G20G 5
 -12487445.69044  -9730472.56244  22529696.2964   22529695.7654
 -15662423.75044 -12204478.77444  21395605.0344   21395605.6164
 -13407932.74144 -10447730.07144  21717018.4104   21717018.4604
  17458022.15044                  25126662.8034
   5348159.09144   4167404.82944  24897737.2494
 -24533924.43644 -19117337.10044  20547163.2874   20547162.8734
 -25849386.63344 -20142371.48644  20400288.4744   20400287.8804
 96  2 17  4 40  0.0000000  0  7G 6G16G24G 9G 4G20G 5
 -12552317.26244  -9781021.84844  22517351.6924   22517351.7514
 -15706625.77344 -12238921.88944  21387193.8964   21387194.0254
 -13340411.51844 -10395116.13544  21729867.3034   21729867.3064
  17545049.09944  13671465.16044  25143224.6804
   5443709.92044   4241860.06644  24915920.2684   24915917.4154
 -24560801.50544 -19138280.27544  20542048.7604   20542048.5814
 -25818443.53544 -20118259.99244  20406176.6754   20406176.1474
 96  2 17  4 40 30.0000000  0  8G 6G16G24G 9G17G 4G20G 5
 -12617074.02244  -9831481.64944  22505028.9004   22505028.5004
 -15750263.12244 -12272925.00044  21378890.3614   21378890.6564
 -13272645.26444 -10342311.25744  21742763.0514   21742762.7544
  17631965.65444  13739192.38044  25159763.8054
        -1.19954                  25048933.1114
   5539266.30144                  24934103.1354
 -24587062.52044 -19158743.40444  20537051.3624   20537050.8604
 -25786862.56444 -20093651.44944  20412186.5374   20412185.8594
 96  2 17  4 41  0.0000000  0  8G 6G16G24G 9G17G 4G20G 5
 -12681841.96744  -9881950.17344  22492704.1804   22492703.6274
 -15793447.40644 -12306575.07344  21370672.3094   21370672.3964
 -13204755.25044 -10289409.95144  21755682.0004   21755682.0044
  17718645.39044  13806735.01544  25176259.1944   25176258.5594
    -95480.05744    -74399.54844  25030766.3374   25030769.0344
   5634696.83444                  24952263.3304
 -24612842.82244 -19178831.95444  20532145.5324   20532145.5204
 -25754799.94944 -20068667.60244  20418287.7864   20418287.2354
